[[{"header":{"parameterUnit":"m.s-1","parameterCategory":1,"la1":30.6,"la2":29.2853,"lo1":-89.7004,"lo2":-87.6739,"dx":0.0162,"dy":0.0183,"nx":112,"ny":82,"refTime":"2023-01-13T06:00:00:Z","depth":0,"parameterNumber":2,"parameterNumberName":"U-component_of_WINDS"},"data":[0.0,0.0,0.0,0.0,0.0,0.0,0.0,0.0,0.0,0.0,0.0,0.0,0.0,0.0,0.0,0.0,0.0,0.0,0.0,0.0,0.0,0.0,0.0,0.0,0.0,0.0,0.0,0.0,0.0,0.0,0.0,0.0,0.0,0.0,0.0,0.0,0.0,0.0,0.0,0.0,0.0,0.0,0.0,0.0,0.0,0.0,0.0,0.0,0.0,0.0,0.0,0.0,0.0,0.0,0.0,0.0,0.0,0.0,0.0,0.0,0.0,0.0,0.0,0.0,0.0,0.0,0.0,0.0,0.0,0.0,0.0,0.0,0.0,0.0,0.0,0.0,0.0,0.0,0.0,0.0,0.0,0.0,0.0,0.0,0.0,0.0,0.0,0.0,0.0,0.0,0.0,7.2039,8.155,8.8206,8.9858,8.9234,8.4682,7.5065,0.0,0.0,0.0,0.0,0.0,0.0,0.0,0.0,0.0,0.0,0.0,0.0,0.0,0.0,0.0,0.0,0.0,0.0,0.0,0.0,0.0,0.0,0.0,0.0,0.0,0.0,0.0,0.0,0.0,0.0,0.0,0.0,0.0,0.0,0.0,0.0,0.0,0.0,0.0,0.0,0.0,0.0,0.0,0.0,0.0,0.0,0.0,0.0,0.0,0.0,0.0,0.0,0.0,0.0,0.0,0.0,0.0,0.0,0.0,0.0,0.0,0.0,0.0,0.0,0.0,0.0,0.0,0.0,0.0,0.0,0.0,0.0,0.0,0.0,0.0,0.0,0.0,0.0,0.0,0.0,0.0,0.0,0.0,0.0,0.0,0.0,0.0,0.0,0.0,0.0,0.0,0.0,0.0,0.0,0.0,0.0,0.0,0.0,0.0,0.0,0.0,0.0,0.0,0.0,6.813,8.1934,8.7369,9.0739,9.2391,9.1803,8.7472,7.8442,0.0,0.0,0.0,0.0,0.0,0.0,0.0,0.0,0.0,0.0,0.0,0.0,0.0,0.0,0.0,0.0,0.0,0.0,0.0,0.0,0.0,0.0,0.0,0.0,0.0,0.0,0.0,0.0,0.0,0.0,0.0,0.0,0.0,0.0,0.0,0.0,0.0,0.0,0.0,0.0,0.0,0.0,0.0,0.0,0.0,0.0,0.0,0.0,0.0,0.0,0.0,0.0,0.0,0.0,0.0,0.0,0.0,0.0,0.0,0.0,0.0,0.0,0.0,0.0,0.0,0.0,0.0,0.0,0.0,0.0,0.0,0.0,0.0,0.0,0.0,0.0,0.0,0.0,0.0,0.0,0.0,0.0,0.0,0.0,0.0,0.0,0.0,0.0,0.0,0.0,0.0,0.0,0.0,0.0,0.0,0.0,0.0,0.0,0.0,0.0,0.0,0.0,0.0,6.6181,7.479,8.6522,9.0262,9.2427,9.3639,9.3418,8.9381,8.0461,7.3854,0.0,0.0,0.0,0.0,0.0,0.0,0.0,0.0,0.0,0.0,0.0,0.0,0.0,0.0,0.0,0.0,0.0,0.0,0.0,0.0,0.0,0.0,0.0,0.0,0.0,0.0,0.0,0.0,0.0,0.0,0.0,0.0,0.0,0.0,0.0,0.0,0.0,0.0,0.0,0.0,0.0,0.0,0.0,0.0,0.0,0.0,0.0,0.0,0.0,0.0,0.0,0.0,0.0,0.0,0.0,0.0,0.0,0.0,0.0,0.0,0.0,0.0,0.0,0.0,0.0,0.0,0.0,0.0,0.0,0.0,0.0,0.0,0.0,0.0,0.0,0.0,0.0,0.0,0.0,0.0,0.0,0.0,0.0,0.0,0.0,0.0,0.0,0.0,0.0,0.0,0.0,0.0,0.0,0.0,0.0,0.0,0.0,0.0,0.0,0.0,0.0,0.0,7.4307,8.1769,8.8686,9.1987,9.3932,9.452,9.441,9.0812,8.2663,7.6423,0.0,0.0,0.0,0.0,0.0,0.0,0.0,0.0,0.0,0.0,0.0,0.0,0.0,0.0,0.0,0.0,0.0,0.0,0.0,0.0,0.0,0.0,0.0,0.0,0.0,0.0,0.0,0.0,0.0,0.0,0.0,0.0,0.0,0.0,0.0,0.0,0.0,0.0,0.0,0.0,0.0,0.0,0.0,0.0,0.0,0.0,0.0,0.0,0.0,0.0,0.0,0.0,0.0,0.0,0.0,0.0,0.0,0.0,0.0,0.0,0.0,0.0,0.0,0.0,0.0,0.0,0.0,0.0,0.0,0.0,0.0,0.0,0.0,0.0,0.0,0.0,0.0,0.0,0.0,0.0,0.0,0.0,0.0,0.0,0.0,0.0,0.0,0.0,0.0,0.0,0.0,0.0,0.0,0.0,0.0,0.0,0.0,0.0,0.0,0.0,0.0,0.0,7.7189,8.6265,8.9124,9.2978,9.5364,9.5437,9.474,9.1767,8.582,7.8699,0.0,0.0,0.0,0.0,0.0,0.0,0.0,0.0,0.0,0.0,0.0,0.0,0.0,0.0,0.0,0.0,0.0,0.0,0.0,0.0,0.0,0.0,0.0,0.0,0.0,0.0,0.0,0.0,0.0,0.0,0.0,0.0,0.0,0.0,0.0,0.0,0.0,0.0,0.0,0.0,0.0,0.0,0.0,0.0,0.0,0.0,0.0,0.0,0.0,0.0,0.0,0.0,0.0,0.0,0.0,0.0,0.0,0.0,0.0,0.0,0.0,0.0,0.0,0.0,0.0,0.0,0.0,0.0,0.0,0.0,0.0,0.0,0.0,0.0,0.0,0.0,0.0,0.0,0.0,0.0,0.0,0.0,0.0,0.0,0.0,0.0,0.0,0.0,0.0,0.0,0.0,0.0,0.0,0.0,0.0,0.0,0.0,0.0,0.0,0.0,0.0,0.0,7.7231,8.6176,0.0,9.3968,9.5691,9.6208,9.5988,9.2721,8.5527,0.0,0.0,0.0,0.0,0.0,0.0,0.0,0.0,0.0,0.0,0.0,0.0,0.0,0.0,0.0,0.0,0.0,0.0,0.0,0.0,0.0,0.0,0.0,0.0,0.0,0.0,0.0,0.0,0.0,0.0,0.0,0.0,0.0,0.0,0.0,0.0,0.0,0.0,0.0,0.0,0.0,0.0,0.0,0.0,0.0,0.0,0.0,0.0,0.0,0.0,0.0,0.0,0.0,0.0,0.0,0.0,0.0,0.0,0.0,0.0,0.0,0.0,0.0,0.0,0.0,0.0,0.0,0.0,0.0,0.0,0.0,0.0,0.0,0.0,0.0,0.0,0.0,0.0,0.0,0.0,0.0,0.0,0.0,0.0,0.0,0.0,0.0,0.0,0.0,0.0,0.0,0.0,0.0,0.0,0.0,0.0,0.0,0.0,0.0,0.0,0.0,0.0,6.8103,7.8427,8.7305,0.0,9.4518,9.5875,9.6649,9.6502,9.3086,8.544,0.0,0.0,0.0,0.0,0.0,0.0,0.0,0.0,0.0,0.0,0.0,0.0,0.0,0.0,0.0,0.0,0.0,0.0,0.0,0.0,0.0,0.0,0.0,0.0,0.0,0.0,0.0,0.0,0.0,0.0,0.0,0.0,0.0,0.0,0.0,0.0,0.0,0.0,0.0,0.0,0.0,0.0,0.0,0.0,0.0,0.0,0.0,0.0,0.0,0.0,0.0,0.0,0.0,0.0,0.0,0.0,0.0,0.0,0.0,0.0,0.0,0.0,0.0,0.0,0.0,0.0,0.0,0.0,0.0,0.0,0.0,0.0,0.0,0.0,0.0,0.0,0.0,0.0,0.0,0.0,0.0,0.0,0.0,0.0,0.0,0.0,0.0,0.0,0.0,0.0,0.0,0.0,0.0,0.0,0.0,0.0,0.0,0.0,0.0,0.0,0.0,0.0,6.98,8.1464,9.0324,9.2826,9.4558,9.5875,9.6649,9.5985,9.2746,0.0,0.0,0.0,0.0,0.0,0.0,0.0,0.0,0.0,0.0,0.0,0.0,0.0,0.0,0.0,0.0,0.0,0.0,0.0,0.0,0.0,0.0,0.0,0.0,0.0,0.0,0.0,0.0,0.0,0.0,0.0,0.0,0.0,0.0,0.0,0.0,0.0,0.0,0.0,0.0,0.0,0.0,0.0,0.0,0.0,0.0,0.0,0.0,0.0,0.0,0.0,0.0,0.0,0.0,0.0,0.0,0.0,0.0,0.0,0.0,0.0,0.0,0.0,0.0,0.0,0.0,0.0,0.0,0.0,0.0,0.0,0.0,0.0,0.0,0.0,0.0,0.0,0.0,0.0,0.0,0.0,0.0,0.0,0.0,0.0,0.0,0.0,0.0,0.0,0.0,0.0,0.0,0.0,0.0,0.0,0.0,0.0,0.0,0.0,0.0,0.0,0.0,0.0,7.1464,8.2221,9.0582,9.3601,9.4925,9.6058,9.7423,9.6795,9.3371,8.6227,0.0,0.0,0.0,0.0,0.0,0.0,0.0,0.0,0.0,0.0,0.0,0.0,0.0,0.0,0.0,0.0,0.0,0.0,0.0,0.0,0.0,0.0,0.0,0.0,0.0,0.0,0.0,0.0,0.0,0.0,0.0,0.0,0.0,0.0,0.0,0.0,0.0,0.0,0.0,0.0,0.0,0.0,0.0,0.0,0.0,0.0,0.0,0.0,0.0,0.0,0.0,0.0,0.0,0.0,0.0,0.0,0.0,0.0,0.0,0.0,0.0,0.0,0.0,0.0,0.0,0.0,0.0,0.0,0.0,0.0,0.0,0.0,0.0,0.0,0.0,0.0,0.0,0.0,0.0,0.0,0.0,0.0,0.0,0.0,0.0,0.0,0.0,0.0,0.0,0.0,0.0,0.0,0.0,0.0,0.0,0.0,0.0,0.0,0.0,0.0,0.0,0.0,7.2557,8.3183,9.1398,9.4043,9.5325,9.6384,9.7305,9.7305,9.4322,8.7663,0.0,0.0,0.0,0.0,0.0,0.0,0.0,0.0,0.0,0.0,0.0,0.0,0.0,0.0,0.0,0.0,0.0,0.0,0.0,0.0,0.0,0.0,0.0,0.0,0.0,0.0,0.0,0.0,0.0,0.0,0.0,0.0,0.0,0.0,0.0,0.0,0.0,0.0,0.0,0.0,0.0,0.0,0.0,0.0,0.0,0.0,0.0,0.0,0.0,0.0,0.0,0.0,0.0,0.0,0.0,0.0,0.0,0.0,0.0,0.0,0.0,0.0,0.0,0.0,0.0,0.0,0.0,0.0,0.0,0.0,0.0,0.0,0.0,0.0,0.0,0.0,0.0,0.0,0.0,0.0,0.0,0.0,0.0,0.0,0.0,0.0,0.0,0.0,0.0,0.0,0.0,0.0,0.0,0.0,0.0,0.0,0.0,0.0,0.0,0.0,0.0,0.0,7.3291,8.4246,9.2386,9.4106,9.5789,9.6814,9.6966,9.7545,9.557,9.0008,0.0,0.0,0.0,0.0,0.0,0.0,0.0,0.0,0.0,0.0,0.0,0.0,0.0,0.0,0.0,0.0,0.0,0.0,0.0,0.0,0.0,0.0,0.0,0.0,0.0,0.0,0.0,0.0,0.0,0.0,0.0,0.0,0.0,0.0,0.0,0.0,0.0,0.0,0.0,0.0,0.0,0.0,0.0,0.0,0.0,0.0,0.0,0.0,0.0,0.0,0.0,0.0,0.0,0.0,0.0,0.0,0.0,0.0,0.0,0.0,6.1569,0.0,0.0,0.0,0.0,0.0,0.0,0.0,0.0,0.0,0.0,0.0,0.0,0.0,0.0,0.0,0.0,0.0,0.0,0.0,0.0,0.0,0.0,0.0,0.0,0.0,0.0,0.0,0.0,0.0,0.0,0.0,0.0,0.0,0.0,0.0,0.0,0.0,0.0,0.0,0.0,0.0,7.3972,8.4098,9.1753,9.4056,9.6301,9.7887,9.8516,9.819,9.6018,9.1611,0.0,0.0,0.0,0.0,0.0,0.0,0.0,0.0,0.0,0.0,0.0,0.0,0.0,0.0,0.0,0.0,0.0,0.0,0.0,0.0,0.0,0.0,0.0,0.0,0.0,0.0,0.0,0.0,0.0,0.0,0.0,0.0,0.0,0.0,0.0,0.0,0.0,0.0,0.0,0.0,0.0,0.0,0.0,0.0,0.0,0.0,0.0,0.0,0.0,0.0,0.0,0.0,0.0,0.0,0.0,0.0,0.0,0.0,0.0,0.0,0.0,6.3712,0.0,0.0,0.0,0.0,0.0,0.0,0.0,0.0,0.0,0.0,0.0,0.0,0.0,0.0,0.0,0.0,0.0,0.0,0.0,0.0,0.0,0.0,0.0,0.0,0.0,0.0,0.0,0.0,0.0,0.0,0.0,0.0,0.0,0.0,0.0,0.0,0.0,0.0,0.0,0.0,7.598,8.5519,9.2645,9.4682,9.6997,9.8662,9.9071,9.9113,9.786,9.4948,9.0189,0.0,0.0,0.0,0.0,0.0,0.0,0.0,0.0,0.0,0.0,0.0,0.0,0.0,0.0,0.0,0.0,0.0,0.0,0.0,0.0,0.0,0.0,0.0,0.0,0.0,0.0,0.0,0.0,0.0,0.0,0.0,0.0,0.0,0.0,0.0,0.0,0.0,0.0,0.0,0.0,0.0,0.0,0.0,0.0,0.0,0.0,0.0,0.0,0.0,0.0,0.0,0.0,0.0,0.0,7.3824,7.633,7.6003,7.6505,7.7531,7.2887,7.1235,7.1623,0.0,0.0,0.0,0.0,0.0,0.0,0.0,0.0,0.0,0.0,0.0,0.0,0.0,0.0,0.0,0.0,0.0,0.0,0.0,0.0,0.0,0.0,0.0,0.0,0.0,7.3697,7.4237,0.0,0.0,0.0,0.0,0.0,0.0,0.0,0.0,0.0,0.0,0.0,0.0,7.8675,8.7375,9.3749,9.5318,9.7777,9.9286,9.9328,9.9989,9.9805,9.8185,9.3926,8.9752,0.0,0.0,0.0,0.0,0.0,0.0,0.0,0.0,0.0,0.0,0.0,0.0,0.0,0.0,0.0,0.0,0.0,0.0,0.0,0.0,0.0,0.0,0.0,0.0,0.0,0.0,0.0,0.0,0.0,0.0,0.0,0.0,5.6384,5.7425,0.0,0.0,0.0,0.0,0.0,0.0,0.0,0.0,0.0,0.0,0.0,0.0,0.0,0.0,7.0264,7.29,7.5147,7.7023,8.0144,8.1902,8.234,8.361,8.4321,8.4469,8.3696,0.0,7.4409,7.376,0.0,0.0,0.0,0.0,0.0,0.0,0.0,0.0,0.0,0.0,0.0,0.0,0.0,0.0,0.0,0.0,0.0,0.0,0.0,0.0,0.0,0.0,7.6975,7.8053,8.0152,8.1418,0.0,7.4014,6.8836,6.6859,0.0,0.0,0.0,0.0,0.0,0.0,0.0,0.0,8.198,8.8761,9.3713,9.5332,9.8235,10.0062,10.0129,10.0943,10.0686,9.9071,9.6352,9.3307,8.9933,8.6017,0.0,0.0,0.0,0.0,0.0,0.0,0.0,0.0,0.0,0.0,0.0,0.0,0.0,0.0,0.0,0.0,0.0,0.0,0.0,0.0,0.0,0.0,0.0,0.0,0.0,0.0,0.0,0.0,0.0,5.6377,5.9781,6.247,6.0937,5.8978,0.0,0.0,0.0,0.0,0.0,0.0,0.0,0.0,0.0,6.9648,7.1583,7.3547,7.5571,7.8207,8.0045,8.1146,8.3098,8.4593,8.5431,8.6123,8.6485,8.6489,8.6962,8.4845,8.0922,7.9596,7.6975,7.3727,0.0,0.0,0.0,0.0,0.0,6.8069,7.1443,0.0,0.0,0.0,0.0,0.0,0.0,0.0,0.0,0.0,0.0,0.0,0.0,0.0,0.0,8.2898,8.4877,8.594,8.605,8.3344,7.9384,0.0,7.2984,7.1394,6.6713,0.0,0.0,0.0,0.0,0.0,8.5333,9.019,9.4264,9.7173,9.9228,10.0833,10.2183,10.2603,10.25,10.1801,9.9512,9.7122,9.485,8.9972,8.441,0.0,0.0,0.0,0.0,0.0,0.0,0.0,0.0,0.0,0.0,0.0,0.0,0.0,0.0,0.0,0.0,0.0,0.0,0.0,0.0,0.0,0.0,0.0,0.0,0.0,0.0,0.0,0.0,6.057,6.4173,6.7616,6.6921,6.5314,0.0,0.0,0.0,0.0,0.0,0.0,6.9205,7.1194,7.3224,7.5395,7.7668,7.9267,7.9998,8.2092,8.3374,8.3797,8.4959,8.6123,8.7288,8.7725,8.8062,8.8253,8.913,8.8655,8.7158,8.451,8.2128,7.9917,7.8086,7.5527,7.3031,7.4642,7.4602,7.4324,7.8187,8.0813,8.2385,8.1663,0.0,8.0103,7.6844,0.0,0.0,0.0,0.0,7.307,7.7178,0.0,8.1698,8.6355,8.8169,8.9011,8.9886,9.0033,8.8059,0.0,8.0631,7.942,7.4115,0.0,0.0,0.0,0.0,8.421,8.9167,9.2281,9.5257,9.8459,10.0136,10.1625,10.343,10.3999,10.4081,10.3941,10.1824,9.9939,9.8552,9.389,8.9276,8.506,0.0,0.0,0.0,0.0,0.0,0.0,0.0,0.0,0.0,0.0,0.0,0.0,0.0,0.0,0.0,0.0,0.0,0.0,0.0,0.0,0.0,0.0,0.0,0.0,0.0,0.0,0.0,0.0,0.0,7.201,7.4129,0.0,0.0,0.0,0.0,6.8585,7.0799,7.3569,7.6607,7.7678,7.9946,8.3815,8.3417,8.3797,8.5358,8.5573,8.5646,8.572,8.7252,8.8088,8.8198,8.9698,9.0806,9.162,9.2464,9.239,9.1363,8.8096,8.4483,8.0899,8.0786,7.9199,7.7217,7.8873,7.9931,8.1004,8.4264,8.594,8.6962,8.8362,8.6315,8.3034,8.2057,7.8445,0.0,0.0,7.8231,7.9297,8.1698,8.4804,8.7518,8.8581,8.9679,9.074,9.151,9.1657,9.0849,0.0,8.7688,8.6375,8.2308,0.0,8.3261,8.5028,8.599,8.829,9.3381,9.5439,9.6909,9.7867,10.0745,10.2584,10.2803,10.4179,10.4714,10.388,10.2395,10.1067,10.0159,9.7672,9.4075,8.9238,8.5883,0.0,0.0,0.0,0.0,0.0,0.0,0.0,0.0,0.0,0.0,0.0,0.0,0.0,0.0,0.0,0.0,0.0,0.0,0.0,0.0,0.0,0.0,0.0,0.0,0.0,0.0,0.0,0.0,7.5334,7.7291,0.0,0.0,7.6111,7.5978,7.5926,7.7687,7.9434,8.1154,8.1495,8.3056,8.6035,8.5862,8.6485,8.8125,8.8125,8.8125,8.8125,8.8709,8.9264,8.975,9.0847,9.1838,9.2647,9.3491,9.3452,9.2608,9.14,8.9124,8.6412,8.6412,8.5541,8.4483,8.56,8.5857,8.5866,8.7541,8.8974,9.0298,9.14,9.0447,8.8688,8.7839,8.6013,8.4231,8.4304,8.4823,8.5661,8.6429,8.8341,9.0335,9.1363,9.2721,9.3819,9.4151,9.4554,9.4703,9.386,9.1986,8.9713,8.7229,8.7842,8.875,8.8906,9.0443,9.2665,9.546,9.6792,9.8158,10.0031,10.1714,10.3137,10.4179,10.5338,10.5825,10.5495,10.4007,10.2724,10.1942,10.0026,9.7709,9.4958,9.2716,8.7523,0.0,0.0,0.0,0.0,0.0,0.0,0.0,0.0,0.0,0.0,0.0,0.0,0.0,0.0,0.0,0.0,0.0,0.0,0.0,0.0,0.0,0.0,0.0,0.0,0.0,0.0,7.6176,7.8267,8.0934,8.2318,8.152,8.1641,8.1725,8.1446,8.3184,8.4321,8.4593,8.5174,8.6196,8.7806,8.7842,8.8463,8.9816,8.9816,8.9926,9.0254,9.0512,9.0919,9.1437,9.228,9.3087,9.397,9.4479,9.4362,9.3923,9.3894,9.2794,9.0994,9.0769,9.0328,8.9926,9.0732,9.0696,9.0401,9.1171,9.2351,9.3529,9.4117,9.3565,9.2611,9.2018,9.1097,9.0037,8.9305,8.9706,9.0404,9.0667,9.1729,9.3087,9.4448,9.555,9.6315,9.627,9.6934,9.7452,9.7154,9.5105,9.3014,9.1693,9.2316,9.2794,9.1987,9.344,9.5115,9.6143,9.7484,9.8924,10.0496,10.1905,10.3227,10.4593,10.4997,10.5521,10.6302,10.4289,10.3237,10.35,10.0863,9.9096,9.8337,9.5688,9.0301,8.2221,0.0,0.0,0.0,0.0,0.0,0.0,0.0,0.0,0.0,0.0,0.0,0.0,0.0,0.0,0.0,0.0,0.0,0.0,0.0,0.0,0.0,0.0,0.0,7.0354,7.5212,7.9391,8.1077,8.5408,8.7414,8.5119,8.6976,8.7375,8.5032,8.6995,8.7909,8.7142,8.8603,8.9451,8.9496,8.9496,8.9898,9.0704,9.0704,9.1143,9.1913,9.2758,9.3198,9.3309,9.4039,9.4842,9.5578,9.5615,9.5615,9.5615,9.5615,9.5098,9.4366,9.3455,9.3161,9.3235,9.4007,9.4264,9.4448,9.5258,9.6067,9.6759,9.6795,9.5725,9.4439,9.4411,9.3272,9.1987,9.1987,9.2611,9.3492,9.4256,9.5061,9.6058,9.7607,9.7978,9.7933,9.7984,9.8606,9.898,9.8124,9.741,9.6612,9.5725,9.5578,9.5358,9.4545,9.5098,0.0,9.5651,9.7698,9.9199,9.9199,10.131,10.3072,10.3813,10.3217,10.385,10.6192,10.3326,10.2605,10.4913,10.0533,9.8424,9.9126,9.4317,8.9488,8.4717,0.0,0.0,0.0,0.0,0.0,0.0,0.0,0.0,0.0,0.0,0.0,0.0,0.0,0.0,0.0,0.0,0.0,0.0,0.0,0.0,0.0,0.0,7.4861,7.6063,8.0137,8.3975,8.6719,8.9312,9.0777,9.074,9.1327,9.1253,8.9933,8.9853,8.9849,8.964,9.0045,9.081,9.2055,9.206,9.2464,9.3235,9.3307,9.367,9.4518,9.4738,9.5431,9.6599,9.6792,9.735,9.8125,9.8149,9.8101,9.8101,9.8112,9.7965,9.7525,9.4955,9.3996,9.402,9.4239,9.4275,9.4458,9.5936,9.6887,9.7728,9.8913,9.862,9.7735,9.7757,9.7098,9.6211,9.6211,9.7245,9.8351,9.8569,9.8856,9.9139,9.9506,9.9616,9.9653,9.9646,10.0289,10.0777,10.0569,10.0276,9.9689,9.832,9.8117,9.8048,9.7808,9.8447,0.0,9.8992,10.0136,10.0796,10.079,10.2485,10.3696,10.387,10.4824,10.5432,10.5509,10.4072,10.3329,10.3426,10.1506,10.0306,9.9981,9.5258,9.1179,0.0,0.0,0.0,0.0,0.0,0.0,0.0,0.0,0.0,0.0,0.0,0.0,0.0,0.0,0.0,0.0,0.0,0.0,0.0,0.0,0.0,0.0,7.5195,7.945,8.1776,8.4378,8.701,8.9605,9.1327,9.2721,9.3529,9.3896,9.3786,9.2941,9.2719,9.2496,9.217,9.2167,9.256,9.3554,9.3968,9.4485,9.5258,9.5626,9.6174,9.6979,9.6971,9.7515,9.8424,9.8363,9.8668,0.0,9.9133,9.9126,9.9126,9.9096,9.906,0.0,0.0,0.0,0.0,0.0,9.7332,9.7442,9.8363,9.9023,9.9566,10.0472,10.0281,9.9586,9.9622,9.9076,9.8406,9.8394,9.9133,9.9909,10.0203,10.0261,10.0399,10.0753,10.079,10.0716,10.0423,10.0876,10.1402,10.109,0.0,0.0,10.0269,9.9842,9.9365,9.868,9.9249,9.9701,0.0,10.0576,10.147,10.1544,10.286,10.3962,10.4403,10.4697,0.0,0.0,0.0,10.2917,10.1677,10.1177,0.0,0.0,0.0,9.3746,0.0,0.0,0.0,0.0,8.1526,8.0051,0.0,0.0,0.0,0.0,0.0,0.0,0.0,0.0,0.0,0.0,0.0,0.0,0.0,0.0,0.0,0.0,7.9371,8.3537,8.6554,8.7774,8.8947,9.0521,9.2354,9.3823,9.4512,9.5395,9.5578,9.4765,9.5256,9.5369,9.4743,0.0,0.0,0.0,0.0,9.6211,9.6953,9.7691,9.8428,9.9232,9.9249,9.9273,9.9382,9.9382,9.9382,9.9382,9.9382,9.9382,9.9382,9.9382,9.9382,9.9463,9.9926,10.0155,10.0343,10.1047,10.1231,0.0,0.0,0.0,0.0,10.156,10.1173,10.0589,10.0635,10.0086,9.9485,9.9521,9.9583,9.9802,10.0469,10.0578,10.0819,10.156,10.1677,10.1494,10.079,10.131,10.1567,10.079,10.131,10.1831,10.1831,10.1127,10.0086,9.868,9.9163,0.0,9.868,10.0393,10.177,10.1807,0.0,0.0,10.5,10.3934,10.3999,10.6119,10.4106,10.2156,10.079,10.0716,9.9756,9.7531,9.7349,9.6844,9.6018,9.5773,9.5258,9.4228,8.5592,8.3847,0.0,0.0,0.0,0.0,0.0,0.0,0.0,0.0,0.0,0.0,0.0,0.0,0.0,0.0,0.0,7.7504,8.1419,8.4838,8.6733,8.8239,8.9745,9.14,9.4189,9.6061,9.6205,9.7533,9.8043,9.721,9.6734,9.6636,9.7169,9.6575,0.0,9.8125,9.8272,9.8459,9.8609,9.8819,9.9249,10.0056,0.0,0.0,10.0973,10.0973,10.0973,10.0973,10.0973,10.0973,10.0973,10.0973,10.0973,10.0863,9.9799,9.9316,9.9316,9.9543,9.9579,9.9689,10.0319,10.098,10.1604,10.2265,10.2375,10.2191,10.2199,10.2089,0.0,10.2008,10.2485,10.3007,10.3191,10.275,10.2375,10.3161,10.2867,10.261,10.3051,10.3316,10.3426,10.3242,10.3316,10.3426,10.3426,10.2794,10.2089,10.1831,10.2536,10.2867,10.2794,10.3132,10.3426,10.3411,10.4338,10.4889,10.511,10.5505,10.5605,10.5411,10.4311,10.3476,10.3161,10.3242,10.2978,10.2536,10.1237,10.0239,9.9353,9.7419,9.6025,9.5215,9.3382,9.2978,0.0,0.0,0.0,0.0,0.0,0.0,0.0,0.0,0.0,0.0,0.0,6.9651,0.0,0.0,7.8602,8.0659,8.3693,8.6229,8.7394,8.9706,9.1728,9.2941,9.4884,9.6718,9.8332,9.9591,10.0325,10.0349,9.9529,9.9286,9.9677,9.8599,9.8295,9.9071,9.9517,9.9701,9.9701,10.0093,10.0533,10.0863,10.0863,10.1127,10.1494,10.1494,10.1494,10.1494,10.1494,10.1494,10.1494,10.1494,10.1494,10.1384,10.0606,10.0269,10.0269,10.0269,10.0269,10.0423,10.079,10.1237,10.1567,10.2015,10.2346,10.272,10.272,10.2978,10.3316,10.3316,10.3573,10.3948,10.3948,10.3573,10.3426,10.3757,10.3558,10.3357,10.3806,10.388,10.388,10.388,10.388,10.388,10.388,10.388,10.3806,10.3357,10.3623,10.388,10.388,10.4329,10.4467,10.4494,10.5642,10.6423,10.6434,10.7132,10.7342,10.7011,10.6218,10.5631,10.522,10.4697,10.4329,10.388,10.31,10.2293,10.1494,10.0325,9.9338,9.8532,9.8945,9.7983,0.0,0.0,0.0,0.0,0.0,0.0,0.0,0.0,6.8128,7.1505,7.3377,7.5065,7.7144,7.9412,8.1637,8.3715,8.5866,8.7651,8.8717,9.1213,9.3345,9.4585,9.5574,9.7264,9.9976,10.1193,10.2045,10.275,10.2045,10.1501,10.1485,10.0099,9.9382,9.9529,10.0196,10.0533,10.0533,10.1237,10.1494,10.1494,10.1494,10.1494,10.1494,10.1494,10.1494,10.1494,10.1677,10.1788,10.1971,10.1971,10.1971,10.1971,10.1971,10.1971,10.1861,10.1567,10.1494,10.1494,10.1714,10.1677,10.1831,10.1905,10.2346,10.2904,10.2897,10.3456,10.3897,10.3897,10.3897,10.3897,10.3897,10.3897,10.3897,10.4044,10.4137,10.4216,10.4289,10.4472,10.463,10.463,10.474,10.4887,10.4887,10.5411,10.5411,10.4289,10.4289,10.4363,10.4363,10.5107,10.5583,10.5583,10.6866,10.7795,10.7819,10.8456,10.8786,10.8786,10.8222,10.7461,10.6878,10.6218,10.5473,10.4875,10.4692,10.4154,10.3456,10.308,10.25,10.1743,10.2448,10.0992,0.0,0.0,0.0,6.464,6.6292,6.9009,0.0,0.0,7.4955,7.8956,8.0498,8.1415,8.2378,8.3941,8.5441,8.6481,8.7468,8.8827,9.1069,9.1693,9.3051,9.6098,9.7777,9.9089,10.0159,10.1726,10.2547,10.2741,10.2035,10.1497,10.1538,10.068,10.0533,10.1237,10.131,10.1384,10.1384,10.1494,10.1494,10.1494,10.1494,10.1494,10.1494,10.1494,10.1494,10.1494,10.2301,10.2999,10.3586,10.3586,10.3586,10.3586,10.3631,10.3595,10.3485,10.1971,10.1494,10.1604,10.2293,10.2595,10.272,10.3426,10.3684,10.3831,10.3751,10.3777,10.3886,10.3886,10.3886,10.3886,10.3886,10.3886,10.4117,10.4824,10.5044,10.518,10.6046,10.6754,10.7195,10.7195,10.7794,10.832,10.832,10.832,10.761,10.5338,10.5594,10.6119,10.6119,10.6805,10.7269,10.7269,10.8088,10.8675,10.8647,10.8684,10.8757,10.8757,10.872,10.8647,10.85,10.8418,10.8321,10.8321,10.7612,10.6805,10.5972,10.4483,10.341,10.2595,10.2668,10.2504,7.4147,0.0,0.0,0.0,7.3413,7.4588,7.7561,7.8699,8.0021,8.3162,8.5184,8.6501,8.6826,8.7783,8.8704,0.0,8.9378,9.0115,9.1583,9.2647,9.4075,9.6428,9.808,9.9585,10.0943,10.2458,10.34,10.34,10.3091,10.2705,10.2199,10.1384,10.1237,10.1494,10.1494,10.1494,10.1494,10.2015,10.2155,10.2183,10.2236,10.2419,10.2889,10.2412,10.2485,10.2889,10.3293,10.3586,10.388,10.3925,10.3843,10.388,10.388,10.3925,10.3778,10.3072,10.2889,10.2889,10.3329,10.3394,10.3504,10.376,10.421,10.4687,10.5191,10.5693,10.6206,10.6596,10.6827,10.6827,10.6827,10.6827,10.6827,10.7195,10.7268,10.7342,10.772,10.8051,10.8309,10.8272,10.8602,10.8749,10.8749,10.8749,10.8418,10.7452,10.7635,10.7832,10.7807,10.8088,10.8492,10.8859,10.9312,10.9716,11.0216,11.0252,11.0252,11.0252,11.0252,11.0032,10.9519,10.9533,10.9276,10.8799,10.8492,10.8125,10.7758,10.7098,10.6585,10.6302,10.6302,10.6313,7.9081,0.0,0.0,7.8811,7.9632,8.0277,8.1489,8.2847,8.4492,8.6685,8.8341,8.9551,8.9988,9.0172,0.0,9.1196,9.1066,9.1327,9.2611,9.3894,9.5248,9.6832,9.8231,9.9627,10.1017,10.2623,10.3641,10.3583,10.3549,10.3242,10.2346,10.1831,10.1567,10.1831,10.1831,10.1905,10.2199,10.272,10.3007,10.3018,10.3036,10.3293,10.388,10.3293,10.3513,10.421,10.421,10.4394,10.4577,10.4623,10.4623,10.4577,10.4577,10.4577,10.4623,10.4577,10.432,10.3917,10.421,10.4201,10.4337,10.485,10.5326,10.5876,10.6816,10.7502,10.8075,10.8628,10.8774,10.8774,10.8774,10.8774,10.8774,10.8774,10.8774,10.8774,10.8774,10.9007,10.9105,10.9138,10.9269,10.9541,10.9541,10.9541,10.9541,10.9541,10.9541,10.9284,10.8909,10.9055,10.9372,11.0193,11.0487,11.0891,11.1515,11.1698,11.1882,11.1882,11.1882,11.1588,11.0964,11.0781,11.0377,10.979,10.9555,10.9409,10.9115,10.9079,10.8982,10.8774,10.8774,10.8774,0.0,0.0,8.0825,8.0933,8.3825,8.6728,8.6738,8.7435,8.8496,9.0144,8.9889,8.9892,9.1545,9.0514,9.0209,9.2627,9.2312,9.2574,9.5037,9.5403,9.6058,9.7644,9.8626,9.9419,0.0,10.1751,10.2705,10.2694,10.2697,10.2346,10.1567,10.1494,10.1905,10.261,10.272,10.2978,10.3757,10.3948,10.3889,10.3923,10.3923,10.3897,10.388,10.388,10.432,10.5091,10.5091,10.5495,10.6302,10.6302,10.6302,10.6302,10.6302,10.6302,10.6302,10.6302,10.5348,10.4017,10.4834,10.5091,10.5275,10.7037,10.7502,10.7722,10.8542,10.8661,10.883,10.883,10.883,10.883,10.883,10.883,10.883,10.883,10.883,10.883,10.883,10.9431,10.9944,10.9981,11.0582,11.1111,11.1111,11.1111,11.1111,11.1111,11.1111,11.0597,10.9019,10.9496,11.0304,11.1111,11.1882,11.2286,11.2396,11.3093,11.3497,11.3497,11.3497,11.3497,11.3497,11.2689,11.2286,11.2286,11.1515,11.0656,10.9981,10.9981,10.9614,10.883,10.883,10.883,0.0,0.0,8.5271,8.628,8.7568,8.8709,8.9293,8.9996,9.0879,9.2045,9.2018,9.2206,9.3308,9.2134,9.1657,9.36,9.3161,9.3526,9.5917,9.6282,9.7129,9.9272,9.9695,0.0,0.0,0.0,0.0,10.1845,10.2419,10.261,10.2272,10.2272,10.272,10.35,10.3513,10.365,10.3907,10.443,10.4677,10.474,10.5338,10.5264,10.4724,10.5311,10.5678,10.6009,10.6009,10.6119,10.6376,10.6376,10.6706,10.7183,10.7171,10.7514,10.804,10.8028,10.7612,10.7098,10.6926,10.678,10.689,10.8028,10.8431,10.8542,10.9386,10.9643,10.9702,11.0216,11.0399,11.0399,11.0399,11.0399,11.0399,11.0399,11.0399,11.0399,11.0399,11.1038,11.1552,11.1552,11.2191,11.2794,11.2794,11.2794,11.2794,11.2794,11.1897,11.1221,11.1221,11.1441,11.1919,11.2689,11.2983,11.3203,11.3203,11.3387,11.357,11.357,11.357,11.357,11.357,11.3277,11.3203,11.3203,11.291,11.2689,11.2432,11.2432,11.216,11.2029,11.2029,11.1976,0.0,8.746,8.857,8.9931,9.0514,9.0843,9.1355,9.1907,9.257,9.3668,9.3489,9.3492,9.4886,9.3345,9.2719,9.5184,9.4666,9.4805,9.7239,9.7566,9.8264,10.0151,10.0283,0.0,0.0,0.0,0.0,10.1494,10.2199,10.272,10.272,10.3007,10.3558,10.4338,10.4311,10.4472,10.4813,10.5338,10.5594,10.5594,10.6119,10.6082,10.5605,10.6119,10.6596,10.6816,10.678,10.7,10.7294,10.7294,10.7587,10.7954,10.8028,10.8321,10.8848,10.8835,10.8785,10.8675,10.8211,10.7991,10.8175,10.8982,10.9202,10.9386,11.0193,11.0377,11.0487,11.1111,11.1221,11.1221,11.1221,11.1221,11.1295,11.1552,11.1552,11.175,11.2007,11.2536,11.2831,11.28,11.3167,11.3624,11.3624,11.3624,11.3624,11.3624,11.2726,11.2196,11.2852,11.28,11.302,11.3497,11.3954,11.4028,11.4028,11.4268,11.4488,11.4488,11.4488,11.4488,11.4488,11.4194,11.4011,11.4011,11.3681,11.357,11.357,11.357,11.357,11.3624,11.3624,11.357,8.8144,8.9566,9.0997,9.1767,9.2574,9.3198,9.3235,9.3198,9.3566,9.5147,9.4081,9.3675,0.0,0.0,9.3051,9.7063,9.6509,9.6388,9.8827,9.9139,9.9456,0.0,0.0,0.0,0.0,0.0,0.0,10.1567,0.0,10.272,10.2831,10.3457,10.4289,10.507,10.518,10.5594,10.6376,10.6376,10.6376,10.6486,10.6486,10.6486,10.6486,10.6486,10.689,10.7734,10.7697,10.8101,10.8799,10.8799,10.8762,10.8885,10.8885,10.8921,10.8909,10.8909,10.8909,10.8909,10.8909,10.8909,10.8982,10.979,11.0083,11.0193,11.1001,11.1295,11.1295,11.1295,11.1295,11.1295,11.1295,11.1295,11.1478,11.2264,11.2448,11.2757,11.3345,11.3618,11.3713,11.3719,11.37,11.37,11.37,11.37,11.37,11.37,11.37,11.3645,11.3676,11.366,11.3681,11.3681,11.4395,11.4926,11.4926,11.5607,11.5993,11.5993,11.5993,11.5993,11.5993,11.5296,11.4892,11.4892,11.4084,11.3681,11.3681,11.3681,11.3681,11.3681,11.3681,11.3681,9.0463,9.2128,9.3419,9.3599,9.378,9.4149,9.4738,9.4405,9.4112,9.4554,9.2825,9.1433,0.0,0.0,0.0,9.4743,9.5875,0.0,9.9653,10.0019,0.0,0.0,0.0,10.131,10.1494,10.1494,0.0,0.0,10.261,10.3007,10.3604,10.441,10.518,10.6046,10.6119,10.6229,10.6376,10.6376,10.7011,10.8246,10.761,10.761,10.8246,10.8246,10.8272,10.8492,10.8517,10.8615,10.8799,10.8799,10.9215,10.9742,10.9742,11.0097,11.0597,11.0597,11.0597,11.0597,11.0597,11.0157,10.9803,11.0597,11.0891,11.1001,11.1919,11.205,11.2249,11.2763,11.3036,11.2999,11.3014,11.2978,11.2978,11.325,11.3277,11.3389,11.3572,11.4103,11.447,11.4452,11.502,11.5387,11.5387,11.5387,11.5387,11.5387,11.5387,11.5167,11.4635,11.447,11.469,11.5296,11.5553,11.5663,11.5663,11.5883,11.5993,11.5993,11.5993,11.5993,11.5993,11.581,11.5699,11.5699,11.5479,11.5406,11.5406,11.5406,11.5406,11.5406,11.5406,11.5406,9.2024,9.3527,9.4852,9.4845,9.5061,9.5321,9.4988,9.4622,9.4146,9.3416,9.1802,0.0,0.0,0.0,0.0,0.0,0.0,0.0,10.0533,10.079,10.0973,0.0,10.1494,0.0,10.1494,10.1831,10.2199,0.0,10.2978,10.3595,10.4447,10.518,10.5851,10.6376,10.6754,10.7085,10.7342,10.7551,10.7881,10.8761,10.8334,10.8395,10.8762,10.8762,10.9032,10.9289,0.0,10.9459,10.99,10.99,11.0083,11.0501,11.0501,11.0744,11.1221,11.1552,11.175,11.1824,11.2081,11.2022,11.1581,11.1713,11.175,11.1934,11.2705,11.2873,11.302,11.346,11.3624,11.3624,11.3639,11.3566,11.3691,11.4037,11.4138,11.4232,11.4562,11.502,11.5277,11.5277,11.5736,11.5993,11.5993,11.5993,11.5993,11.5993,11.5993,11.581,11.5387,11.5277,11.5461,11.5993,11.5993,11.5993,11.5993,11.5993,11.6177,11.6526,11.6507,11.669,11.6947,11.669,11.6507,11.6507,11.6177,11.5993,11.5993,11.5993,11.5993,11.5993,11.5993,11.5993,9.3191,9.4549,9.5615,9.5615,9.6168,9.6242,9.4695,9.4146,9.3489,9.1877,0.0,0.0,9.2151,0.0,9.301,9.6838,0.0,9.8826,10.0973,10.1384,10.1494,10.1494,10.1494,10.1494,10.1567,10.2272,10.2831,10.297,10.3676,10.4448,10.5154,10.6046,10.6559,10.6754,10.7415,10.8125,10.9019,10.8932,10.8932,10.9129,10.9005,10.9013,10.9086,10.9086,10.9541,11.0216,0.0,0.0,11.1221,11.1221,11.1221,11.1221,11.1221,11.1295,11.1368,11.2081,11.2485,11.2705,11.3419,11.3566,11.3492,11.2831,11.2558,11.2705,11.3492,11.3771,11.3791,11.3901,11.3901,11.3901,11.3901,11.3881,11.4096,11.4811,11.4983,11.5204,11.581,11.5993,11.5993,11.5993,11.6066,11.6177,11.6177,11.6177,11.6177,11.6177,11.6066,11.5993,11.6066,11.6177,11.6177,11.6177,11.625,11.625,11.625,11.625,11.6599,11.7316,11.7388,11.7718,11.8399,11.7682,11.7388,11.7388,11.6654,11.625,11.6287,11.6287,11.6287,11.6287,11.6287,11.6287,9.4884,9.5801,9.6502,9.6502,9.6612,9.6242,9.4695,9.3272,0.0,0.0,0.0,8.7909,8.8856,0.0,0.0,9.4589,0.0,0.0,0.0,0.0,10.1494,0.0,0.0,0.0,0.0,0.0,0.0,0.0,0.0,0.0,10.507,10.6559,10.772,10.843,10.8455,10.8991,10.9776,10.905,10.9504,11.0832,11.0106,11.0054,11.0766,11.0766,11.0928,11.1038,11.1001,0.0,11.1221,11.1221,11.1221,11.1221,11.1221,11.1552,11.2191,11.2264,11.28,11.3426,11.3609,11.3609,11.3627,11.3419,11.335,11.3499,11.4324,11.458,11.469,11.5406,11.5589,11.5589,11.5589,11.5553,11.5644,11.5828,11.5773,11.581,11.5993,11.5993,11.5993,11.5993,11.6526,11.6967,11.6967,11.6967,11.6967,11.6967,11.6452,11.6177,11.6893,11.6967,11.6967,11.6967,11.761,11.8033,11.8033,11.8033,11.8033,11.8217,11.8175,11.8263,11.8379,11.8306,11.8216,11.8161,11.8143,11.8014,11.7995,11.7995,11.8032,11.8012,11.8012,11.8012,9.4808,9.5801,9.6685,9.6685,9.6685,9.6058,9.3554,0.0,0.0,0.0,0.0,8.7725,8.8162,0.0,0.0,0.0,0.0,0.0,0.0,0.0,0.0,0.0,0.0,0.0,0.0,0.0,0.0,0.0,0.0,0.0,10.6376,10.7575,10.8652,10.9436,10.9445,10.9797,11.0582,11.0252,11.0399,11.1221,11.0766,11.0766,11.1221,11.1221,11.1221,11.1221,11.1221,0.0,11.1221,11.1221,11.1221,11.1221,11.175,11.2081,11.2485,11.3277,11.3883,11.4305,11.4672,11.4837,11.48,11.4836,11.4598,11.4415,11.5204,11.5387,11.5461,11.592,11.5993,11.5993,11.5993,11.5993,11.5993,11.5993,11.5993,11.5993,11.5993,11.5993,11.6066,11.6526,11.6893,11.7297,11.7771,11.7808,11.7828,11.7794,11.75,11.7426,11.7757,11.8216,11.8342,11.7881,11.8232,11.8416,11.8416,11.8416,11.8599,11.9024,11.9018,11.9179,11.97,11.9238,11.904,11.9024,11.8583,11.8399,11.8342,11.8342,11.8379,11.8416,11.8416,11.8416,9.4659,9.5765,9.6685,9.6685,9.6685,9.5875,9.2523,9.1693,0.0,0.0,0.0,0.0,0.0,0.0,0.0,0.0,0.0,0.0,0.0,0.0,0.0,0.0,0.0,0.0,0.0,0.0,0.0,0.0,0.0,0.0,10.7819,10.8588,10.9343,11.0252,11.0326,11.0582,11.1221,11.1221,11.1221,11.1221,11.1221,11.1221,11.1221,11.1221,11.1221,11.1221,11.1221,0.0,0.0,11.1368,11.1478,11.1478,11.2264,11.2742,11.3109,11.4287,11.4947,11.5094,11.581,11.5993,11.5993,11.5993,11.5626,11.5204,11.581,11.6066,11.625,11.625,11.6452,11.6526,11.6526,11.6526,11.6526,11.625,11.6066,11.5993,11.5993,11.6066,11.6452,11.704,11.7481,11.7902,11.8556,11.868,11.8666,11.875,11.8529,11.8529,11.8603,11.9223,11.9399,11.9033,11.8959,11.8959,11.8959,11.8959,11.9216,11.9825,11.9935,12.0192,12.0912,12.0192,11.9935,11.9935,11.9333,11.8893,11.8893,11.8893,11.8893,11.8893,11.8893,11.893,9.5878,9.6612,9.6685,9.6685,9.6685,9.5875,9.2673,0.0,0.0,0.0,0.0,0.0,0.0,0.0,0.0,0.0,0.0,0.0,0.0,0.0,0.0,0.0,0.0,0.0,0.0,0.0,0.0,0.0,0.0,0.0,0.0,10.9504,11.0326,11.1111,11.1111,11.1111,11.1221,11.1221,11.1221,11.1221,11.1221,11.1221,11.1221,11.1221,11.1221,11.1221,11.1221,0.0,0.0,11.2007,11.2264,11.2375,11.325,11.3881,11.4617,11.4727,11.5277,11.592,11.5993,11.5993,11.5993,11.5993,11.592,11.592,11.5993,11.6526,11.704,11.704,11.761,11.8217,11.8217,11.8217,11.8033,11.7316,11.6526,11.5993,11.5993,11.6599,11.704,11.7242,11.8379,11.9422,11.9473,11.9473,11.9473,11.9532,11.8886,11.8703,11.9422,11.9642,11.9935,12.0618,12.0728,12.0728,12.0728,12.0728,12.0728,12.0802,12.0802,12.0802,12.0912,12.0802,12.0802,12.0802,12.0691,12.0691,12.0691,12.0691,12.0691,12.0691,12.0691,12.0691,9.4292,9.5578,9.6685,9.6685,9.6685,9.5875,9.2673,0.0,0.0,0.0,0.0,0.0,0.0,0.0,0.0,0.0,0.0,0.0,0.0,0.0,0.0,0.0,0.0,0.0,0.0,0.0,0.0,0.0,0.0,0.0,0.0,10.9981,11.0928,11.1221,11.1221,11.1221,11.1221,11.1221,11.1221,11.1221,11.1221,11.1221,11.1221,11.1221,11.1221,11.1221,11.1221,0.0,0.0,11.2264,11.2653,11.3223,11.4011,11.4525,11.4947,11.5277,11.5736,11.5993,11.5993,11.5993,11.5993,11.5993,11.5993,11.5993,11.5993,11.6599,11.7187,11.7258,11.7845,11.8358,11.8358,11.8358,11.8306,11.8014,11.7683,11.7426,11.7426,11.7683,11.8088,11.8599,11.9202,11.9825,12.0265,12.0375,12.0375,12.0375,12.0082,12.0009,12.0265,12.0375,12.0545,12.0912,12.0912,12.0912,12.0912,12.0912,12.0912,12.0912,12.0912,12.0912,12.0912,12.0912,12.0912,12.0912,12.0912,12.0912,12.0912,12.0912,12.0912,12.0912,12.0912,12.0912,9.3557,9.5025,9.6428,9.6649,9.6315,9.5358,0.0,0.0,0.0,0.0,0.0,0.0,0.0,0.0,0.0,0.0,0.0,0.0,0.0,0.0,0.0,0.0,0.0,0.0,0.0,0.0,0.0,0.0,0.0,0.0,0.0,11.0326,11.1221,11.1221,11.1221,11.1221,11.1221,11.1221,11.1221,11.1221,11.1221,11.1221,11.1221,11.1221,11.1221,11.1221,0.0,0.0,0.0,11.2999,11.3644,11.4415,11.4947,11.5204,11.5204,11.581,11.5993,11.5993,11.5993,11.5993,11.5993,11.5993,11.5993,11.5993,11.625,11.6893,11.7591,11.7765,11.8497,11.9106,11.9106,11.8959,11.8776,11.8803,11.8546,11.8362,11.8362,11.8546,11.8914,11.9532,11.9825,12.0192,12.0802,12.0912,12.0912,12.0912,12.0912,12.0912,12.0912,12.0912,12.0912,12.0912,12.0912,12.0912,12.0912,12.0912,12.0912,12.0912,12.0912,12.0912,12.0912,12.0912,12.0912,12.0912,12.0912,12.0912,12.0912,12.0912,12.0912,12.0912,12.0912,12.0912,9.4554,9.5468,9.5651,9.6539,9.5505,9.4106,0.0,0.0,0.0,0.0,0.0,0.0,0.0,8.7044,8.8363,9.2427,9.1764,0.0,0.0,0.0,0.0,0.0,0.0,0.0,0.0,0.0,0.0,0.0,0.0,0.0,0.0,11.0326,11.1221,11.1221,11.1221,11.1221,11.1221,11.1221,11.1221,11.1221,11.1221,11.1221,11.1221,11.1221,11.1221,0.0,0.0,0.0,0.0,11.4415,11.5204,11.5993,11.5993,11.5993,11.5993,11.5993,11.5993,11.5993,11.5993,11.5993,11.5993,11.5993,11.5993,11.6066,11.6893,11.7683,11.8566,11.9385,12.0192,12.0912,12.0912,12.0192,11.9546,11.9546,11.9033,11.8387,11.8387,11.9033,11.9546,11.9546,12.0265,12.0912,12.0912,12.0912,12.0912,12.0912,12.0912,12.0912,12.0912,12.0912,12.0912,12.0912,12.0912,12.0912,12.0912,12.0912,12.0912,12.0912,12.0912,12.0912,12.0912,12.0912,12.0912,12.0912,12.0912,12.0912,12.0912,12.0912,12.0912,12.0912,12.0912,12.0912,9.2354,9.3782,9.4732,9.4988,9.4252,9.3082,9.1729,0.0,0.0,0.0,0.0,0.0,0.0,8.7912,8.9816,9.337,9.489,9.6799,0.0,0.0,0.0,0.0,0.0,0.0,0.0,0.0,0.0,0.0,0.0,0.0,0.0,11.0582,11.1221,11.1221,11.175,11.2007,11.2007,11.261,11.2794,11.2794,11.2794,11.2794,11.2794,11.2794,0.0,0.0,0.0,0.0,0.0,11.4888,11.5604,11.6783,11.6177,11.5993,11.5993,11.5993,11.5993,11.5993,11.5993,11.5993,11.5993,11.5993,11.6452,11.6967,11.7757,11.8216,11.8688,12.0045,12.0728,12.0912,12.0912,12.0728,12.0545,12.0545,12.0265,12.0082,12.0082,12.0265,12.0545,12.0545,12.0728,12.0912,12.0912,12.0912,12.0912,12.0912,12.0912,12.0912,12.0912,12.0912,12.0912,12.0912,12.0912,12.0912,12.0912,12.0912,12.0912,12.0912,12.0912,12.0912,12.0912,12.0912,12.0912,12.0912,12.0912,12.0912,12.0912,12.0912,12.0912,12.0912,12.0912,12.1522,0.0,9.228,9.3526,9.4151,9.3194,0.0,0.0,0.0,0.0,0.0,0.0,0.0,0.0,8.8235,8.9698,9.3226,9.4556,9.6343,0.0,0.0,0.0,0.0,0.0,0.0,0.0,0.0,0.0,0.0,0.0,0.0,0.0,11.0766,11.1295,11.1552,11.2081,11.2411,11.238,11.3167,11.3624,11.3624,11.3624,11.3624,11.3624,11.3624,0.0,0.0,0.0,0.0,0.0,11.5526,11.5986,11.704,11.625,11.5993,11.5993,11.5993,11.5993,11.5993,11.5993,11.5993,11.5993,11.5993,11.6727,11.7792,11.862,11.9113,11.9546,12.0618,12.0912,12.0912,12.0912,12.0912,12.0912,12.0912,12.0912,12.0912,12.0912,12.0912,12.0912,12.0912,12.0912,12.0912,12.0912,12.0912,12.0912,12.0912,12.0912,12.0912,12.0912,12.0912,12.0912,12.0912,12.0912,12.0912,12.0912,12.0912,12.0912,12.0912,12.0912,12.0912,12.0912,12.0912,12.0912,12.0912,12.0912,12.0912,12.0912,12.0912,12.0912,12.0912,12.0912,12.1448,0.0,0.0,0.0,0.0,0.0,0.0,0.0,0.0,0.0,0.0,0.0,0.0,0.0,0.0,8.8463,9.25,9.2009,9.3244,0.0,0.0,0.0,0.0,0.0,0.0,0.0,0.0,0.0,0.0,0.0,0.0,0.0,11.0766,11.1552,11.2375,11.2485,11.2453,11.262,11.3444,11.3773,11.3773,11.3773,11.3773,11.3773,11.3773,0.0,0.0,0.0,0.0,0.0,11.6023,11.6483,11.704,11.625,11.5993,11.5993,11.5993,11.5993,11.5993,11.5993,11.5993,11.5993,11.6066,11.7221,11.857,11.9399,12.0265,12.0912,12.0912,12.0912,12.0912,12.0912,12.0912,12.0912,12.0912,12.0912,12.0912,12.0912,12.0912,12.0912,12.0912,12.0912,12.0912,12.0912,12.0912,12.0912,12.0912,12.0912,12.0912,12.0912,12.0912,12.0912,12.0912,12.0912,12.0912,12.0912,12.0912,12.0912,12.0912,12.0912,12.0912,12.0912,12.0912,12.0912,12.0912,12.0912,12.0912,12.0912,12.0912,12.0912,12.0912,12.0912,12.0912,0.0,0.0,0.0,0.0,0.0,0.0,0.0,0.0,0.0,0.0,0.0,0.0,0.0,0.0,0.0,9.3444,9.5258,9.7195,0.0,0.0,0.0,0.0,0.0,0.0,0.0,0.0,0.0,0.0,0.0,0.0,0.0,11.1111,11.1552,11.2375,11.2966,11.3609,11.4232,11.502,11.5387,11.5387,11.5387,11.5387,11.5387,11.5387,0.0,0.0,0.0,0.0,11.6893,11.6267,11.6507,11.704,11.625,11.5993,11.5993,11.5993,11.5993,11.5993,11.5993,11.5993,11.6177,11.7426,11.8452,11.9473,12.0265,12.0728,12.0912,12.0912,12.0912,12.0912,12.0912,12.0912,12.0912,12.0912,12.0912,12.0912,12.0912,12.0912,12.0912,12.0912,12.0912,12.0912,12.0912,12.0912,12.0912,12.0912,12.0912,12.0912,12.0912,12.0912,12.0912,12.0912,12.0912,12.0912,12.0912,12.0912,12.0912,12.0912,12.0912,12.0912,12.0912,12.0912,12.0912,12.0912,12.0912,12.0912,12.0912,12.0912,12.0912,12.0912,12.0912,12.1169,0.0,0.0,0.0,0.0,0.0,0.0,0.0,0.0,0.0,0.0,0.0,0.0,0.0,0.0,0.0,0.0,9.6437,0.0,0.0,0.0,0.0,0.0,0.0,0.0,0.0,0.0,0.0,0.0,0.0,0.0,0.0,11.1221,11.175,11.2904,11.3407,11.3957,11.4837,11.5626,11.5993,11.5993,11.5993,11.5993,11.5993,11.5993,11.5993,0.0,0.0,0.0,11.6599,11.6177,11.625,11.6599,11.6177,11.5993,11.5993,11.5993,11.5993,11.5993,11.5993,11.6177,11.682,11.8399,11.9223,11.9825,12.0618,12.0912,12.0912,12.0912,12.0912,12.0912,12.0912,12.0912,12.0912,12.0912,12.0912,12.0912,12.0912,12.0912,12.0912,12.0912,12.0912,12.0912,12.0912,12.0912,12.0912,12.0912,12.0912,12.0912,12.0912,12.0912,12.0912,12.0912,12.0912,12.0912,12.0912,12.0912,12.0912,12.0912,12.0912,12.0912,12.0912,12.0912,12.0912,12.0912,12.0912,12.0912,12.0912,12.0912,12.0912,12.0912,12.0912,12.1059,0.0,0.0,0.0,0.0,0.0,0.0,0.0,0.0,0.0,0.0,0.0,0.0,0.0,0.0,0.0,0.0,0.0,0.0,0.0,0.0,0.0,0.0,0.0,0.0,0.0,0.0,0.0,0.0,0.0,0.0,0.0,11.1221,11.1897,11.3507,11.359,11.3957,11.502,11.5736,11.5993,11.5993,11.5993,11.5993,11.5993,11.5993,11.5993,0.0,0.0,0.0,11.5993,11.5993,11.5993,11.5993,11.5993,11.5993,11.5993,11.5993,11.5993,11.5993,11.6066,11.682,11.7811,11.9202,11.9752,11.9935,12.0728,12.0912,12.0912,12.0912,12.0912,12.0912,12.0912,12.0912,12.0912,12.0912,12.0912,12.0912,12.0912,12.0912,12.0912,12.0912,12.0912,12.0912,12.0912,12.0912,12.0912,12.0912,12.0912,12.0912,12.0912,12.0912,12.0912,12.0912,12.0912,12.0912,12.0912,12.0912,12.0912,12.0912,12.0912,12.0912,12.0912,12.0912,12.0912,12.0912,12.0912,12.0912,12.0912,12.0912,12.0912,12.0912,12.0912,12.0985,0.0,0.0,0.0,0.0,0.0,0.0,0.0,0.0,0.0,0.0,0.0,0.0,0.0,0.0,0.0,0.0,0.0,0.0,0.0,0.0,0.0,0.0,0.0,0.0,0.0,0.0,0.0,0.0,0.0,0.0,0.0,0.0,11.1897,11.3507,11.359,11.4305,11.581,11.592,11.5993,11.5993,11.5993,11.5993,11.5993,11.5993,11.5993,0.0,0.0,11.5993,11.5993,11.5993,11.5993,11.5993,11.5993,11.5993,11.5993,11.5993,11.5993,11.6066,11.6783,11.7975,11.9312,11.9436,12.0082,12.0728,12.0912,12.0912,12.0912,12.0912,12.0912,12.0912,12.0912,12.0912,12.0912,12.0912,12.0912,12.0912,12.0912,12.0912,12.0912,12.0912,12.0912,12.0912,12.0912,12.0912,12.0912,12.0912,12.0912,12.0912,12.0912,12.0912,12.0912,12.0912,12.0912,12.0912,12.0912,12.0912,12.0912,12.0912,12.0912,12.0912,12.0912,12.0912,12.0912,12.0912,12.0912,12.0912,12.0912,12.0912,12.0912,12.0912,12.0912,12.1242,0.0,0.0,0.0,0.0,0.0,0.0,0.0,0.0,0.0,0.0,0.0,0.0,0.0,0.0,0.0,0.0,0.0,0.0,0.0,0.0,0.0,0.0,0.0,0.0,0.0,0.0,0.0,0.0,0.0,0.0,0.0,0.0,11.1897,11.3507,11.359,11.4415,11.5993,11.5993,11.5993,11.5993,11.5993,11.5993,11.5993,11.5993,11.5993,11.5993,0.0,11.5993,11.5993,11.5993,11.5993,11.5993,11.5993,11.5993,11.5993,11.5993,11.625,11.682,11.7551,11.8615,11.9752,12.0082,12.0618,12.0912,12.0912,12.0912,12.0912,12.0912,12.0912,12.0912,12.0912,12.0912,12.0912,12.0912,12.0912,12.0912,12.0912,12.0912,12.0912,12.0912,12.0912,12.0912,12.0912,12.0912,12.0912,12.0912,12.0912,12.0912,12.0912,12.0912,12.0912,12.0912,12.0912,12.0912,12.0912,12.0912,12.0912,12.0912,12.0912,12.0912,12.0912,12.0912,12.0912,12.0912,12.0912,12.0912,12.0912,12.0912,12.0912,12.0912,12.1242,12.1705,0.0,0.0,0.0,0.0,0.0,0.0,0.0,0.0,0.0,0.0,0.0,0.0,0.0,0.0,0.0,0.0,0.0,0.0,0.0,0.0,0.0,0.0,0.0,0.0,0.0,0.0,0.0,0.0,0.0,0.0,0.0,0.0,11.1897,11.3507,11.359,11.4415,11.5993,11.5993,11.5993,11.5993,11.5993,11.5993,11.5993,11.5993,11.5993,11.5993,11.5993,11.5993,11.5993,11.5993,11.5993,11.5993,11.5993,11.5993,11.5993,11.6177,11.6783,11.7554,11.8373,11.9216,12.0009,12.0728,12.0912,12.0912,12.0912,12.0912,12.0912,12.0912,12.0912,12.0912,12.0912,12.0912,12.0912,12.0912,12.0912,12.0912,12.0912,12.0912,12.0912,12.0912,12.0912,12.0912,12.0912,12.0912,12.0912,12.0912,12.0912,12.0912,12.0912,12.0912,12.0912,12.0912,12.0912,12.0912,12.0912,12.0912,12.0912,12.0912,12.0912,12.0912,12.0912,12.0912,12.0912,12.0912,12.0912,12.0912,12.0912,12.0912,12.0912,12.0912,12.1705,12.2183,8.1563,8.3714,0.0,0.0,0.0,0.0,0.0,0.0,0.0,0.0,0.0,0.0,0.0,0.0,0.0,0.0,0.0,0.0,0.0,0.0,0.0,0.0,0.0,0.0,0.0,0.0,0.0,0.0,0.0,0.0,0.0,0.0,0.0,11.3507,11.359,11.4415,11.5993,11.5993,11.5993,11.5993,11.5993,11.5993,11.5993,11.5993,11.5993,11.5993,11.5993,11.5993,11.5993,11.5993,11.5993,11.5993,11.5993,11.5993,11.6066,11.6783,11.761,11.8345,11.9165,12.0082,12.0802,12.0912,12.0912,12.0912,12.0912,12.0912,12.0912,12.0912,12.0912,12.0912,12.0912,12.0912,12.0912,12.0912,12.0912,12.0912,12.0912,12.0912,12.0912,12.0912,12.0912,12.0912,12.0912,12.0912,12.0912,12.0912,12.0912,12.0912,12.0912,12.0912,12.0912,12.0912,12.0912,12.0912,12.0912,12.0912,12.0912,12.0912,12.0912,12.0912,12.0912,12.0912,12.0912,12.0912,12.0912,12.0912,12.0912,12.0912,12.0912,12.0912,12.1705,12.249,8.0424,8.2802,0.0,0.0,0.0,0.0,0.0,0.0,0.0,0.0,0.0,0.0,0.0,0.0,0.0,0.0,0.0,0.0,0.0,0.0,0.0,0.0,0.0,0.0,0.0,0.0,0.0,0.0,0.0,0.0,0.0,0.0,0.0,11.3507,11.359,11.4415,11.5993,11.5993,11.5993,11.5993,11.5993,11.5993,11.5993,11.5993,11.5993,11.5993,11.5993,11.5993,11.5993,11.5993,11.5993,11.5993,11.5993,11.625,11.6783,11.704,11.7995,11.9187,11.9532,12.0192,12.0912,12.0912,12.0912,12.0912,12.0912,12.0912,12.0912,12.0912,12.0912,12.0912,12.0912,12.0912,12.0912,12.0912,12.0912,12.0912,12.0912,12.0912,12.0912,12.0912,12.0912,12.0912,12.0912,12.0912,12.0912,12.0912,12.0912,12.0912,12.0912,12.0912,12.0912,12.0912,12.0912,12.0912,12.0912,12.0912,12.0912,12.0912,12.0912,12.0912,12.0912,12.0912,12.0912,12.0912,12.0912,12.1059,12.1595,12.1595,12.1889,12.2426,12.3221,12.3763,0.0,0.0,0.0,0.0,0.0,0.0,0.0,0.0,0.0,0.0,0.0,0.0,0.0,0.0,0.0,0.0,0.0,0.0,0.0,0.0,0.0,0.0,0.0,0.0,0.0,0.0,0.0,0.0,0.0,0.0,0.0,0.0,0.0,0.0,11.359,11.4415,11.5993,11.5993,11.5993,11.5993,11.5993,11.5993,11.5993,11.5993,11.5993,11.5993,11.5993,11.6066,11.6452,11.6066,11.6066,11.6452,11.6709,11.704,11.761,11.7885,11.8709,11.9546,11.9935,12.0375,12.0912,12.0912,12.0912,12.0912,12.0912,12.0912,12.0912,12.0912,12.0912,12.0912,12.0912,12.0912,12.0912,12.0912,12.0912,12.0912,12.0912,12.0912,12.0912,12.0912,12.0912,12.0912,12.0912,12.0912,12.0912,12.0912,12.0912,12.0912,12.0912,12.0912,12.0912,12.0912,12.0912,12.0912,12.0912,12.0912,12.0912,12.0912,12.0912,12.0912,12.0912,12.0912,12.0912,12.0912,12.1059,12.1522,12.2073,12.244,12.2844,12.3285,12.4081,12.4497,0.0,0.0,0.0,0.0,0.0,0.0,0.0,0.0,0.0,0.0,0.0,0.0,0.0,0.0,0.0,0.0,0.0,0.0,0.0,0.0,0.0,0.0,0.0,0.0,0.0,0.0,0.0,0.0,0.0,0.0,0.0,0.0,0.0,0.0,11.359,11.4415,11.5993,11.5993,11.5993,11.5993,11.5993,11.5993,11.5993,11.5993,11.5993,11.5993,11.5993,11.6526,11.704,11.6452,11.6526,11.7316,11.8143,11.8401,11.8548,11.9333,11.9546,11.9752,12.0618,12.0912,12.0912,12.0912,12.0912,12.0912,12.0912,12.0912,12.0912,12.0912,12.0912,12.0912,12.0912,12.0912,12.0912,12.0912,12.0912,12.0912,12.0912,12.0912,12.0912,12.0912,12.0912,12.0912,12.0912,12.0912,12.0912,12.0912,12.0912,12.0912,12.0912,12.0912,12.0912,12.0912,12.0912,12.0912,12.0912,12.0912,12.0912,12.0912,12.0912,12.0912,12.0912,12.0912,12.0912,12.0912,12.1705,12.2073,12.2073,12.2943,12.3258,12.3258,12.409,12.452,0.0,0.0,0.0,0.0,0.0,0.0,0.0,0.0,0.0,0.0,0.0,0.0,0.0,0.0,0.0,0.0,0.0,0.0,0.0,0.0,0.0,0.0,0.0,0.0,0.0,0.0,0.0,0.0,0.0,0.0,0.0,0.0,0.0,0.0,11.359,11.4415,11.5993,11.5993,11.5993,11.5993,11.6599,11.6526,11.5993,11.5993,11.625,11.6783,11.6783,11.7316,11.8033,11.7757,11.7848,11.808,11.8321,11.8688,11.9333,11.9532,12.0009,12.0618,12.0802,12.0912,12.0912,12.0912,12.0912,12.0912,12.0912,12.0912,12.0912,12.0912,12.0912,12.0912,12.0912,12.0912,12.0912,12.0912,12.0912,12.0912,12.0912,12.0912,12.0912,12.0912,12.0912,12.0912,12.0912,12.0912,12.0912,12.0912,12.0912,12.0912,12.0912,12.0912,12.0912,12.0912,12.0912,12.0912,12.0912,12.0912,12.0912,12.0912,12.0912,12.0912,12.0912,12.0912,12.1169,12.1705,12.1963,12.2697,12.3848,12.4043,12.4446,12.496,12.5243,12.5317,0.0,0.0,0.0,0.0,0.0,0.0,0.0,0.0,0.0,0.0,0.0,0.0,0.0,0.0,0.0,0.0,0.0,0.0,0.0,0.0,0.0,0.0,0.0,0.0,0.0,0.0,0.0,0.0,0.0,0.0,0.0,0.0,0.0,0.0,11.3847,11.4672,11.5993,11.5993,11.6177,11.6526,11.6967,11.715,11.7001,11.704,11.7242,11.7683,11.8032,11.8159,11.8509,11.906,11.9187,11.8959,11.9289,11.9752,12.0082,12.0082,12.0375,12.0912,12.0912,12.0912,12.0912,12.0912,12.0912,12.0912,12.0912,12.0912,12.0912,12.0912,12.0912,12.0912,12.0912,12.0912,12.0912,12.0912,12.0912,12.0912,12.0912,12.0912,12.0912,12.0912,12.0912,12.0912,12.0912,12.0912,12.0912,12.0912,12.0912,12.0912,12.0912,12.0912,12.0912,12.0912,12.0912,12.0912,12.0912,12.0912,12.0912,12.0912,12.0912,12.0912,12.0912,12.1169,12.1595,12.2073,12.2734,12.3518,12.452,12.4777,12.5243,12.5684,12.5684,12.5684,0.0,0.0,0.0,0.0,0.0,0.0,0.0,0.0,0.0,0.0,0.0,0.0,0.0,0.0,0.0,0.0,0.0,0.0,0.0,0.0,0.0,0.0,0.0,0.0,0.0,0.0,0.0,0.0,0.0,0.0,0.0,0.0,0.0,0.0,11.4415,11.5204,11.5993,11.5993,11.6452,0.0,11.726,11.7718,11.8497,11.8436,11.8438,11.8658,11.9407,11.9289,11.868,12.0265,12.0375,11.9825,12.0618,12.0912,12.0912,12.0912,12.0912,12.0912,12.0912,12.0912,12.0912,12.0912,12.0912,12.0912,12.0912,12.0912,12.0912,12.0912,12.0912,12.0912,12.0912,12.0912,12.0912,12.0912,12.0912,12.0912,12.0912,12.0912,12.0912,12.0912,12.0912,12.0912,12.0912,12.0912,12.0912,12.0912,12.0912,12.0912,12.0912,12.0912,12.0912,12.0912,12.0912,12.0912,12.0912,12.0912,12.0912,12.0912,12.0912,12.0912,12.0985,12.1705,12.2073,12.2183,12.3738,12.452,12.463,12.5317,12.5684,12.5684,12.5684,12.5684,0.0,0.0,0.0,0.0,0.0,0.0,0.0,0.0,0.0,0.0,0.0,0.0,0.0,0.0,0.0,0.0,0.0,0.0,0.0,0.0,0.0,0.0,0.0,0.0,0.0,0.0,0.0,0.0,0.0,0.0,0.0,0.0,0.0,11.4561,11.4727,11.5204,11.5993,11.5993,11.6452,0.0,11.7808,11.8593,11.9289,11.8666,11.8725,11.9348,12.0251,12.0545,12.0375,12.0802,12.0802,12.0618,12.0802,12.0912,12.0912,12.0912,12.0912,12.0912,12.0912,12.0912,12.0912,12.0912,12.0912,12.0912,12.0912,12.0912,12.0912,12.0912,12.0912,12.0912,12.0912,12.0912,12.0912,12.0912,12.0912,12.0912,12.0912,12.0912,12.0912,12.0912,12.0912,12.0912,12.0912,12.0912,12.0912,12.0912,12.0912,12.0912,12.0912,12.0912,12.0912,12.0912,12.0912,12.0912,12.0912,12.0912,12.0912,12.0912,12.0912,12.1169,12.1779,12.1963,12.2343,12.2991,12.4043,12.4777,12.5427,12.561,12.5684,12.5684,12.5684,12.5684,0.0,0.0,0.0,0.0,0.0,0.0,0.0,0.0,0.0,0.0,0.0,0.0,0.0,0.0,0.0,0.0,0.0,0.0,0.0,0.0,0.0,0.0,0.0,0.0,0.0,0.0,0.0,0.0,0.0,0.0,0.0,11.28,11.3517,11.4837,11.5204,11.5626,11.5993,11.5993,11.6599,11.7757,11.8248,11.9033,12.0192,11.9825,11.9825,12.0192,12.0728,12.0912,12.0912,12.0912,12.0912,12.0912,12.0912,12.0912,12.0912,12.0912,12.0912,12.0912,12.0912,12.0912,12.0912,12.0912,12.0912,12.0912,12.0912,12.0912,12.0912,12.0912,12.0912,12.0912,12.0912,12.0912,12.0912,12.0912,12.0912,12.0912,12.0912,12.0912,12.0912,12.0912,12.0912,12.0912,12.0912,12.0912,12.0912,12.0912,12.0912,12.0912,12.0912,12.0912,12.0912,12.0912,12.0912,12.0912,12.0912,12.0912,12.0912,12.0912,12.0912,12.1242,12.2073,12.249,12.3089,12.3907,12.4703,12.5317,12.5684,12.5684,12.5684,12.5684,12.5684,12.5867,0.0,0.0,0.0,0.0,0.0,0.0,0.0,0.0,0.0,0.0,0.0,0.0,0.0,0.0,0.0,0.0,0.0,0.0,0.0,0.0,0.0,0.0,0.0,0.0,0.0,0.0,0.0,0.0,0.0,0.0,11.261,11.3407,11.4232,11.502,11.5736,11.5993,11.5993,11.5993,11.6783,11.8401,11.8688,11.9546,12.0912,12.0912,12.0912,12.0912,12.0912,12.0912,12.0912,12.0912,12.0912,12.0912,12.0912,12.0912,12.0912,12.0912,12.0912,12.0912,12.0912,12.0912,12.0912,12.0912,12.0912,12.0912,12.0912,12.0912,12.0912,12.0912,12.0912,12.0912,12.0912,12.0912,12.0912,12.0912,12.0912,12.0912,12.0912,12.0912,12.0912,12.0912,12.0912,12.0912,12.0912,12.0912,12.0912,12.0912,12.0912,12.0912,12.0912,12.0912,12.0912,12.0912,12.0912,12.0912,12.0912,12.0912,12.0912,12.0912,12.0912,12.1242,12.2316,12.2906,12.3724,12.4703,12.5427,12.5684,12.5684,12.5684,12.5684,12.5684,12.5757,12.6297,0.0,0.0,0.0,0.0,0.0,0.0,0.0,0.0,0.0,0.0,0.0,0.0,0.0,0.0,0.0,0.0,0.0,0.0,0.0,0.0,0.0,0.0,0.0,0.0,0.0,0.0,0.0,0.0,0.0,0.0,11.3434,11.4194,11.502,11.581,11.592,11.5993,11.5993,11.5993,11.6783,11.8401,11.9942,12.0728,12.0912,12.0912,12.0912,12.0912,12.0912,12.0912,12.0912,12.0912,12.0912,12.0912,12.0912,12.0912,12.0912,12.0912,12.0912,12.0912,12.0912,12.0912,12.0912,12.0912,12.0912,12.0912,12.0912,12.0912,12.0912,12.0912,12.0912,12.0912,12.0912,12.0912,12.0912,12.0912,12.0912,12.0912,12.0912,12.0912,12.0912,12.0912,12.0912,12.0912,12.0912,12.0912,12.0912,12.0912,12.0912,12.0912,12.0912,12.0912,12.0912,12.0912,12.0912,12.0912,12.0912,12.0912,12.0912,12.0912,12.0912,12.1595,12.3147,12.3199,12.398,12.55,12.561,12.5684,12.5684,12.5684,12.5684,12.5684,12.6408,12.6738,0.0,0.0,0.0,0.0,0.0,0.0,0.0,0.0,0.0,0.0,0.0,0.0,0.0,0.0,0.0,0.0,0.0,0.0,0.0,0.0,0.0,0.0,0.0,0.0,0.0,0.0,0.0,0.0,0.0,11.28,11.3644,11.4397,11.5204,11.5993,11.5993,11.5993,11.5993,11.5993,11.6801,11.8452,12.0104,12.0912,12.0912,12.0912,12.0912,12.0912,12.0912,12.0912,12.0912,12.0912,12.0912,12.0912,12.0912,12.0912,12.0912,12.0912,12.0912,12.0912,12.0912,12.0912,12.0912,12.0912,12.0912,12.0912,12.0912,12.0912,12.0912,12.0912,12.0912,12.0912,12.0912,12.0912,12.0912,12.0912,12.0912,12.0912,12.0912,12.0912,12.0912,12.0912,12.0912,12.0912,12.0912,12.0912,12.0912,12.0912,12.0912,12.0912,12.0912,12.0912,12.0912,12.0912,12.0912,12.0912,12.0912,12.0912,12.0912,12.0912,12.0912,12.1595,12.3221,12.3273,12.409,12.5684,12.5684,12.5684,12.5684,12.5684,12.5867,12.6408,12.6665,12.7399,0.0,0.0,0.0,0.0,0.0,0.0,0.0,0.0,0.0,0.0,0.0,0.0,0.0,0.0,0.0,0.0,0.0,0.0,0.0,0.0,0.0,0.0,0.0,0.0,0.0,0.0,0.0,0.0,0.0,11.304,11.3645,11.4562,11.5387,11.5993,11.5993,11.5993,11.5993,11.6452,11.7148,11.8424,12.0082,12.0912,12.0912,12.0912,12.0912,12.0912,12.0912,12.0912,12.0912,12.0912,12.0912,12.0912,12.0912,12.0912,12.0912,12.0912,12.0912,12.0912,12.0912,12.0912,12.0912,12.0912,12.0912,12.0912,12.0912,12.0912,12.0912,12.0912,12.0912,12.0912,12.0912,12.0912,12.0912,12.0912,12.0912,12.0912,12.0912,12.0912,12.0912,12.0912,12.0912,12.0912,12.0912,12.0912,12.0912,12.0912,12.0912,12.0912,12.0912,12.0912,12.0912,12.0912,12.0912,12.0912,12.0912,12.0912,12.0912,12.0912,12.1059,12.1779,12.3221,12.3555,12.4336,12.5684,12.5684,12.5684,12.5684,12.5684,12.615,12.6948,12.7106,12.8033,0.0,0.0,0.0,0.0,0.0,0.0,0.0,0.0,0.0,0.0,0.0,0.0,0.0,0.0,0.0,0.0,0.0,0.0,0.0,0.0,0.0,0.0,0.0,0.0,0.0,0.0,0.0,0.0,0.0,11.357,11.359,11.5149,11.5993,11.5993,11.5993,11.5993,11.5993,11.75,11.8326,11.8424,12.0082,12.0912,12.0912,12.0912,12.0912,12.0912,12.0912,12.0912,12.0912,12.0912,12.0912,12.0912,12.0912,12.0912,12.0912,12.0912,12.0912,12.0912,12.0912,12.0912,12.0912,12.0912,12.0912,12.0912,12.0912,12.0912,12.0912,12.0912,12.0912,12.0912,12.0912,12.0912,12.0912,12.0912,12.0912,12.0912,12.0912,12.0912,12.0912,12.0912,12.0912,12.0912,12.0912,12.0912,12.0912,12.0912,12.0912,12.0912,12.0912,12.0912,12.0912,12.0912,12.0912,12.0912,12.0912,12.0912,12.0912,12.0912,12.1595,12.2426,12.3294,12.3995,12.4777,12.5684,12.5684,12.5684,12.5684,12.5684,12.615,12.6848,12.7711,12.8525,0.0,0.0,0.0,0.0,0.0,0.0,0.0,0.0,0.0,0.0,0.0,0.0,0.0,0.0,0.0,0.0,0.0,0.0,0.0,0.0,0.0,0.0,0.0,0.0,0.0,0.0,0.0,0.0,0.0,0.0,11.359,11.5112,11.5993,11.5993,11.5993,11.6177,11.6783,11.7867,11.8656,11.9216,12.0265,12.0912,12.0912,12.0912,12.0912,12.0912,12.0912,12.0912,12.0912,12.0912,12.0912,12.0912,12.0912,12.0912,12.0912,12.0912,12.0912,12.0912,12.0912,12.0912,12.0912,12.0912,12.0912,12.0912,12.0912,12.0912,12.0912,12.0912,12.0912,12.0912,12.0912,12.0912,12.0912,12.0912,12.0912,12.0912,12.0912,12.0912,12.0912,12.0912,12.0912,12.0912,12.0912,12.0912,12.0912,12.0912,12.0912,12.0912,12.0912,12.0912,12.0912,12.0912,12.1448,12.1705,12.1705,12.261,12.3221,12.3221,12.4016,12.4826,12.5588,12.5893,12.6408,12.7206,12.7206,12.6665,12.5684,12.6224,12.6948,12.7647,12.8444,12.9325,0.0,0.0,0.0,0.0,0.0,0.0,0.0,0.0,0.0,0.0,0.0,0.0,0.0,0.0,0.0,0.0,0.0,0.0,0.0,0.0,0.0,0.0,0.0,0.0,0.0,0.0,0.0,0.0,0.0,0.0,11.3553,11.5112,11.5993,11.5993,11.5993,11.6452,11.7242,11.7995,11.8783,11.9546,12.0545,12.0912,12.0912,12.0912,12.0912,12.0912,12.0912,12.0912,12.0912,12.0912,12.0912,12.0912,12.0912,12.0912,12.0912,12.0912,12.0912,12.0912,12.0912,12.0912,12.0912,12.0912,12.0912,12.0912,12.0912,12.0912,12.0912,12.0912,12.0912,12.0912,12.0912,12.0912,12.0912,12.0912,12.0912,12.0912,12.0912,12.0912,12.0912,12.0912,12.0912,12.0912,12.0912,12.0912,12.0912,12.0912,12.0912,12.0912,12.0912,12.1072,12.1329,12.1256,12.1976,12.2514,12.249,12.3652,12.4522,12.4534,12.5551,12.6261,12.6932,12.7189,12.7556,12.8097,12.8097,12.7556,12.6464,12.6995,12.7647,12.8097,12.8848,12.9691,0.0,0.0,0.0,0.0,0.0,0.0,0.0,0.0,0.0,0.0,0.0,0.0,0.0,0.0,0.0,0.0,0.0,0.0,0.0,0.0,0.0,0.0,0.0,0.0,0.0,0.0,0.0,0.0,0.0,11.357,11.357,11.5075,11.5993,11.5993,11.5993,11.6452,11.7242,11.797,11.8754,11.9546,12.0545,12.0912,12.0912,12.0912,12.0912,12.0912,12.0912,12.0912,12.0912,12.0912,12.0912,12.0912,12.0912,12.0912,12.0912,12.0912,12.0912,12.0912,12.0912,12.0912,12.0912,12.0912,12.0912,12.0912,12.0912,12.0912,12.0912,12.0912,12.0912,12.0912,12.0912,12.0912,12.0912,12.0912,12.0912,12.0912,12.0912,12.0912,12.0912,12.0912,12.0912,12.0912,12.0912,12.0912,12.0912,12.0912,12.0912,12.0912,12.0912,12.1635,12.2159,12.2075,12.2869,12.3273,12.3367,12.409,12.4576,12.4569,12.6128,12.6999,12.6999,12.7798,12.8165,12.8165,12.8165,12.8165,12.8091,12.8097,12.8134,12.8165,12.8964,12.9765,7.8185,0.0,0.0,0.0,0.0,0.0,0.0,0.0,0.0,0.0,0.0,0.0,0.0,0.0,0.0,0.0,0.0,0.0,0.0,0.0,0.0,0.0,0.0,0.0,0.0,0.0,0.0,0.0,11.2689,11.357,11.357,11.5075,11.5993,11.5993,11.5993,11.6452,11.7242,11.797,11.8754,11.9546,12.0545,12.0912,12.0912,12.0912,12.0912,12.0912,12.0912,12.0912,12.0912,12.0912,12.0912,12.0912,12.0912,12.0912,12.0912,12.0912,12.0912,12.0912,12.0912,12.0912,12.0912,12.0912,12.0912,12.0912,12.0912,12.0912,12.0912,12.0912,12.0912,12.0912,12.0912,12.0912,12.0912,12.0912,12.0912,12.0912,12.0912,12.0912,12.0912,12.0912,12.0912,12.0912,12.0912,12.0912,12.0912,12.0912,12.0912,12.1132,12.1696,12.1965,12.2331,12.2917,12.375,12.4446,12.4942,12.6317,12.7381,12.7872,12.8891,12.9508,12.9508,12.9691,12.9765,12.9765,12.9765,12.9508,12.8964,12.8958,12.8958,12.8964,12.9765,13.0309,0.0,0.0,0.0,0.0,0.0,0.0,0.0,9.4189,0.0,0.0,0.0,0.0,0.0,0.0,0.0,0.0,0.0,0.0,0.0,0.0,0.0,0.0,0.0,0.0,0.0,0.0,0.0,11.1221,11.2396,11.3387,11.4084,11.5296,11.5993,11.5993,11.5993,11.6526,11.7683,11.8159,11.8982,12.0082,12.0728,12.0912,12.0912,12.0912,12.0912,12.0912,12.0912,12.0912,12.0912,12.0912,12.0912,12.0912,12.0912,12.0912,12.0912,12.0912,12.0912,12.0912,12.0912,12.0912,12.0912,12.0912,12.0912,12.0912,12.0912,12.0912,12.0912,12.0912,12.0912,12.0912,12.0912,12.0912,12.0912,12.0912,12.0912,12.0912,12.0912,12.0912,12.0912,12.0912,12.0912,12.0912,12.0912,12.0912,12.0912,12.0912,12.0912,12.1242,12.1989,12.2723,12.3346,12.386,12.5107,12.6097,12.6179,12.7739,12.884,12.9325,13.0162,13.0492,13.0492,13.0492,13.0492,13.0492,13.0492,13.0309,12.9765,12.9765,12.9765,12.9765,13.0309,13.0492,0.0,0.0,0.0,0.0,0.0,0.0,9.2941,9.4006,9.518,0.0,0.0,0.0,0.0,0.0,0.0,0.0,0.0,0.0,0.0,0.0,0.0,0.0,0.0,0.0,11.1001,11.1111,11.1221,11.1221,11.1992,11.3203,11.4708,11.5589,11.5993,11.5993,11.5993,11.6709,11.8143,11.8272,11.906,12.0618,12.0802,12.0912,12.0912,12.0912,12.0912,12.0912,12.0912,12.0912,12.0912,12.0912,12.0912,12.0912,12.0912,12.0912,12.0912,12.0912,12.0912,12.0912,12.0912,12.0912,12.0912,12.0912,12.0912,12.0912,12.0912,12.0912,12.0912,12.0912,12.0912,12.0912,12.0912,12.0912,12.0912,12.0912,12.0912,12.0912,12.0912,12.0912,12.0912,12.1022,12.1022,12.0912,12.0985,12.0985,12.0912,12.0912,12.0985,12.1316,12.216,12.3603,12.4667,12.4803,12.6785,12.7813,12.7225,12.8473,12.9318,12.9435,13.0162,13.0492,13.0492,13.0492,13.0492,13.0492,13.0492,13.0492,13.0492,13.0492,13.0492,13.0492,13.0492,13.0492,0.0,0.0,0.0,0.0,0.0,0.0,8.7509,8.8573,9.0629,0.0,0.0,0.0,0.0,0.0,0.0,0.0,0.0,0.0,0.0,0.0,0.0,0.0,0.0,0.0,11.0193,11.0817,11.1221,11.1221,11.2506,11.3791,11.4708,11.5589,11.5993,11.5993,11.5993,11.6177,11.6526,11.7808,11.8593,11.8959,12.0265,12.0912,12.0912,12.0912,12.0912,12.0912,12.0912,12.0912,12.0912,12.0912,12.0912,12.0912,12.0912,12.0912,12.0912,12.0912,12.0912,12.0912,12.0912,12.0912,12.0912,12.0912,12.0912,12.0912,12.0912,12.0912,12.0912,12.0912,12.0912,12.0912,12.0912,12.0912,12.0912,12.0912,12.0912,12.0912,12.0912,12.0912,12.1072,12.1683,12.1268,12.1059,12.1779,12.1242,12.0912,12.0912,12.1536,12.2233,12.3004,12.4509,12.572,12.6381,12.7409,12.829,12.8804,12.9097,12.9611,13.0235,13.0419,13.0492,13.0492,13.0492,13.0492,13.0492,13.0492,13.0492,13.0492,13.0492,13.0492,13.0492,13.0492,13.0492,0.0,0.0,0.0,8.4682,0.0,0.0,0.0,8.8206,8.9711,9.4997,0.0,0.0,0.0,0.0,0.0,0.0,0.0,0.0,0.0,0.0,0.0,0.0,0.0,0.0,10.9973,11.1111,11.1588,11.1221,11.2689,11.3791,11.4194,11.5296,11.5993,11.5993,11.5993,11.6177,11.6599,11.7828,11.8651,11.9033,12.0265,12.0912,12.0912,12.0912,12.0912,12.0912,12.0912,12.0912,12.0912,12.0912,12.0912,12.0912,12.0912,12.0912,12.0912,12.0912,12.0912,12.0912,12.0912,12.0912,12.0912,12.0912,12.0912,12.0912,12.0912,12.0912,12.0912,12.0912,12.0912,12.0912,12.0912,12.0912,12.0912,12.0912,12.0912,12.0912,12.0912,12.0912,12.1316,12.2539,12.2062,12.1806,12.26,12.2417,12.2123,12.2123,12.2417,12.3114,12.4289,12.5573,12.6601,12.7409,12.8583,12.9318,12.9318,12.9721,13.0088,13.0492,13.0492,13.0492,13.0492,13.0492,13.0492,13.0492,13.0492,13.0492,13.0492,13.0492,13.0492,13.0492,13.0492,13.0492,0.0,0.0,0.0,0.0,0.0,8.6591,0.0,0.0,0.0,9.496,0.0,0.0,0.0,0.0,0.0,0.0,0.0,0.0,0.0,0.0,0.0,0.0,0.0,0.0,0.0,11.1001,11.1698,11.1221,11.2396,11.3277,11.357,11.5002,11.581,11.5993,11.5993,11.625,11.6967,11.7885,11.8673,11.9458,12.0435,12.0912,12.0912,12.0912,12.0912,12.0912,12.0912,12.0912,12.0912,12.0912,12.0912,12.0912,12.0912,12.0912,12.0912,12.0912,12.0912,12.0912,12.0912,12.0912,12.0912,12.0912,12.0912,12.0912,12.0912,12.0912,12.0912,12.0912,12.0912,12.0912,12.0912,12.0912,12.0912,12.0912,12.0912,12.0912,12.0912,12.0912,12.1389,12.3028,12.2759,12.2551,12.3383,12.3383,12.3273,12.3298,12.3591,12.4215,12.55,12.6675,12.7592,12.829,12.9611,13.0199,12.9611,13.0125,13.0492,13.0492,13.0492,13.0492,13.0492,13.0492,13.0492,13.0492,13.0492,13.0492,13.0492,13.0492,13.0492,13.0492,13.0492,13.0492,0.0,0.0,0.0,0.0,8.8977,0.0,0.0,0.0,8.8426,8.916,0.0,0.0,0.0,0.0,0.0,0.0,0.0,0.0,0.0,0.0,0.0,0.0,0.0,0.0,0.0,10.9276,11.0487,11.1184,11.1405,11.2102,11.3497,11.4415,11.5296,11.5993,11.5993,11.5993,11.6066,11.7628,11.8379,11.8615,12.0141,12.0912,12.0912,12.0912,12.0912,12.0912,12.0912,12.0912,12.0912,12.0912,12.0912,12.0912,12.0912,12.0912,12.0912,12.0912,12.0912,12.0912,12.0912,12.0912,12.0912,12.0912,12.0912,12.0912,12.0912,12.0912,12.0912,12.0912,12.0912,12.0912,12.0912,12.0912,12.0912,12.0912,12.0912,12.0912,12.0912,12.0912,12.1389,12.3004,12.3188,12.3371,12.4215,12.3812,12.3334,12.3298,12.4509,12.55,12.5684,12.7592,12.9097,12.9207,13.0015,13.0492,13.0382,13.0419,13.0492,13.0492,13.0492,13.0492,13.0492,13.0492,13.0492,13.0492,13.0492,13.0492,13.0492,13.0492,13.0492,13.0492,13.0492,13.0492,0.0,0.0,0.0,0.0,0.0,0.0,0.0,0.0,8.7215,0.0,0.0,0.0,0.0,0.0,0.0,0.0,0.0,0.0,0.0,0.0,0.0,0.0,0.0,0.0,0.0,0.0,0.0,0.0,11.1221,11.1919,11.3497,11.4782,11.5699,11.5993,11.5993,11.5993,11.5993,11.7571,11.8379,11.8452,12.0104,12.0912,12.0912,12.0912,12.0912,12.0912,12.0912,12.0912,12.0912,12.0912,12.0912,12.0912,12.0912,12.0912,12.0912,12.0912,12.0912,12.0912,12.0912,12.0912,12.0912,12.0912,12.0912,12.0912,12.0912,12.0912,12.0912,12.0912,12.0912,12.0912,12.0912,12.0912,12.0912,12.0912,12.0912,12.0912,12.0912,12.0912,12.1352,12.2954,12.3298,12.3676,12.4986,12.4876,12.4693,12.4693,12.5684,12.6601,12.7005,12.84,12.9501,12.9905,13.0309,13.0492,13.0492,13.0492,13.0492,13.0492,13.0492,13.0492,13.0492,13.0492,13.0492,13.0492,13.0492,13.0492,13.0492,13.0492,13.0492,13.0492,13.0492,13.0492,9.2427,0.0,0.0,0.0,0.0,0.0,0.0,0.0,0.0,0.0,0.0,0.0,0.0,0.0,0.0,0.0,0.0,0.0,0.0,0.0,0.0,0.0,0.0,0.0,0.0,0.0,0.0,11.001,11.001,11.0891,11.3093,11.4598,11.5479,11.5993,11.5993,11.5993,11.5993,11.7608,11.8416,11.8416,12.0104,12.0912,12.0912,12.0912,12.0912,12.0912,12.0912,12.0912,12.0912,12.0912,12.0912,12.0912,12.0912,12.0912,12.0912,12.0912,12.0912,12.0912,12.0912,12.0912,12.0912,12.0912,12.0912,12.0912,12.0912,12.0912,12.0912,12.0912,12.0912,12.0912,12.0912,12.0912,12.0912,12.0912,12.0912,12.0912,12.0912,12.1059,12.1595,12.3037,12.3505,12.4043,12.55,12.5684,12.5794,12.6014,12.6675,12.7482,12.829,12.9097,12.9905,13.0419,13.0492,13.0492,13.0492,13.0492,13.0492,13.0492,13.0492,13.0492,13.0492,13.0492,13.0492,13.0492,13.0492,13.0492,13.0492,13.0492,13.0492,13.0492,13.0492,13.0492,0.0,0.0,0.0,9.3822,0.0,0.0,0.0,0.0,8.9564,0.0,0.0,0.0,0.0,0.0,0.0,0.0,0.0,0.0,0.0,0.0,0.0,0.0,0.0,0.0,0.0,0.0,0.0,10.7477,10.7,10.8285,11.2212,11.3203,11.4378,11.5993,11.5993,11.5993,11.5993,11.7608,11.8416,11.8416,12.0104,12.0912,12.0912,12.0912,12.0912,12.0912,12.0912,12.0912,12.0912,12.0912,12.0912,12.0912,12.0912,12.0912,12.0912,12.0912,12.0912,12.0912,12.0912,12.0912,12.0912,12.0912,12.0912,12.0912,12.0912,12.0912,12.0912,12.0912,12.0912,12.0912,12.0912,12.0912,12.0912,12.0912,12.0912,12.0912,12.0912,12.1522,12.2316,12.3147,12.3846,12.4693,12.5636,12.5684,12.5977,12.6748,12.7446,12.8428,12.9207,13.0015,13.0492,13.0492,13.0492,13.0492,13.0492,13.0492,13.0492,13.0492,13.0492,13.0492,13.0492,13.0492,13.0492,13.0492,13.0492,13.0492,13.0492,13.0492,13.0492,13.0492,13.0492,13.0492,0.0,0.0,10.2485,9.8154,0.0,0.0,0.0,0.0,0.0,0.0,0.0,0.0,0.0,0.0,0.0,0.0,0.0,0.0,0.0,0.0,0.0,0.0,0.0,0.0,0.0,0.0,0.0,10.667,10.7514,10.9312,11.2212,11.3167,11.4305,11.5883,11.5993,11.5993,11.5993,11.7608,11.8416,11.8416,12.0104,12.0912,12.0912,12.0912,12.0912,12.0912,12.0912,12.0912,12.0912,12.0912,12.0912,12.0912,12.0912,12.0912,12.0912,12.0912,12.0912,12.0912,12.0912,12.0912,12.0912,12.0912,12.0912,12.0912,12.0912,12.0912,12.0912,12.0912,12.0912,12.0912,12.0912,12.0912,12.0912,12.0912,12.0912,12.0912,12.0912,12.1522,12.2293,12.3053,12.3922,12.4828,12.5573,12.6134,12.6619,12.6904,12.8033,12.8987,12.9318,13.0015,13.0492,13.0492,13.0492,13.0492,13.0492,13.0492,13.0492,13.0492,13.0492,13.0492,13.0492,13.0492,13.0492,13.0492,13.0492,13.0492,13.0492,13.0492,13.0492,13.0492,13.0492,13.0492,10.2889,10.41,0.0,10.0907,9.9732,0.0,9.4153,0.0,0.0,0.0,0.0,0.0,0.0,0.0,0.0,0.0,0.0,0.0,0.0,9.2501,0.0,0.0,0.0,0.0,0.0,0.0,10.2889,10.6596,10.6413,10.7991,0.0,0.0,11.4011,11.5883,11.5993,11.5993,11.5993,11.7608,11.8416,11.8416,12.0104,12.0912,12.0912,12.0912,12.0912,12.0912,12.0912,12.0912,12.0912,12.0912,12.0912,12.0912,12.0912,12.0912,12.0912,12.0912,12.0912,12.0912,12.0912,12.0912,12.0912,12.0912,12.0912,12.0912,12.0912,12.0912,12.0912,12.0912,12.0912,12.0912,12.0912,12.0912,12.0912,12.0912,12.0912,12.0912,12.0912,12.1522,12.233,12.3137,12.3907,12.4777,12.561,12.6647,12.7352,12.7279,12.8518,12.9428,12.9721,13.0199,13.0492,13.0492,13.0492,13.0492,13.0492,13.0492,13.0492,13.0492,13.0492,13.0492,13.0492,13.0492,13.0492,13.0492,13.0492,13.0492,13.0492,13.0492,13.0492,13.0492,13.0492,13.0492]},{"header":{"parameterUnit":"m.s-1","parameterCategory":1,"la1":30.6,"la2":29.2853,"lo1":-89.7004,"lo2":-87.6739,"dx":0.0162,"dy":0.0183,"nx":112,"ny":82,"refTime":"2023-01-13T06:00:00:Z","depth":0,"parameterNumber":3,"parameterNumberName":"V-component_of_WINDS"},"data":[0.0,0.0,0.0,0.0,0.0,0.0,0.0,0.0,0.0,0.0,0.0,0.0,0.0,0.0,0.0,0.0,0.0,0.0,0.0,0.0,0.0,0.0,0.0,0.0,0.0,0.0,0.0,0.0,0.0,0.0,0.0,0.0,0.0,0.0,0.0,0.0,0.0,0.0,0.0,0.0,0.0,0.0,0.0,0.0,0.0,0.0,0.0,0.0,0.0,0.0,0.0,0.0,0.0,0.0,0.0,0.0,0.0,0.0,0.0,0.0,0.0,0.0,0.0,0.0,0.0,0.0,0.0,0.0,0.0,0.0,0.0,0.0,0.0,0.0,0.0,0.0,0.0,0.0,0.0,0.0,0.0,0.0,0.0,0.0,0.0,0.0,0.0,0.0,0.0,0.0,0.0,-3.1324,-3.1713,-3.2104,-3.2706,-3.2478,-3.0822,-2.7321,0.0,0.0,0.0,0.0,0.0,0.0,0.0,0.0,0.0,0.0,0.0,0.0,0.0,0.0,0.0,0.0,0.0,0.0,0.0,0.0,0.0,0.0,0.0,0.0,0.0,0.0,0.0,0.0,0.0,0.0,0.0,0.0,0.0,0.0,0.0,0.0,0.0,0.0,0.0,0.0,0.0,0.0,0.0,0.0,0.0,0.0,0.0,0.0,0.0,0.0,0.0,0.0,0.0,0.0,0.0,0.0,0.0,0.0,0.0,0.0,0.0,0.0,0.0,0.0,0.0,0.0,0.0,0.0,0.0,0.0,0.0,0.0,0.0,0.0,0.0,0.0,0.0,0.0,0.0,0.0,0.0,0.0,0.0,0.0,0.0,0.0,0.0,0.0,0.0,0.0,0.0,0.0,0.0,0.0,0.0,0.0,0.0,0.0,0.0,0.0,0.0,0.0,0.0,0.0,-2.8744,-3.1042,-3.2232,-3.3026,-3.3627,-3.3414,-3.1837,-2.8551,0.0,0.0,0.0,0.0,0.0,0.0,0.0,0.0,0.0,0.0,0.0,0.0,0.0,0.0,0.0,0.0,0.0,0.0,0.0,0.0,0.0,0.0,0.0,0.0,0.0,0.0,0.0,0.0,0.0,0.0,0.0,0.0,0.0,0.0,0.0,0.0,0.0,0.0,0.0,0.0,0.0,0.0,0.0,0.0,0.0,0.0,0.0,0.0,0.0,0.0,0.0,0.0,0.0,0.0,0.0,0.0,0.0,0.0,0.0,0.0,0.0,0.0,0.0,0.0,0.0,0.0,0.0,0.0,0.0,0.0,0.0,0.0,0.0,0.0,0.0,0.0,0.0,0.0,0.0,0.0,0.0,0.0,0.0,0.0,0.0,0.0,0.0,0.0,0.0,0.0,0.0,0.0,0.0,0.0,0.0,0.0,0.0,0.0,0.0,0.0,0.0,0.0,0.0,-2.912,-3.0217,-3.1705,-3.2853,-3.3641,-3.4082,-3.4002,-3.2532,-2.9285,-2.6881,0.0,0.0,0.0,0.0,0.0,0.0,0.0,0.0,0.0,0.0,0.0,0.0,0.0,0.0,0.0,0.0,0.0,0.0,0.0,0.0,0.0,0.0,0.0,0.0,0.0,0.0,0.0,0.0,0.0,0.0,0.0,0.0,0.0,0.0,0.0,0.0,0.0,0.0,0.0,0.0,0.0,0.0,0.0,0.0,0.0,0.0,0.0,0.0,0.0,0.0,0.0,0.0,0.0,0.0,0.0,0.0,0.0,0.0,0.0,0.0,0.0,0.0,0.0,0.0,0.0,0.0,0.0,0.0,0.0,0.0,0.0,0.0,0.0,0.0,0.0,0.0,0.0,0.0,0.0,0.0,0.0,0.0,0.0,0.0,0.0,0.0,0.0,0.0,0.0,0.0,0.0,0.0,0.0,0.0,0.0,0.0,0.0,0.0,0.0,0.0,0.0,0.0,-3.0779,-3.1798,-3.2498,-3.348,-3.4189,-3.4402,-3.4362,-3.3053,-3.0087,-2.7816,0.0,0.0,0.0,0.0,0.0,0.0,0.0,0.0,0.0,0.0,0.0,0.0,0.0,0.0,0.0,0.0,0.0,0.0,0.0,0.0,0.0,0.0,0.0,0.0,0.0,0.0,0.0,0.0,0.0,0.0,0.0,0.0,0.0,0.0,0.0,0.0,0.0,0.0,0.0,0.0,0.0,0.0,0.0,0.0,0.0,0.0,0.0,0.0,0.0,0.0,0.0,0.0,0.0,0.0,0.0,0.0,0.0,0.0,0.0,0.0,0.0,0.0,0.0,0.0,0.0,0.0,0.0,0.0,0.0,0.0,0.0,0.0,0.0,0.0,0.0,0.0,0.0,0.0,0.0,0.0,0.0,0.0,0.0,0.0,0.0,0.0,0.0,0.0,0.0,0.0,0.0,0.0,0.0,0.0,0.0,0.0,0.0,0.0,0.0,0.0,0.0,0.0,-3.0211,-3.1611,-3.2438,-3.3841,-3.471,-3.4736,-3.4482,-3.34,-3.1236,-2.8644,0.0,0.0,0.0,0.0,0.0,0.0,0.0,0.0,0.0,0.0,0.0,0.0,0.0,0.0,0.0,0.0,0.0,0.0,0.0,0.0,0.0,0.0,0.0,0.0,0.0,0.0,0.0,0.0,0.0,0.0,0.0,0.0,0.0,0.0,0.0,0.0,0.0,0.0,0.0,0.0,0.0,0.0,0.0,0.0,0.0,0.0,0.0,0.0,0.0,0.0,0.0,0.0,0.0,0.0,0.0,0.0,0.0,0.0,0.0,0.0,0.0,0.0,0.0,0.0,0.0,0.0,0.0,0.0,0.0,0.0,0.0,0.0,0.0,0.0,0.0,0.0,0.0,0.0,0.0,0.0,0.0,0.0,0.0,0.0,0.0,0.0,0.0,0.0,0.0,0.0,0.0,0.0,0.0,0.0,0.0,0.0,0.0,0.0,0.0,0.0,0.0,0.0,-2.9453,-3.094,0.0,-3.4434,-3.5065,-3.5017,-3.4937,-3.3748,-3.1129,0.0,0.0,0.0,0.0,0.0,0.0,0.0,0.0,0.0,0.0,0.0,0.0,0.0,0.0,0.0,0.0,0.0,0.0,0.0,0.0,0.0,0.0,0.0,0.0,0.0,0.0,0.0,0.0,0.0,0.0,0.0,0.0,0.0,0.0,0.0,0.0,0.0,0.0,0.0,0.0,0.0,0.0,0.0,0.0,0.0,0.0,0.0,0.0,0.0,0.0,0.0,0.0,0.0,0.0,0.0,0.0,0.0,0.0,0.0,0.0,0.0,0.0,0.0,0.0,0.0,0.0,0.0,0.0,0.0,0.0,0.0,0.0,0.0,0.0,0.0,0.0,0.0,0.0,0.0,0.0,0.0,0.0,0.0,0.0,0.0,0.0,0.0,0.0,0.0,0.0,0.0,0.0,0.0,0.0,0.0,0.0,0.0,0.0,0.0,0.0,0.0,0.0,-2.8908,-2.9713,-3.0916,0.0,-3.4635,-3.5133,-3.5177,-3.5124,-3.4341,-3.2371,0.0,0.0,0.0,0.0,0.0,0.0,0.0,0.0,0.0,0.0,0.0,0.0,0.0,0.0,0.0,0.0,0.0,0.0,0.0,0.0,0.0,0.0,0.0,0.0,0.0,0.0,0.0,0.0,0.0,0.0,0.0,0.0,0.0,0.0,0.0,0.0,0.0,0.0,0.0,0.0,0.0,0.0,0.0,0.0,0.0,0.0,0.0,0.0,0.0,0.0,0.0,0.0,0.0,0.0,0.0,0.0,0.0,0.0,0.0,0.0,0.0,0.0,0.0,0.0,0.0,0.0,0.0,0.0,0.0,0.0,0.0,0.0,0.0,0.0,0.0,0.0,0.0,0.0,0.0,0.0,0.0,0.0,0.0,0.0,0.0,0.0,0.0,0.0,0.0,0.0,0.0,0.0,0.0,0.0,0.0,0.0,0.0,0.0,0.0,0.0,0.0,0.0,-2.9808,-3.1067,-3.1985,-3.2644,-3.4183,-3.5133,-3.5177,-3.5173,-3.5138,0.0,0.0,0.0,0.0,0.0,0.0,0.0,0.0,0.0,0.0,0.0,0.0,0.0,0.0,0.0,0.0,0.0,0.0,0.0,0.0,0.0,0.0,0.0,0.0,0.0,0.0,0.0,0.0,0.0,0.0,0.0,0.0,0.0,0.0,0.0,0.0,0.0,0.0,0.0,0.0,0.0,0.0,0.0,0.0,0.0,0.0,0.0,0.0,0.0,0.0,0.0,0.0,0.0,0.0,0.0,0.0,0.0,0.0,0.0,0.0,0.0,0.0,0.0,0.0,0.0,0.0,0.0,0.0,0.0,0.0,0.0,0.0,0.0,0.0,0.0,0.0,0.0,0.0,0.0,0.0,0.0,0.0,0.0,0.0,0.0,0.0,0.0,0.0,0.0,0.0,0.0,0.0,0.0,0.0,0.0,0.0,0.0,0.0,0.0,0.0,0.0,0.0,0.0,-2.9784,-3.0946,-3.2077,-3.3146,-3.4316,-3.52,-3.5219,-3.5231,-3.5142,-3.5276,0.0,0.0,0.0,0.0,0.0,0.0,0.0,0.0,0.0,0.0,0.0,0.0,0.0,0.0,0.0,0.0,0.0,0.0,0.0,0.0,0.0,0.0,0.0,0.0,0.0,0.0,0.0,0.0,0.0,0.0,0.0,0.0,0.0,0.0,0.0,0.0,0.0,0.0,0.0,0.0,0.0,0.0,0.0,0.0,0.0,0.0,0.0,0.0,0.0,0.0,0.0,0.0,0.0,0.0,0.0,0.0,0.0,0.0,0.0,0.0,0.0,0.0,0.0,0.0,0.0,0.0,0.0,0.0,0.0,0.0,0.0,0.0,0.0,0.0,0.0,0.0,0.0,0.0,0.0,0.0,0.0,0.0,0.0,0.0,0.0,0.0,0.0,0.0,0.0,0.0,0.0,0.0,0.0,0.0,0.0,0.0,0.0,0.0,0.0,0.0,0.0,0.0,-3.0612,-3.1931,-3.3041,-3.3997,-3.4931,-3.5558,-3.5657,-3.5657,-3.55,-3.4531,0.0,0.0,0.0,0.0,0.0,0.0,0.0,0.0,0.0,0.0,0.0,0.0,0.0,0.0,0.0,0.0,0.0,0.0,0.0,0.0,0.0,0.0,0.0,0.0,0.0,0.0,0.0,0.0,0.0,0.0,0.0,0.0,0.0,0.0,0.0,0.0,0.0,0.0,0.0,0.0,0.0,0.0,0.0,0.0,0.0,0.0,0.0,0.0,0.0,0.0,0.0,0.0,0.0,0.0,0.0,0.0,0.0,0.0,0.0,0.0,0.0,0.0,0.0,0.0,0.0,0.0,0.0,0.0,0.0,0.0,0.0,0.0,0.0,0.0,0.0,0.0,0.0,0.0,0.0,0.0,0.0,0.0,0.0,0.0,0.0,0.0,0.0,0.0,0.0,0.0,0.0,0.0,0.0,0.0,0.0,0.0,0.0,0.0,0.0,0.0,0.0,0.0,-3.1678,-3.3398,-3.4542,-3.5185,-3.5814,-3.6197,-3.6013,-3.6471,-3.5732,-3.3653,0.0,0.0,0.0,0.0,0.0,0.0,0.0,0.0,0.0,0.0,0.0,0.0,0.0,0.0,0.0,0.0,0.0,0.0,0.0,0.0,0.0,0.0,0.0,0.0,0.0,0.0,0.0,0.0,0.0,0.0,0.0,0.0,0.0,0.0,0.0,0.0,0.0,0.0,0.0,0.0,0.0,0.0,0.0,0.0,0.0,0.0,0.0,0.0,0.0,0.0,0.0,0.0,0.0,0.0,0.0,0.0,0.0,0.0,0.0,0.0,-2.2714,0.0,0.0,0.0,0.0,0.0,0.0,0.0,0.0,0.0,0.0,0.0,0.0,0.0,0.0,0.0,0.0,0.0,0.0,0.0,0.0,0.0,0.0,0.0,0.0,0.0,0.0,0.0,0.0,0.0,0.0,0.0,0.0,0.0,0.0,0.0,0.0,0.0,0.0,0.0,0.0,0.0,-3.1972,-3.3978,-3.5221,-3.587,-3.6006,-3.6112,-3.61,-3.5738,-3.5423,-3.4937,0.0,0.0,0.0,0.0,0.0,0.0,0.0,0.0,0.0,0.0,0.0,0.0,0.0,0.0,0.0,0.0,0.0,0.0,0.0,0.0,0.0,0.0,0.0,0.0,0.0,0.0,0.0,0.0,0.0,0.0,0.0,0.0,0.0,0.0,0.0,0.0,0.0,0.0,0.0,0.0,0.0,0.0,0.0,0.0,0.0,0.0,0.0,0.0,0.0,0.0,0.0,0.0,0.0,0.0,0.0,0.0,0.0,0.0,0.0,0.0,0.0,-2.5097,0.0,0.0,0.0,0.0,0.0,0.0,0.0,0.0,0.0,0.0,0.0,0.0,0.0,0.0,0.0,0.0,0.0,0.0,0.0,0.0,0.0,0.0,0.0,0.0,0.0,0.0,0.0,0.0,0.0,0.0,0.0,0.0,0.0,0.0,0.0,0.0,0.0,0.0,0.0,0.0,-3.2643,-3.3471,-3.4408,-3.5872,-3.6266,-3.6154,-3.6059,-3.5829,-3.5618,-3.5499,-3.417,0.0,0.0,0.0,0.0,0.0,0.0,0.0,0.0,0.0,0.0,0.0,0.0,0.0,0.0,0.0,0.0,0.0,0.0,0.0,0.0,0.0,0.0,0.0,0.0,0.0,0.0,0.0,0.0,0.0,0.0,0.0,0.0,0.0,0.0,0.0,0.0,0.0,0.0,0.0,0.0,0.0,0.0,0.0,0.0,0.0,0.0,0.0,0.0,0.0,0.0,0.0,0.0,0.0,0.0,-2.9266,-3.026,-3.013,-3.0136,-2.9761,-2.7796,-2.7523,-2.8033,0.0,0.0,0.0,0.0,0.0,0.0,0.0,0.0,0.0,0.0,0.0,0.0,0.0,0.0,0.0,0.0,0.0,0.0,0.0,0.0,0.0,0.0,0.0,0.0,0.0,-4.1484,-3.8851,0.0,0.0,0.0,0.0,0.0,0.0,0.0,0.0,0.0,0.0,0.0,0.0,-3.2991,-3.2886,-3.3429,-3.5401,-3.6072,-3.6383,-3.6153,-3.6393,-3.6326,-3.5979,-3.4884,-3.3557,0.0,0.0,0.0,0.0,0.0,0.0,0.0,0.0,0.0,0.0,0.0,0.0,0.0,0.0,0.0,0.0,0.0,0.0,0.0,0.0,0.0,0.0,0.0,0.0,0.0,0.0,0.0,0.0,0.0,0.0,0.0,0.0,-2.4224,-2.2187,0.0,0.0,0.0,0.0,0.0,0.0,0.0,0.0,0.0,0.0,0.0,0.0,0.0,0.0,-2.7324,-3.5163,-3.5442,-2.8224,-3.0364,-3.1235,-3.1402,-3.1469,-3.0899,-2.9912,-2.9638,0.0,-2.8191,-2.8684,0.0,0.0,0.0,0.0,0.0,0.0,0.0,0.0,0.0,0.0,0.0,0.0,0.0,0.0,0.0,0.0,0.0,0.0,0.0,0.0,0.0,0.0,-3.1687,-3.1734,-3.2587,-3.2895,0.0,-2.8783,-2.7115,-2.8036,0.0,0.0,0.0,0.0,0.0,0.0,0.0,0.0,-3.1469,-3.2746,-3.3416,-3.3759,-3.527,-3.642,-3.6692,-3.674,-3.6647,-3.6059,-3.5307,-3.4192,-3.2955,-3.1947,0.0,0.0,0.0,0.0,0.0,0.0,0.0,0.0,0.0,0.0,0.0,0.0,0.0,0.0,0.0,0.0,0.0,0.0,0.0,0.0,0.0,0.0,0.0,0.0,0.0,0.0,0.0,0.0,0.0,-2.3641,-2.6304,-2.5876,-2.4775,-2.2935,0.0,0.0,0.0,0.0,0.0,0.0,0.0,0.0,0.0,-2.5867,-3.1684,-3.2938,-2.9198,-3.2996,-3.336,-3.0138,-3.1276,-3.1628,-3.1729,-3.1772,-3.1692,-3.1908,-3.1867,-3.1511,-3.1063,-3.0156,-2.9355,-2.8117,0.0,0.0,0.0,0.0,0.0,-2.5959,-2.6534,0.0,0.0,0.0,0.0,0.0,0.0,0.0,0.0,0.0,0.0,0.0,0.0,0.0,0.0,-3.2237,-3.1313,-3.1705,-3.1745,-3.0954,-3.0274,0.0,-2.8199,-2.5985,-2.6111,0.0,0.0,0.0,0.0,0.0,-3.2543,-3.3049,-3.3612,-3.4411,-3.5626,-3.67,-3.7444,-3.7091,-3.6801,-3.655,-3.6219,-3.559,-3.4523,-3.3639,-3.156,0.0,0.0,0.0,0.0,0.0,0.0,0.0,0.0,0.0,0.0,0.0,0.0,0.0,0.0,0.0,0.0,0.0,0.0,0.0,0.0,0.0,0.0,0.0,0.0,0.0,0.0,0.0,0.0,-2.4012,-2.6254,-2.8354,-2.7378,-2.5072,0.0,0.0,0.0,0.0,0.0,0.0,-2.4337,-2.6973,-2.8659,-2.8565,-3.0594,-3.1224,-3.0308,-3.0285,-3.0758,-3.1748,-3.1765,-3.1772,-3.177,-3.1713,-3.227,-3.3436,-3.3324,-3.3367,-3.3239,-3.1178,-3.0299,-3.0079,-2.746,-2.6375,-2.6401,-2.6066,-2.7337,-2.9277,-3.0013,-3.1021,-3.1831,-3.1962,0.0,-3.1553,-3.0658,0.0,0.0,0.0,0.0,-4.3042,-4.5688,0.0,-4.0733,-3.3799,-3.2091,-3.2177,-3.2051,-3.2104,-3.2051,0.0,-3.0951,-3.0288,-3.0321,0.0,0.0,0.0,0.0,-3.3384,-3.3338,-3.3587,-3.4201,-3.5108,-3.6446,-3.7491,-3.7901,-3.7596,-3.7369,-3.7063,-3.7061,-3.6869,-3.6114,-3.4871,-3.3379,-3.138,0.0,0.0,0.0,0.0,0.0,0.0,0.0,0.0,0.0,0.0,0.0,0.0,0.0,0.0,0.0,0.0,0.0,0.0,0.0,0.0,0.0,0.0,0.0,0.0,0.0,0.0,0.0,0.0,0.0,-2.9277,-2.7716,0.0,0.0,0.0,0.0,-2.7536,-2.7888,-2.7873,-2.7883,-2.9043,-2.9891,-2.9886,-3.0981,-3.1748,-3.1702,-3.157,-3.1597,-3.1624,-3.1757,-3.1627,-3.1666,-3.1764,-3.2379,-3.3347,-3.3426,-3.3399,-3.3253,-3.2064,-3.1587,-3.1663,-3.1416,-3.1397,-3.1198,-3.0079,-3.0483,-3.1501,-3.1505,-3.1705,-3.1867,-3.3037,-3.2487,-3.1666,-3.1704,-3.1495,0.0,0.0,-3.8579,-4.6013,-4.6222,-3.932,-3.2504,-3.3119,-3.3307,-3.3251,-3.3307,-3.336,-3.3066,0.0,-3.1699,-3.1652,-3.1595,0.0,-2.8872,-3.1579,-3.2793,-3.345,-3.3298,-3.4501,-3.5033,-3.5138,-3.7167,-3.861,-3.8692,-3.8692,-3.8372,-3.7809,-3.7775,-3.7536,-3.6951,-3.5791,-3.4706,-3.4032,-3.3398,0.0,0.0,0.0,0.0,0.0,0.0,0.0,0.0,0.0,0.0,0.0,0.0,0.0,0.0,0.0,0.0,0.0,0.0,0.0,0.0,0.0,0.0,0.0,0.0,0.0,0.0,0.0,0.0,-2.9485,-2.8514,0.0,0.0,-2.6952,-2.7092,-2.9145,-2.9239,-2.9699,-3.0342,-3.0876,-3.1053,-3.1102,-3.1463,-3.1692,-3.164,-3.164,-3.164,-3.164,-3.1631,-3.2049,-3.2888,-3.2841,-3.2973,-3.3492,-3.4259,-3.4476,-3.4395,-3.3267,-3.2438,-3.1665,-3.1665,-3.177,-3.1587,-3.1156,-3.1249,-3.1678,-3.1646,-3.2164,-3.2866,-3.3267,-3.3143,-3.2719,-3.1971,-3.1732,-3.1702,-3.173,-3.4271,-3.7025,-3.7805,-3.5468,-3.2879,-3.3253,-3.3977,-3.4612,-3.4501,-3.4649,-3.4469,-3.393,-3.3253,-3.2875,-3.2831,-3.2189,-3.1864,-3.2579,-3.4492,-3.5571,-3.5691,-3.5469,-3.5484,-3.6161,-3.7021,-3.7794,-3.8692,-3.86,-3.8517,-3.8397,-3.837,-3.7897,-3.6852,-3.6406,-3.5805,-3.4797,-3.4665,-3.3159,0.0,0.0,0.0,0.0,0.0,0.0,0.0,0.0,0.0,0.0,0.0,0.0,0.0,0.0,0.0,0.0,0.0,0.0,0.0,0.0,0.0,0.0,0.0,0.0,0.0,0.0,-2.735,-3.024,-3.026,-3.0573,-3.2112,-3.0931,-3.015,-3.0452,-3.0482,-3.0899,-3.1628,-3.1634,-3.1799,-3.2176,-3.2189,-3.2198,-3.2247,-3.2247,-3.2287,-3.2182,-3.2274,-3.2643,-3.3506,-3.3815,-3.4111,-3.397,-3.4855,-3.5281,-3.5116,-3.4407,-3.3545,-3.2895,-3.2366,-3.2209,-3.2287,-3.2353,-3.234,-3.2235,-3.2285,-3.293,-3.4042,-3.4023,-3.4055,-3.3708,-3.2585,-3.2259,-3.2326,-3.2284,-3.2208,-3.2458,-3.3674,-3.4068,-3.4111,-3.391,-3.4541,-3.5294,-3.5755,-3.5761,-3.5711,-3.5842,-3.485,-3.4084,-3.4055,-3.4057,-3.4004,-3.3936,-3.5401,-3.6273,-3.6425,-3.5964,-3.6006,-3.6826,-3.6839,-3.7317,-3.8587,-3.8735,-3.8667,-3.8691,-3.8733,-3.8086,-3.6905,-3.696,-3.6559,-3.5792,-3.5301,-3.3762,-3.0946,0.0,0.0,0.0,0.0,0.0,0.0,0.0,0.0,0.0,0.0,0.0,0.0,0.0,0.0,0.0,0.0,0.0,0.0,0.0,0.0,0.0,0.0,0.0,-2.6655,-2.8495,-3.0475,-3.1529,-3.2785,-3.3336,-3.3315,-3.3387,-3.2886,-3.1792,-3.1664,-3.1779,-3.1717,-3.1812,-3.2337,-3.3461,-3.3461,-3.3388,-3.3462,-3.3462,-3.3399,-3.3454,-3.3532,-3.3462,-3.3501,-3.4693,-3.5224,-3.5261,-3.5274,-3.5274,-3.5274,-3.5274,-3.5319,-3.5047,-3.4015,-3.3448,-3.3475,-3.3521,-3.3612,-3.3446,-3.3499,-3.4255,-3.5217,-3.5231,-3.5315,-3.5075,-3.3897,-3.3488,-3.348,-3.348,-3.3479,-3.3798,-3.5007,-3.5306,-3.52,-3.5285,-3.5178,-3.5645,-3.6635,-3.6867,-3.6761,-3.6931,-3.5937,-3.5164,-3.5315,-3.5261,-3.5179,-3.5349,-3.5319,0.0,-3.5288,-3.6285,-3.6843,-3.6843,-3.6874,-3.7515,-3.8556,-3.8591,-3.857,-3.8651,-3.8632,-3.8107,-3.6894,-3.684,-3.6799,-3.6815,-3.5733,-3.235,-2.6711,0.0,0.0,0.0,0.0,0.0,0.0,0.0,0.0,0.0,0.0,0.0,0.0,0.0,0.0,0.0,0.0,0.0,0.0,0.0,0.0,0.0,0.0,-2.93,-2.9007,-3.0161,-3.1606,-3.2855,-3.3171,-3.3489,-3.3476,-3.3466,-3.3213,-3.2955,-3.226,-3.2038,-3.2848,-3.3666,-3.4405,-3.4647,-3.3963,-3.3426,-3.3475,-3.4192,-3.4789,-3.4635,-3.4716,-3.5207,-3.5877,-3.5469,-3.5192,-3.523,-3.5966,-3.6435,-3.6435,-3.5952,-3.5899,-3.5737,-3.5031,-3.5144,-3.5856,-3.5939,-3.5953,-3.6023,-3.5869,-3.6224,-3.6539,-3.6491,-3.6383,-3.6299,-3.5098,-3.4623,-3.478,-3.478,-3.4675,-3.4828,-3.5147,-3.5737,-3.6329,-3.6463,-3.6504,-3.6517,-3.6761,-3.6254,-3.5935,-3.6853,-3.6745,-3.653,-3.6516,-3.5712,-3.5444,-3.6326,-3.5832,0.0,-3.6275,-3.6446,-3.6687,-3.6934,-3.7301,-3.7742,-3.8063,-3.8412,-3.8114,-3.6845,-3.7622,-3.7609,-3.6879,-3.7699,-3.7005,-3.4426,-3.3967,-3.3187,0.0,0.0,0.0,0.0,0.0,0.0,0.0,0.0,0.0,0.0,0.0,0.0,0.0,0.0,0.0,0.0,0.0,0.0,0.0,0.0,0.0,0.0,-2.6259,-3.0101,-3.0575,-3.1757,-3.2748,-3.3279,-3.3466,-3.3519,-3.4042,-3.4175,-3.4135,-3.4057,-3.3061,-3.2755,-3.332,-3.446,-3.5299,-3.5211,-3.4434,-3.3924,-3.3499,-3.4098,-3.4767,-3.5297,-3.5774,-3.6217,-3.6799,-3.6288,-3.5912,0.0,-3.6572,-3.6815,-3.6815,-3.6559,-3.6545,0.0,0.0,0.0,0.0,0.0,-3.6149,-3.619,-3.6288,-3.6531,-3.6979,-3.7565,-3.7743,-3.7482,-3.6259,-3.5816,-3.606,-3.6543,-3.6572,-3.6611,-3.6719,-3.7237,-3.7538,-3.692,-3.6934,-3.6907,-3.6799,-3.6467,-3.6158,-3.6794,0.0,0.0,-3.6991,-3.634,-3.6166,-3.6895,-3.6369,-3.6042,0.0,-3.6607,-3.6432,-3.6458,-3.7184,-3.7582,-3.7742,-3.7848,0.0,0.0,0.0,-3.7713,-3.7008,-3.7577,0.0,0.0,0.0,-3.4585,0.0,0.0,0.0,0.0,-2.8271,-2.8347,0.0,0.0,0.0,0.0,0.0,0.0,0.0,0.0,0.0,0.0,0.0,0.0,0.0,0.0,0.0,0.0,-2.5981,-3.0199,-3.1503,-3.2599,-3.3256,-3.3395,-3.3614,-3.3917,-3.5102,-3.5193,-3.5261,-3.5431,-3.4435,-3.3772,-3.355,0.0,0.0,0.0,0.0,-3.478,-3.362,-3.3638,-3.4373,-3.5384,-3.6369,-3.687,-3.6911,-3.6911,-3.6911,-3.6911,-3.6911,-3.6911,-3.6911,-3.6911,-3.6911,-3.6694,-3.5877,-3.5467,-3.5287,-3.5287,-3.5352,0.0,0.0,0.0,0.0,-3.8225,-3.8584,-3.8361,-3.7126,-3.6924,-3.7196,-3.8202,-3.8476,-3.856,-3.8566,-3.8608,-3.8197,-3.7216,-3.7008,-3.6941,-3.6934,-3.6874,-3.6967,-3.6934,-3.6874,-3.6812,-3.6812,-3.6807,-3.6924,-3.6895,-3.6829,0.0,-3.6895,-3.654,-3.6289,-3.6302,0.0,0.0,-3.7699,-3.7316,-3.7596,-3.8624,-3.8665,-3.8194,-3.6934,-3.6907,-3.6802,-3.6951,-3.6882,-3.645,-3.5423,-3.415,-3.3499,-3.3599,-3.35,-3.3451,0.0,0.0,0.0,0.0,0.0,0.0,0.0,0.0,0.0,0.0,0.0,0.0,0.0,0.0,0.0,-2.2774,-2.5867,-2.9212,-3.1354,-3.1899,-3.2443,-3.3267,-3.4282,-3.4963,-3.5254,-3.5258,-3.5685,-3.6587,-3.6408,-3.5891,-3.4887,-3.5151,0.0,-3.523,-3.5283,-3.5108,-3.4919,-3.5723,-3.6369,-3.6665,0.0,0.0,-3.7001,-3.7001,-3.7001,-3.7001,-3.7001,-3.7001,-3.7001,-3.7001,-3.7001,-3.696,-3.6571,-3.664,-3.664,-3.6477,-3.649,-3.653,-3.6513,-3.6754,-3.6981,-3.7221,-3.7261,-3.7195,-3.6945,-3.6905,0.0,-3.7128,-3.7301,-3.7237,-3.7304,-3.7144,-3.7261,-3.7039,-3.6933,-3.6841,-3.6999,-3.684,-3.6879,-3.6814,-3.684,-3.6879,-3.6879,-3.6907,-3.6905,-3.6812,-3.6814,-3.6933,-3.6907,-3.6774,-3.6879,-3.7383,-3.7461,-3.7659,-3.7738,-3.814,-3.8437,-3.8627,-3.8224,-3.7662,-3.7039,-3.6814,-3.6973,-3.6814,-3.6847,-3.6732,-3.6653,-3.5458,-3.495,-3.4891,-3.3758,-3.3382,0.0,0.0,0.0,0.0,0.0,0.0,0.0,0.0,0.0,0.0,0.0,-2.5179,0.0,0.0,-2.6682,-2.7184,-2.8818,-3.0324,-3.1593,-3.2208,-3.2934,-3.4057,-3.477,-3.5442,-3.6033,-3.6002,-3.6268,-3.6772,-3.6965,-3.6383,-3.5297,-3.5644,-3.602,-3.6059,-3.5976,-3.6042,-3.6042,-3.6678,-3.684,-3.696,-3.696,-3.6807,-3.6941,-3.6941,-3.6941,-3.6941,-3.6941,-3.6941,-3.6941,-3.6941,-3.6941,-3.6901,-3.6866,-3.6991,-3.6991,-3.6991,-3.6991,-3.6799,-3.6934,-3.6847,-3.6967,-3.6879,-3.6998,-3.688,-3.688,-3.6973,-3.684,-3.684,-3.6932,-3.681,-3.681,-3.6932,-3.6879,-3.6997,-3.7436,-3.7874,-3.7782,-3.7809,-3.7809,-3.7809,-3.7809,-3.7809,-3.7809,-3.7809,-3.7782,-3.7874,-3.7716,-3.7809,-3.7809,-3.7715,-3.8023,-3.8291,-3.845,-3.8472,-3.8214,-3.8464,-3.8804,-3.8685,-3.8923,-3.8708,-3.7778,-3.7848,-3.7715,-3.7809,-3.778,-3.7485,-3.6941,-3.6268,-3.5666,-3.5134,-3.4553,-3.4698,0.0,0.0,0.0,0.0,0.0,0.0,0.0,0.0,-2.4796,-2.6026,-2.6707,-2.7321,-2.846,-2.7927,-2.8309,-3.13,-3.1678,-3.1686,-3.2071,-3.2749,-3.3745,-3.5129,-3.5496,-3.5883,-3.6883,-3.7081,-3.7141,-3.7144,-3.7141,-3.6693,-3.5689,-3.6433,-3.6911,-3.6965,-3.6964,-3.684,-3.684,-3.6847,-3.6941,-3.6941,-3.6941,-3.6941,-3.6941,-3.6941,-3.6941,-3.6941,-3.7008,-3.7048,-3.7114,-3.7114,-3.7114,-3.7114,-3.7114,-3.7114,-3.7074,-3.6967,-3.6941,-3.6941,-3.7021,-3.7008,-3.6812,-3.6839,-3.6998,-3.6946,-3.7197,-3.7144,-3.7303,-3.7303,-3.7303,-3.7303,-3.7303,-3.7303,-3.7303,-3.7356,-3.7903,-3.8706,-3.8733,-3.8801,-3.86,-3.86,-3.8641,-3.8695,-3.8695,-3.8627,-3.8627,-3.8733,-3.8733,-3.876,-3.876,-3.8776,-3.8952,-3.8952,-3.9425,-3.9501,-3.8977,-3.894,-3.9058,-3.9058,-3.9925,-4.0178,-3.9165,-3.8923,-3.8911,-3.8951,-3.8883,-3.8424,-3.7144,-3.7264,-3.6801,-3.578,-3.5776,-3.626,0.0,0.0,0.0,-2.3527,-2.4128,-2.5117,0.0,0.0,-2.7281,-2.8738,-2.9299,-2.9633,-3.0187,-3.0345,-3.0676,-3.1476,-3.162,-3.2111,-3.3146,-3.3374,-3.3868,-3.4977,-3.6072,-3.6802,-3.6951,-3.7781,-3.8596,-3.8413,-3.8403,-3.7948,-3.6706,-3.6893,-3.684,-3.6847,-3.6874,-3.6901,-3.6901,-3.6941,-3.6941,-3.6941,-3.6941,-3.6941,-3.6941,-3.6941,-3.6941,-3.6941,-3.7235,-3.7489,-3.7702,-3.7702,-3.7702,-3.7702,-3.7463,-3.745,-3.741,-3.7114,-3.6941,-3.6981,-3.7485,-3.7342,-3.688,-3.6879,-3.6971,-3.7024,-3.8276,-3.8543,-3.8583,-3.8583,-3.8583,-3.8583,-3.8583,-3.8583,-3.8411,-3.8412,-3.8493,-3.8803,-3.8597,-3.8592,-3.8751,-3.8751,-3.8702,-3.8624,-3.8624,-3.8624,-3.8636,-3.86,-3.8694,-3.8624,-3.8624,-3.9138,-3.9574,-3.9574,-3.9608,-3.9823,-4.0351,-4.0365,-4.0392,-4.0392,-4.0379,-4.0351,-4.0297,-3.9729,-3.9426,-3.9426,-3.9433,-3.9138,-3.8571,-3.8546,-3.8407,-3.8359,-3.8386,-3.7816,-2.6987,0.0,0.0,0.0,-2.672,-2.7148,-2.823,-2.8644,-2.9125,-2.9858,-3.0584,-3.0844,-3.0747,-3.1086,-3.1412,0.0,-3.231,-3.2799,-3.3334,-3.395,-3.4706,-3.5097,-3.5698,-3.6246,-3.674,-3.8053,-3.866,-3.866,-3.8032,-3.7382,-3.6945,-3.6901,-3.6847,-3.6941,-3.6941,-3.6941,-3.6941,-3.6879,-3.7181,-3.7444,-3.6958,-3.7025,-3.7448,-3.7275,-3.7301,-3.7448,-3.7595,-3.7702,-3.7809,-3.7569,-3.7796,-3.7809,-3.7809,-3.7569,-3.7516,-3.7515,-3.7448,-3.7448,-3.7609,-3.7888,-3.7928,-3.8022,-3.7929,-3.8103,-3.8546,-3.8992,-3.9181,-3.8798,-3.8618,-3.8618,-3.8618,-3.8618,-3.8618,-3.8751,-3.8778,-3.8804,-3.8676,-3.8794,-3.8887,-3.9675,-3.9796,-3.985,-3.985,-3.985,-3.9729,-3.9641,-3.9709,-3.9514,-3.9239,-3.9608,-3.9756,-3.989,-3.9786,-3.9933,-4.0388,-4.0401,-4.0401,-4.0401,-4.0401,-4.0321,-4.0132,-3.9867,-3.9773,-3.9599,-3.9756,-3.9622,-3.9487,-3.9245,-3.9057,-3.8691,-3.8691,-3.8432,-2.8393,0.0,0.0,-2.8102,-2.8591,-2.9219,-2.9659,-3.0154,-3.0544,-3.091,-3.15,-3.1712,-3.1646,-3.1711,0.0,-3.1624,-3.2696,-3.3466,-3.3479,-3.4407,-3.5139,-3.5244,-3.5511,-3.6015,-3.6767,-3.7606,-3.8235,-3.8728,-3.7689,-3.6814,-3.6998,-3.6812,-3.6967,-3.6812,-3.6812,-3.6839,-3.6945,-3.688,-3.7237,-3.8005,-3.7502,-3.7595,-3.7809,-3.7595,-3.7676,-3.7929,-3.7929,-3.7996,-3.8063,-3.7821,-3.7821,-3.8063,-3.8063,-3.8063,-3.7821,-3.8063,-3.7969,-3.7823,-3.7929,-3.8184,-3.8492,-3.8681,-3.8857,-3.906,-3.8878,-3.9393,-3.9871,-3.9269,-3.9322,-3.9322,-3.9322,-3.9322,-3.9322,-3.9322,-3.9322,-3.9322,-3.9322,-3.9138,-3.9442,-4.0263,-4.0583,-4.0412,-4.0412,-4.0412,-4.0412,-4.0412,-4.0412,-4.0317,-3.964,-3.9693,-4.0079,-4.0107,-4.0214,-4.0361,-4.0588,-4.0655,-4.0722,-4.0722,-4.0722,-4.0615,-4.0388,-4.0321,-4.0174,-3.996,-4.0146,-4.0092,-3.9985,-3.9971,-3.9666,-3.9322,-3.9322,-3.9322,0.0,0.0,-2.8028,-2.7473,-2.9273,-3.1138,-3.157,-3.1824,-3.1992,-3.2143,-3.2274,-3.2496,-3.3094,-3.2498,-3.1723,-3.1668,-3.269,-3.3466,-3.3421,-3.4488,-3.52,-3.5298,-3.6141,-3.6924,0.0,-3.7034,-3.7382,-3.8651,-3.7633,-3.6998,-3.6967,-3.6941,-3.6839,-3.6841,-3.688,-3.6973,-3.6997,-3.681,-3.7556,-3.8597,-3.8597,-3.833,-3.7809,-3.7809,-3.7969,-3.825,-3.825,-3.8397,-3.8691,-3.8691,-3.8691,-3.8691,-3.8691,-3.8691,-3.8691,-3.8691,-3.8344,-3.8116,-3.8157,-3.825,-3.8317,-3.8958,-3.9393,-3.9474,-3.9506,-4.0087,-4.0419,-4.0419,-4.0419,-4.0419,-4.0419,-4.0419,-4.0419,-4.0419,-4.0419,-4.0419,-4.0419,-4.0371,-4.056,-4.0574,-4.0522,-4.0441,-4.0441,-4.0441,-4.0441,-4.0441,-4.0441,-4.0254,-3.968,-3.9853,-4.0147,-4.0441,-4.0722,-4.0869,-4.0909,-4.1163,-4.131,-4.131,-4.131,-4.131,-4.131,-4.1016,-4.0869,-4.0869,-4.0588,-4.0549,-4.0574,-4.0574,-4.0439,-4.0419,-4.0419,-4.0419,0.0,0.0,-2.9987,-3.0765,-3.1225,-3.1631,-3.162,-3.2091,-3.2405,-3.1918,-3.2585,-3.3105,-3.3271,-3.3762,-3.3814,-3.2916,-3.3908,-3.4503,-3.4674,-3.5044,-3.5112,-3.5154,-3.6286,0.0,0.0,0.0,0.0,-3.7573,-3.7025,-3.6841,-3.6972,-3.6972,-3.688,-3.6905,-3.7676,-3.7982,-3.8076,-3.801,-3.8358,-3.8641,-3.86,-3.8573,-3.8116,-3.833,-3.8464,-3.8584,-3.8584,-3.8624,-3.8718,-3.8718,-3.8838,-3.9012,-3.9272,-3.9132,-3.9057,-3.9319,-3.9433,-3.9245,-3.8918,-3.8865,-3.8905,-3.9319,-3.9466,-3.9506,-3.9813,-3.9907,-4.02,-4.0388,-4.0455,-4.0455,-4.0455,-4.0455,-4.0455,-4.0455,-4.0455,-4.0455,-4.0455,-4.0414,-4.0601,-4.0601,-4.0557,-4.0497,-4.0497,-4.0497,-4.0497,-4.0497,-4.0451,-4.0481,-4.0481,-4.0561,-4.0735,-4.1016,-4.1122,-4.1203,-4.1203,-4.1269,-4.1336,-4.1336,-4.1336,-4.1336,-4.1336,-4.1229,-4.1203,-4.1203,-4.1096,-4.1016,-4.0922,-4.0922,-4.11,-4.0775,-4.0775,-4.1033,0.0,-3.0115,-3.2018,-3.2732,-3.2498,-3.2392,-3.2351,-3.2546,-3.2781,-3.2481,-3.2877,-3.3337,-3.2904,-3.3745,-3.4206,-3.3473,-3.4456,-3.5211,-3.5152,-3.5511,-3.5765,-3.5712,-3.65,0.0,0.0,0.0,0.0,-3.6941,-3.6945,-3.688,-3.688,-3.7237,-3.7436,-3.7461,-3.8224,-3.8801,-3.8668,-3.86,-3.8694,-3.8694,-3.8624,-3.8611,-3.8437,-3.8624,-3.8798,-3.8878,-3.8865,-3.8945,-3.9052,-3.9052,-3.9159,-3.9292,-3.9319,-3.9426,-3.9349,-3.9613,-3.9864,-3.9823,-3.9386,-3.9306,-3.9372,-3.9666,-3.9746,-3.9813,-4.0107,-4.0174,-4.0214,-4.0441,-4.0481,-4.0481,-4.0481,-4.0481,-4.0508,-4.0601,-4.0601,-4.0398,-4.0491,-4.0405,-4.051,-4.1056,-4.1189,-4.1075,-4.1075,-4.1075,-4.1075,-4.1075,-4.1029,-4.1114,-4.0796,-4.1056,-4.1136,-4.131,-4.1195,-4.1221,-4.1221,-4.159,-4.167,-4.167,-4.167,-4.167,-4.167,-4.1563,-4.1497,-4.1497,-4.1376,-4.1336,-4.1336,-4.1336,-4.1336,-4.1075,-4.1075,-4.1336,-2.9065,-3.084,-3.3345,-3.34,-3.3466,-3.3462,-3.3475,-3.3462,-3.3594,-3.346,-3.3547,-3.3172,0.0,0.0,-3.3409,-3.3422,-3.4413,-3.5321,-3.5239,-3.6329,-3.6938,0.0,0.0,0.0,0.0,0.0,0.0,-3.6967,0.0,-3.688,-3.692,-3.8167,-3.8733,-3.8762,-3.8803,-3.8694,-3.8718,-3.8718,-3.8718,-3.8758,-3.8758,-3.8758,-3.8758,-3.8758,-3.8905,-3.9212,-3.9199,-3.9346,-3.9599,-3.9599,-3.9586,-3.9362,-3.9362,-3.9375,-3.964,-3.964,-3.964,-3.964,-3.964,-3.964,-3.9666,-3.996,-4.0067,-4.0107,-4.0401,-4.0508,-4.0508,-4.0508,-4.0508,-4.0508,-4.0508,-4.0508,-4.0575,-4.0584,-4.065,-4.0484,-4.0695,-4.0513,-4.0827,-4.1953,-4.2228,-4.2228,-4.2228,-4.2228,-4.2228,-4.2228,-4.2228,-4.1926,-4.0814,-4.1088,-4.1376,-4.1376,-4.1354,-4.1263,-4.1263,-4.1792,-4.2218,-4.2218,-4.2218,-4.2218,-4.2218,-4.1964,-4.1817,-4.1817,-4.1523,-4.1376,-4.1376,-4.1376,-4.1376,-4.1376,-4.1376,-4.1376,-3.1591,-3.2624,-3.3541,-3.4531,-3.483,-3.4733,-3.4716,-3.4828,-3.472,-3.4649,-3.4706,-3.4413,0.0,0.0,0.0,-3.355,-3.5133,0.0,-3.6517,-3.6651,0.0,0.0,0.0,-3.6874,-3.6941,-3.6941,0.0,0.0,-3.6841,-3.7237,-3.8222,-3.8519,-3.8803,-3.8597,-3.8624,-3.8664,-3.8718,-3.8718,-3.8685,-3.8598,-3.8636,-3.8636,-3.8598,-3.8598,-3.8874,-3.8953,-3.9229,-3.9533,-3.9599,-3.9599,-3.9481,-3.9402,-3.9402,-3.98,-4.0254,-4.0254,-4.0254,-4.0254,-4.0254,-4.0094,-3.9694,-4.0254,-4.0361,-4.0401,-4.0735,-4.106,-4.0855,-4.1042,-4.0863,-4.0849,-4.0576,-4.0563,-4.0563,-4.0382,-4.1229,-4.1831,-4.1899,-4.1812,-4.1947,-4.2223,-4.2148,-4.2283,-4.2283,-4.2283,-4.2283,-4.2283,-4.2283,-4.2202,-4.1724,-4.1947,-4.2027,-4.1964,-4.2058,-4.2098,-4.2098,-4.2178,-4.2218,-4.2218,-4.2218,-4.2218,-4.2218,-4.2151,-4.2111,-4.2111,-4.2031,-4.2004,-4.2004,-4.2004,-4.2004,-4.2004,-4.2004,-4.2004,-3.3494,-3.4272,-3.4289,-3.499,-3.5306,-3.5166,-3.5279,-3.5143,-3.4966,-3.4463,-3.4095,0.0,0.0,0.0,0.0,0.0,0.0,0.0,-3.684,-3.6934,-3.7001,0.0,-3.6941,0.0,-3.6941,-3.6812,-3.6945,0.0,-3.6973,-3.745,-3.8532,-3.8803,-3.8788,-3.8718,-3.8592,-3.8711,-3.8804,-3.9145,-3.9265,-3.8782,-3.9163,-3.9452,-3.9586,-3.9586,-3.9415,-3.9508,0.0,-3.984,-4.0,-4.0,-4.0067,-3.9946,-3.9946,-4.0308,-4.0481,-4.0601,-4.0398,-4.0424,-4.0517,-4.022,-4.0062,-4.0385,-4.0398,-4.0464,-4.0743,-4.1082,-4.1136,-4.1296,-4.1075,-4.1075,-4.0801,-4.0774,-4.054,-4.0383,-4.1261,-4.2142,-4.2264,-4.2148,-4.2242,-4.2242,-4.2124,-4.2218,-4.2218,-4.2218,-4.2218,-4.2218,-4.2218,-4.2151,-4.2283,-4.2242,-4.231,-4.2218,-4.2218,-4.2218,-4.2218,-4.2218,-4.2285,-4.2124,-4.2405,-4.2472,-4.2565,-4.2472,-4.2405,-4.2405,-4.2285,-4.2218,-4.2218,-4.2218,-4.2218,-4.2218,-4.2218,-4.2218,-3.4843,-3.5115,-3.5274,-3.5274,-3.524,-3.5267,-3.517,-3.4966,-3.449,-3.344,0.0,0.0,-3.173,0.0,-3.2708,-3.4768,0.0,-3.695,-3.7001,-3.6901,-3.6941,-3.6941,-3.6941,-3.6941,-3.6967,-3.6972,-3.692,-3.7224,-3.7224,-3.7501,-3.8533,-3.8597,-3.8784,-3.8592,-3.8831,-3.8821,-3.8873,-3.9917,-3.9917,-3.8913,-3.9944,-4.0487,-4.0515,-4.0515,-4.0412,-4.0388,0.0,0.0,-4.0481,-4.0481,-4.0481,-4.0481,-4.0481,-4.0508,-4.0535,-4.0517,-4.0663,-4.0743,-4.0722,-4.0774,-4.0748,-4.051,-4.069,-4.0743,-4.0748,-4.1128,-4.1416,-4.1456,-4.1456,-4.1456,-4.1456,-4.1168,-4.0684,-4.0657,-4.1566,-4.2216,-4.2151,-4.2218,-4.2218,-4.2218,-4.2245,-4.2285,-4.2285,-4.2285,-4.2285,-4.2285,-4.2245,-4.2218,-4.2245,-4.2285,-4.2285,-4.2285,-4.2312,-4.2312,-4.2312,-4.2312,-4.2151,-4.2121,-4.2726,-4.2846,-4.2801,-4.2833,-4.2726,-4.2726,-4.2458,-4.2312,-4.2325,-4.2325,-4.2325,-4.2325,-4.2325,-4.2325,-3.477,-3.5106,-3.5124,-3.5124,-3.5164,-3.5267,-3.517,-3.3718,0.0,0.0,0.0,-3.1779,-3.1684,0.0,0.0,-3.4896,0.0,0.0,0.0,0.0,-3.6941,0.0,0.0,0.0,0.0,0.0,0.0,0.0,0.0,0.0,-3.8762,-3.8784,-3.8676,-3.8663,-3.9743,-4.0209,-4.0226,-4.0501,-4.0398,-4.0066,-4.0347,-4.0601,-4.0589,-4.0589,-4.0374,-4.0414,-4.0401,0.0,-4.0481,-4.0481,-4.0481,-4.0481,-4.0481,-4.0601,-4.0557,-4.0584,-4.1056,-4.1845,-4.1913,-4.1913,-4.1638,-4.0722,-4.1256,-4.1872,-4.1893,-4.1987,-4.2027,-4.2004,-4.2071,-4.2071,-4.2071,-4.2058,-4.1805,-4.1872,-4.2138,-4.2151,-4.2218,-4.2218,-4.2218,-4.2218,-4.2124,-4.2284,-4.2284,-4.2284,-4.2284,-4.2284,-4.2098,-4.2285,-4.2257,-4.2284,-4.2284,-4.2284,-4.2226,-4.2088,-4.2088,-4.2088,-4.2088,-4.2153,-4.3304,-4.363,-4.3086,-4.306,-4.2735,-4.2424,-4.2127,-4.2371,-4.2655,-4.2655,-4.2669,-4.2953,-4.2953,-4.2953,-3.4977,-3.5106,-3.5191,-3.5191,-3.5191,-3.52,-3.5211,0.0,0.0,0.0,0.0,-3.1713,-3.1653,0.0,0.0,0.0,0.0,0.0,0.0,0.0,0.0,0.0,0.0,0.0,0.0,0.0,0.0,0.0,0.0,0.0,-3.8718,-3.942,-3.9546,-3.9561,-4.0105,-4.0506,-4.0522,-4.0401,-4.0455,-4.0481,-4.0589,-4.0589,-4.0481,-4.0481,-4.0481,-4.0481,-4.0481,0.0,-4.0481,-4.0481,-4.0481,-4.0481,-4.0398,-4.0517,-4.0663,-4.1229,-4.1732,-4.2169,-4.2305,-4.2081,-4.2068,-4.1513,-4.171,-4.221,-4.2216,-4.2283,-4.231,-4.2191,-4.2218,-4.2218,-4.2218,-4.2218,-4.2218,-4.2218,-4.2218,-4.2218,-4.2218,-4.2218,-4.2245,-4.2124,-4.2257,-4.2403,-4.3156,-4.317,-4.2886,-4.2292,-4.2187,-4.216,-4.2279,-4.2735,-4.3073,-4.3197,-4.3033,-4.31,-4.31,-4.31,-4.3167,-4.3027,-4.3613,-4.3968,-4.3567,-4.3694,-4.3327,-4.3027,-4.2868,-4.2801,-4.3073,-4.3073,-4.3086,-4.31,-4.31,-4.31,-3.5156,-3.5092,-3.5191,-3.5191,-3.5191,-3.5133,-3.5285,-3.3374,0.0,0.0,0.0,0.0,0.0,0.0,0.0,0.0,0.0,0.0,0.0,0.0,0.0,0.0,0.0,0.0,0.0,0.0,0.0,0.0,0.0,0.0,-3.8977,-4.006,-4.061,-4.0401,-4.0428,-4.0522,-4.0481,-4.0481,-4.0481,-4.0481,-4.0481,-4.0481,-4.0481,-4.0481,-4.0481,-4.0481,-4.0481,0.0,0.0,-4.0535,-4.0575,-4.0575,-4.0584,-4.0756,-4.0889,-4.188,-4.2122,-4.2175,-4.2151,-4.2218,-4.2218,-4.2218,-4.2084,-4.2216,-4.2151,-4.2245,-4.2312,-4.2312,-4.2098,-4.2124,-4.2124,-4.2124,-4.2124,-4.2312,-4.2245,-4.2218,-4.2218,-4.2245,-4.2098,-4.231,-4.2469,-4.2913,-4.3738,-4.4078,-4.3778,-4.2635,-4.2556,-4.2556,-4.2583,-4.3394,-4.4049,-4.3913,-4.3886,-4.3886,-4.3886,-4.3886,-4.3981,-4.3909,-4.3949,-4.4043,-4.4008,-4.4043,-4.3949,-4.3949,-4.3434,-4.3273,-4.3273,-4.3273,-4.3273,-4.3273,-4.3273,-4.3287,-3.4897,-3.5164,-3.5191,-3.5191,-3.5191,-3.5133,-3.5111,0.0,0.0,0.0,0.0,0.0,0.0,0.0,0.0,0.0,0.0,0.0,0.0,0.0,0.0,0.0,0.0,0.0,0.0,0.0,0.0,0.0,0.0,0.0,0.0,-4.0398,-4.0428,-4.0441,-4.0441,-4.0441,-4.0481,-4.0481,-4.0481,-4.0481,-4.0481,-4.0481,-4.0481,-4.0481,-4.0481,-4.0481,-4.0481,0.0,0.0,-4.0491,-4.0584,-4.0624,-4.0382,-4.1168,-4.2001,-4.2041,-4.2242,-4.2191,-4.2218,-4.2218,-4.2218,-4.2218,-4.2191,-4.2191,-4.2218,-4.2124,-4.231,-4.231,-4.2226,-4.2153,-4.2153,-4.2153,-4.2088,-4.2121,-4.2124,-4.2218,-4.2218,-4.2151,-4.231,-4.2094,-4.3086,-4.3761,-4.4076,-4.4076,-4.4076,-4.3802,-4.3859,-4.3792,-4.3761,-4.3842,-4.3949,-4.3901,-4.3941,-4.3941,-4.3941,-4.3941,-4.3941,-4.3968,-4.3968,-4.3968,-4.4008,-4.3968,-4.3968,-4.3968,-4.3928,-4.3928,-4.3928,-4.3928,-4.3928,-4.3928,-4.3928,-4.3928,-3.502,-3.5261,-3.5191,-3.5191,-3.5191,-3.5133,-3.5111,0.0,0.0,0.0,0.0,0.0,0.0,0.0,0.0,0.0,0.0,0.0,0.0,0.0,0.0,0.0,0.0,0.0,0.0,0.0,0.0,0.0,0.0,0.0,0.0,-4.0574,-4.0374,-4.0481,-4.0481,-4.0481,-4.0481,-4.0481,-4.0481,-4.0481,-4.0481,-4.0481,-4.0481,-4.0481,-4.0481,-4.0481,-4.0481,0.0,0.0,-4.0584,-4.1002,-4.149,-4.1497,-4.1684,-4.2122,-4.2242,-4.2124,-4.2218,-4.2218,-4.2218,-4.2218,-4.2218,-4.2218,-4.2218,-4.2218,-4.2151,-4.2363,-4.2968,-4.3183,-4.3371,-4.3371,-4.3371,-4.306,-4.2371,-4.2253,-4.216,-4.216,-4.2253,-4.2398,-4.3167,-4.3681,-4.3909,-4.407,-4.4111,-4.4111,-4.4111,-4.4003,-4.3976,-4.407,-4.4111,-4.3875,-4.4008,-4.4008,-4.4008,-4.4008,-4.4008,-4.4008,-4.4008,-4.4008,-4.4008,-4.4008,-4.4008,-4.4008,-4.4008,-4.4008,-4.4008,-4.4008,-4.4008,-4.4008,-4.4008,-4.4008,-4.4008,-3.498,-3.5292,-3.5097,-3.5177,-3.5294,-3.5179,0.0,0.0,0.0,0.0,0.0,0.0,0.0,0.0,0.0,0.0,0.0,0.0,0.0,0.0,0.0,0.0,0.0,0.0,0.0,0.0,0.0,0.0,0.0,0.0,0.0,-4.0428,-4.0481,-4.0481,-4.0481,-4.0481,-4.0481,-4.0481,-4.0481,-4.0481,-4.0481,-4.0481,-4.0481,-4.0481,-4.0481,-4.0481,0.0,0.0,0.0,-4.0849,-4.1363,-4.221,-4.2122,-4.2216,-4.2216,-4.2151,-4.2218,-4.2218,-4.2218,-4.2218,-4.2218,-4.2218,-4.2218,-4.2218,-4.2312,-4.2257,-4.2509,-4.3738,-4.401,-4.3941,-4.3941,-4.3886,-4.3819,-4.2948,-4.2855,-4.2788,-4.2788,-4.2855,-4.2987,-4.3802,-4.3909,-4.4043,-4.3968,-4.4008,-4.4008,-4.4008,-4.4008,-4.4008,-4.4008,-4.4008,-4.4008,-4.4008,-4.4008,-4.4008,-4.4008,-4.4008,-4.4008,-4.4008,-4.4008,-4.4008,-4.4008,-4.4008,-4.4008,-4.4008,-4.4008,-4.4008,-4.4008,-4.4008,-4.4008,-4.4008,-4.4008,-4.4008,-3.4649,-3.522,-3.5288,-3.5137,-3.5234,-3.5185,0.0,0.0,0.0,0.0,0.0,0.0,0.0,-3.2545,-3.3478,-3.3413,-3.4309,0.0,0.0,0.0,0.0,0.0,0.0,0.0,0.0,0.0,0.0,0.0,0.0,0.0,0.0,-4.0428,-4.0481,-4.0481,-4.0481,-4.0481,-4.0481,-4.0481,-4.0481,-4.0481,-4.0481,-4.0481,-4.0481,-4.0481,-4.0481,0.0,0.0,0.0,0.0,-4.1644,-4.2216,-4.2218,-4.2218,-4.2218,-4.2218,-4.2218,-4.2218,-4.2218,-4.2218,-4.2218,-4.2218,-4.2218,-4.2218,-4.2245,-4.2257,-4.2253,-4.2569,-4.3748,-4.4043,-4.4008,-4.4008,-4.4043,-4.4103,-4.4103,-4.3913,-4.3969,-4.3969,-4.3913,-4.4103,-4.4103,-4.407,-4.4008,-4.4008,-4.4008,-4.4008,-4.4008,-4.4008,-4.4008,-4.4008,-4.4008,-4.4008,-4.4008,-4.4008,-4.4008,-4.4008,-4.4008,-4.4008,-4.4008,-4.4008,-4.4008,-4.4008,-4.4008,-4.4008,-4.4008,-4.4008,-4.4008,-4.4008,-4.4008,-4.4008,-4.4008,-4.4008,-4.4008,-3.3842,-3.4598,-3.5183,-3.5279,-3.524,-3.4802,-3.316,0.0,0.0,0.0,0.0,0.0,0.0,-3.1998,-3.2247,-3.215,-3.3835,-3.4993,0.0,0.0,0.0,0.0,0.0,0.0,0.0,0.0,0.0,0.0,0.0,0.0,0.0,-4.0522,-4.0481,-4.0481,-4.0398,-4.0491,-4.0491,-4.0431,-4.0497,-4.0497,-4.0497,-4.0497,-4.0497,-4.0497,0.0,0.0,0.0,0.0,0.0,-4.2955,-4.2935,-4.2217,-4.2285,-4.2218,-4.2218,-4.2218,-4.2218,-4.2218,-4.2218,-4.2218,-4.2218,-4.2218,-4.2098,-4.2284,-4.2279,-4.2735,-4.3492,-4.399,-4.3941,-4.4008,-4.4008,-4.3941,-4.3875,-4.3875,-4.407,-4.4003,-4.4003,-4.407,-4.3875,-4.3875,-4.3941,-4.4008,-4.4008,-4.4008,-4.4008,-4.4008,-4.4008,-4.4008,-4.4008,-4.4008,-4.4008,-4.4008,-4.4008,-4.4008,-4.4008,-4.4008,-4.4008,-4.4008,-4.4008,-4.4008,-4.4008,-4.4008,-4.4008,-4.4008,-4.4008,-4.4008,-4.4008,-4.4008,-4.4008,-4.4008,-4.4008,-4.393,0.0,-3.4044,-3.4503,-3.4501,-3.4612,0.0,0.0,0.0,0.0,0.0,0.0,0.0,0.0,-3.168,-3.1764,-3.2328,-3.4416,-3.5782,0.0,0.0,0.0,0.0,0.0,0.0,0.0,0.0,0.0,0.0,0.0,0.0,0.0,-4.0589,-4.0508,-4.0601,-4.0517,-4.0637,-4.1181,-4.1189,-4.1075,-4.1075,-4.1075,-4.1075,-4.1075,-4.1075,0.0,0.0,0.0,0.0,0.0,-4.3481,-4.3365,-4.231,-4.2312,-4.2218,-4.2218,-4.2218,-4.2218,-4.2218,-4.2218,-4.2218,-4.2218,-4.2218,-4.2485,-4.2873,-4.2881,-4.3354,-4.4103,-4.3901,-4.4008,-4.4008,-4.4008,-4.4008,-4.4008,-4.4008,-4.4008,-4.4008,-4.4008,-4.4008,-4.4008,-4.4008,-4.4008,-4.4008,-4.4008,-4.4008,-4.4008,-4.4008,-4.4008,-4.4008,-4.4008,-4.4008,-4.4008,-4.4008,-4.4008,-4.4008,-4.4008,-4.4008,-4.4008,-4.4008,-4.4008,-4.4008,-4.4008,-4.4008,-4.4008,-4.4008,-4.4008,-4.4008,-4.4008,-4.4008,-4.4008,-4.4008,-4.4008,-4.3904,0.0,0.0,0.0,0.0,0.0,0.0,0.0,0.0,0.0,0.0,0.0,0.0,0.0,0.0,-3.2198,-3.3211,-3.5319,-3.72,0.0,0.0,0.0,0.0,0.0,0.0,0.0,0.0,0.0,0.0,0.0,0.0,0.0,-4.0589,-4.0601,-4.0624,-4.0663,-4.1208,-4.2107,-4.2133,-4.2255,-4.2255,-4.2255,-4.2255,-4.2255,-4.2255,0.0,0.0,0.0,0.0,0.0,-4.3379,-4.3262,-4.231,-4.2312,-4.2218,-4.2218,-4.2218,-4.2218,-4.2218,-4.2218,-4.2218,-4.2218,-4.2245,-4.2955,-4.4037,-4.4049,-4.407,-4.4008,-4.4008,-4.4008,-4.4008,-4.4008,-4.4008,-4.4008,-4.4008,-4.4008,-4.4008,-4.4008,-4.4008,-4.4008,-4.4008,-4.4008,-4.4008,-4.4008,-4.4008,-4.4008,-4.4008,-4.4008,-4.4008,-4.4008,-4.4008,-4.4008,-4.4008,-4.4008,-4.4008,-4.4008,-4.4008,-4.4008,-4.4008,-4.4008,-4.4008,-4.4008,-4.4008,-4.4008,-4.4008,-4.4008,-4.4008,-4.4008,-4.4008,-4.4008,-4.4008,-4.4008,-4.4008,0.0,0.0,0.0,0.0,0.0,0.0,0.0,0.0,0.0,0.0,0.0,0.0,0.0,0.0,0.0,-3.2175,-3.3967,-3.5616,0.0,0.0,0.0,0.0,0.0,0.0,0.0,0.0,0.0,0.0,0.0,0.0,0.0,-4.0441,-4.0601,-4.0624,-4.1396,-4.1913,-4.2142,-4.2148,-4.2283,-4.2283,-4.2283,-4.2283,-4.2283,-4.2283,0.0,0.0,0.0,0.0,-4.2257,-4.2605,-4.2405,-4.231,-4.2312,-4.2218,-4.2218,-4.2218,-4.2218,-4.2218,-4.2218,-4.2218,-4.2285,-4.216,-4.3113,-4.4076,-4.407,-4.3941,-4.4008,-4.4008,-4.4008,-4.4008,-4.4008,-4.4008,-4.4008,-4.4008,-4.4008,-4.4008,-4.4008,-4.4008,-4.4008,-4.4008,-4.4008,-4.4008,-4.4008,-4.4008,-4.4008,-4.4008,-4.4008,-4.4008,-4.4008,-4.4008,-4.4008,-4.4008,-4.4008,-4.4008,-4.4008,-4.4008,-4.4008,-4.4008,-4.4008,-4.4008,-4.4008,-4.4008,-4.4008,-4.4008,-4.4008,-4.4008,-4.4008,-4.4008,-4.4008,-4.4008,-4.4008,-4.4102,0.0,0.0,0.0,0.0,0.0,0.0,0.0,0.0,0.0,0.0,0.0,0.0,0.0,0.0,0.0,0.0,-3.3914,0.0,0.0,0.0,0.0,0.0,0.0,0.0,0.0,0.0,0.0,0.0,0.0,0.0,0.0,-4.0481,-4.0398,-4.0537,-4.1557,-4.2323,-4.2081,-4.2084,-4.2218,-4.2218,-4.2218,-4.2218,-4.2218,-4.2218,-4.2218,0.0,0.0,0.0,-4.2151,-4.2285,-4.2312,-4.2151,-4.2285,-4.2218,-4.2218,-4.2218,-4.2218,-4.2218,-4.2218,-4.2285,-4.223,-4.2801,-4.3394,-4.3909,-4.3901,-4.4008,-4.4008,-4.4008,-4.4008,-4.4008,-4.4008,-4.4008,-4.4008,-4.4008,-4.4008,-4.4008,-4.4008,-4.4008,-4.4008,-4.4008,-4.4008,-4.4008,-4.4008,-4.4008,-4.4008,-4.4008,-4.4008,-4.4008,-4.4008,-4.4008,-4.4008,-4.4008,-4.4008,-4.4008,-4.4008,-4.4008,-4.4008,-4.4008,-4.4008,-4.4008,-4.4008,-4.4008,-4.4008,-4.4008,-4.4008,-4.4008,-4.4008,-4.4008,-4.4008,-4.4008,-4.4008,-4.4062,0.0,0.0,0.0,0.0,0.0,0.0,0.0,0.0,0.0,0.0,0.0,0.0,0.0,0.0,0.0,0.0,0.0,0.0,0.0,0.0,0.0,0.0,0.0,0.0,0.0,0.0,0.0,0.0,0.0,0.0,0.0,-4.0481,-4.0451,-4.0474,-4.1624,-4.2323,-4.2148,-4.2124,-4.2218,-4.2218,-4.2218,-4.2218,-4.2218,-4.2218,-4.2218,0.0,0.0,0.0,-4.2218,-4.2218,-4.2218,-4.2218,-4.2218,-4.2218,-4.2218,-4.2218,-4.2218,-4.2218,-4.2245,-4.223,-4.2589,-4.3681,-4.3882,-4.3949,-4.3941,-4.4008,-4.4008,-4.4008,-4.4008,-4.4008,-4.4008,-4.4008,-4.4008,-4.4008,-4.4008,-4.4008,-4.4008,-4.4008,-4.4008,-4.4008,-4.4008,-4.4008,-4.4008,-4.4008,-4.4008,-4.4008,-4.4008,-4.4008,-4.4008,-4.4008,-4.4008,-4.4008,-4.4008,-4.4008,-4.4008,-4.4008,-4.4008,-4.4008,-4.4008,-4.4008,-4.4008,-4.4008,-4.4008,-4.4008,-4.4008,-4.4008,-4.4008,-4.4008,-4.4008,-4.4008,-4.4008,-4.4035,0.0,0.0,0.0,0.0,0.0,0.0,0.0,0.0,0.0,0.0,0.0,0.0,0.0,0.0,0.0,0.0,0.0,0.0,0.0,0.0,0.0,0.0,0.0,0.0,0.0,0.0,0.0,0.0,0.0,0.0,0.0,0.0,-4.0451,-4.0474,-4.1624,-4.2169,-4.2151,-4.2191,-4.2218,-4.2218,-4.2218,-4.2218,-4.2218,-4.2218,-4.2218,0.0,0.0,-4.2218,-4.2218,-4.2218,-4.2218,-4.2218,-4.2218,-4.2218,-4.2218,-4.2218,-4.2218,-4.2245,-4.2217,-4.2939,-4.3721,-4.4062,-4.4003,-4.3941,-4.4008,-4.4008,-4.4008,-4.4008,-4.4008,-4.4008,-4.4008,-4.4008,-4.4008,-4.4008,-4.4008,-4.4008,-4.4008,-4.4008,-4.4008,-4.4008,-4.4008,-4.4008,-4.4008,-4.4008,-4.4008,-4.4008,-4.4008,-4.4008,-4.4008,-4.4008,-4.4008,-4.4008,-4.4008,-4.4008,-4.4008,-4.4008,-4.4008,-4.4008,-4.4008,-4.4008,-4.4008,-4.4008,-4.4008,-4.4008,-4.4008,-4.4008,-4.4008,-4.4008,-4.4008,-4.4008,-4.4008,-4.4129,0.0,0.0,0.0,0.0,0.0,0.0,0.0,0.0,0.0,0.0,0.0,0.0,0.0,0.0,0.0,0.0,0.0,0.0,0.0,0.0,0.0,0.0,0.0,0.0,0.0,0.0,0.0,0.0,0.0,0.0,0.0,0.0,-4.0451,-4.0474,-4.1624,-4.221,-4.2218,-4.2218,-4.2218,-4.2218,-4.2218,-4.2218,-4.2218,-4.2218,-4.2218,-4.2218,0.0,-4.2218,-4.2218,-4.2218,-4.2218,-4.2218,-4.2218,-4.2218,-4.2218,-4.2218,-4.2312,-4.223,-4.3076,-4.3466,-4.3882,-4.4003,-4.3901,-4.4008,-4.4008,-4.4008,-4.4008,-4.4008,-4.4008,-4.4008,-4.4008,-4.4008,-4.4008,-4.4008,-4.4008,-4.4008,-4.4008,-4.4008,-4.4008,-4.4008,-4.4008,-4.4008,-4.4008,-4.4008,-4.4008,-4.4008,-4.4008,-4.4008,-4.4008,-4.4008,-4.4008,-4.4008,-4.4008,-4.4008,-4.4008,-4.4008,-4.4008,-4.4008,-4.4008,-4.4008,-4.4008,-4.4008,-4.4008,-4.4008,-4.4008,-4.4008,-4.4008,-4.4008,-4.4008,-4.4008,-4.4129,-4.3997,0.0,0.0,0.0,0.0,0.0,0.0,0.0,0.0,0.0,0.0,0.0,0.0,0.0,0.0,0.0,0.0,0.0,0.0,0.0,0.0,0.0,0.0,0.0,0.0,0.0,0.0,0.0,0.0,0.0,0.0,0.0,0.0,-4.0451,-4.0474,-4.1624,-4.221,-4.2218,-4.2218,-4.2218,-4.2218,-4.2218,-4.2218,-4.2218,-4.2218,-4.2218,-4.2218,-4.2218,-4.2218,-4.2218,-4.2218,-4.2218,-4.2218,-4.2218,-4.2218,-4.2218,-4.2285,-4.2217,-4.2496,-4.367,-4.3981,-4.3976,-4.3941,-4.4008,-4.4008,-4.4008,-4.4008,-4.4008,-4.4008,-4.4008,-4.4008,-4.4008,-4.4008,-4.4008,-4.4008,-4.4008,-4.4008,-4.4008,-4.4008,-4.4008,-4.4008,-4.4008,-4.4008,-4.4008,-4.4008,-4.4008,-4.4008,-4.4008,-4.4008,-4.4008,-4.4008,-4.4008,-4.4008,-4.4008,-4.4008,-4.4008,-4.4008,-4.4008,-4.4008,-4.4008,-4.4008,-4.4008,-4.4008,-4.4008,-4.4008,-4.4008,-4.4008,-4.4008,-4.4008,-4.4008,-4.4008,-4.3997,-4.4169,-2.8284,-2.9234,0.0,0.0,0.0,0.0,0.0,0.0,0.0,0.0,0.0,0.0,0.0,0.0,0.0,0.0,0.0,0.0,0.0,0.0,0.0,0.0,0.0,0.0,0.0,0.0,0.0,0.0,0.0,0.0,0.0,0.0,0.0,-4.0474,-4.1624,-4.221,-4.2218,-4.2218,-4.2218,-4.2218,-4.2218,-4.2218,-4.2218,-4.2218,-4.2218,-4.2218,-4.2218,-4.2218,-4.2218,-4.2218,-4.2218,-4.2218,-4.2218,-4.2218,-4.2245,-4.2217,-4.2226,-4.249,-4.3667,-4.4003,-4.3968,-4.4008,-4.4008,-4.4008,-4.4008,-4.4008,-4.4008,-4.4008,-4.4008,-4.4008,-4.4008,-4.4008,-4.4008,-4.4008,-4.4008,-4.4008,-4.4008,-4.4008,-4.4008,-4.4008,-4.4008,-4.4008,-4.4008,-4.4008,-4.4008,-4.4008,-4.4008,-4.4008,-4.4008,-4.4008,-4.4008,-4.4008,-4.4008,-4.4008,-4.4008,-4.4008,-4.4008,-4.4008,-4.4008,-4.4008,-4.4008,-4.4008,-4.4008,-4.4008,-4.4008,-4.4008,-4.4008,-4.4008,-4.4008,-4.4008,-4.3997,-4.4583,-2.9272,-2.9119,0.0,0.0,0.0,0.0,0.0,0.0,0.0,0.0,0.0,0.0,0.0,0.0,0.0,0.0,0.0,0.0,0.0,0.0,0.0,0.0,0.0,0.0,0.0,0.0,0.0,0.0,0.0,0.0,0.0,0.0,0.0,-4.0474,-4.1624,-4.221,-4.2218,-4.2218,-4.2218,-4.2218,-4.2218,-4.2218,-4.2218,-4.2218,-4.2218,-4.2218,-4.2218,-4.2218,-4.2218,-4.2218,-4.2218,-4.2218,-4.2218,-4.2312,-4.2217,-4.231,-4.2655,-4.338,-4.3802,-4.4043,-4.4008,-4.4008,-4.4008,-4.4008,-4.4008,-4.4008,-4.4008,-4.4008,-4.4008,-4.4008,-4.4008,-4.4008,-4.4008,-4.4008,-4.4008,-4.4008,-4.4008,-4.4008,-4.4008,-4.4008,-4.4008,-4.4008,-4.4008,-4.4008,-4.4008,-4.4008,-4.4008,-4.4008,-4.4008,-4.4008,-4.4008,-4.4008,-4.4008,-4.4008,-4.4008,-4.4008,-4.4008,-4.4008,-4.4008,-4.4008,-4.4008,-4.4008,-4.4008,-4.4008,-4.4008,-4.4062,-4.3957,-4.3957,-4.4063,-4.3955,-4.3938,-4.474,0.0,0.0,0.0,0.0,0.0,0.0,0.0,0.0,0.0,0.0,0.0,0.0,0.0,0.0,0.0,0.0,0.0,0.0,0.0,0.0,0.0,0.0,0.0,0.0,0.0,0.0,0.0,0.0,0.0,0.0,0.0,0.0,0.0,0.0,-4.1624,-4.221,-4.2218,-4.2218,-4.2218,-4.2218,-4.2218,-4.2218,-4.2218,-4.2218,-4.2218,-4.2218,-4.2218,-4.2245,-4.2098,-4.2245,-4.2245,-4.2098,-4.2191,-4.231,-4.2226,-4.2616,-4.3207,-4.4103,-4.3949,-4.4111,-4.4008,-4.4008,-4.4008,-4.4008,-4.4008,-4.4008,-4.4008,-4.4008,-4.4008,-4.4008,-4.4008,-4.4008,-4.4008,-4.4008,-4.4008,-4.4008,-4.4008,-4.4008,-4.4008,-4.4008,-4.4008,-4.4008,-4.4008,-4.4008,-4.4008,-4.4008,-4.4008,-4.4008,-4.4008,-4.4008,-4.4008,-4.4008,-4.4008,-4.4008,-4.4008,-4.4008,-4.4008,-4.4008,-4.4008,-4.4008,-4.4008,-4.4008,-4.4008,-4.4008,-4.4062,-4.393,-4.413,-4.4262,-4.4408,-4.4568,-4.4549,-4.5006,0.0,0.0,0.0,0.0,0.0,0.0,0.0,0.0,0.0,0.0,0.0,0.0,0.0,0.0,0.0,0.0,0.0,0.0,0.0,0.0,0.0,0.0,0.0,0.0,0.0,0.0,0.0,0.0,0.0,0.0,0.0,0.0,0.0,0.0,-4.1624,-4.221,-4.2218,-4.2218,-4.2218,-4.2218,-4.2218,-4.2218,-4.2218,-4.2218,-4.2218,-4.2218,-4.2218,-4.2124,-4.231,-4.2098,-4.2124,-4.2121,-4.2127,-4.2219,-4.2271,-4.3434,-4.4103,-4.3882,-4.3901,-4.4008,-4.4008,-4.4008,-4.4008,-4.4008,-4.4008,-4.4008,-4.4008,-4.4008,-4.4008,-4.4008,-4.4008,-4.4008,-4.4008,-4.4008,-4.4008,-4.4008,-4.4008,-4.4008,-4.4008,-4.4008,-4.4008,-4.4008,-4.4008,-4.4008,-4.4008,-4.4008,-4.4008,-4.4008,-4.4008,-4.4008,-4.4008,-4.4008,-4.4008,-4.4008,-4.4008,-4.4008,-4.4008,-4.4008,-4.4008,-4.4008,-4.4008,-4.4008,-4.4008,-4.4008,-4.3997,-4.413,-4.413,-4.5051,-4.5778,-4.5778,-4.5779,-4.5629,0.0,0.0,0.0,0.0,0.0,0.0,0.0,0.0,0.0,0.0,0.0,0.0,0.0,0.0,0.0,0.0,0.0,0.0,0.0,0.0,0.0,0.0,0.0,0.0,0.0,0.0,0.0,0.0,0.0,0.0,0.0,0.0,0.0,0.0,-4.1624,-4.221,-4.2218,-4.2218,-4.2218,-4.2218,-4.2151,-4.2124,-4.2218,-4.2218,-4.2312,-4.2217,-4.2217,-4.2121,-4.2088,-4.2279,-4.2602,-4.3562,-4.3358,-4.3492,-4.3434,-4.3802,-4.3976,-4.3901,-4.3968,-4.4008,-4.4008,-4.4008,-4.4008,-4.4008,-4.4008,-4.4008,-4.4008,-4.4008,-4.4008,-4.4008,-4.4008,-4.4008,-4.4008,-4.4008,-4.4008,-4.4008,-4.4008,-4.4008,-4.4008,-4.4008,-4.4008,-4.4008,-4.4008,-4.4008,-4.4008,-4.4008,-4.4008,-4.4008,-4.4008,-4.4008,-4.4008,-4.4008,-4.4008,-4.4008,-4.4008,-4.4008,-4.4008,-4.4008,-4.4008,-4.4008,-4.4008,-4.4008,-4.4102,-4.3997,-4.409,-4.4355,-4.5077,-4.5455,-4.5603,-4.5791,-4.5585,-4.5611,0.0,0.0,0.0,0.0,0.0,0.0,0.0,0.0,0.0,0.0,0.0,0.0,0.0,0.0,0.0,0.0,0.0,0.0,0.0,0.0,0.0,0.0,0.0,0.0,0.0,0.0,0.0,0.0,0.0,0.0,0.0,0.0,0.0,0.0,-4.1718,-4.2305,-4.2218,-4.2218,-4.2285,-4.2124,-4.2284,-4.235,-4.2874,-4.231,-4.2094,-4.2253,-4.2669,-4.3006,-4.2841,-4.3041,-4.338,-4.3886,-4.4008,-4.3882,-4.4003,-4.4003,-4.4111,-4.4008,-4.4008,-4.4008,-4.4008,-4.4008,-4.4008,-4.4008,-4.4008,-4.4008,-4.4008,-4.4008,-4.4008,-4.4008,-4.4008,-4.4008,-4.4008,-4.4008,-4.4008,-4.4008,-4.4008,-4.4008,-4.4008,-4.4008,-4.4008,-4.4008,-4.4008,-4.4008,-4.4008,-4.4008,-4.4008,-4.4008,-4.4008,-4.4008,-4.4008,-4.4008,-4.4008,-4.4008,-4.4008,-4.4008,-4.4008,-4.4008,-4.4008,-4.4008,-4.4008,-4.4102,-4.3957,-4.413,-4.4369,-4.4957,-4.5629,-4.5723,-4.5585,-4.5745,-4.5745,-4.5745,0.0,0.0,0.0,0.0,0.0,0.0,0.0,0.0,0.0,0.0,0.0,0.0,0.0,0.0,0.0,0.0,0.0,0.0,0.0,0.0,0.0,0.0,0.0,0.0,0.0,0.0,0.0,0.0,0.0,0.0,0.0,0.0,0.0,0.0,-4.1644,-4.2216,-4.2218,-4.2218,-4.2098,0.0,-4.239,-4.2846,-4.401,-4.2815,-4.2232,-4.2311,-4.3461,-4.4008,-4.4078,-4.407,-4.4111,-4.3909,-4.3901,-4.4008,-4.4008,-4.4008,-4.4008,-4.4008,-4.4008,-4.4008,-4.4008,-4.4008,-4.4008,-4.4008,-4.4008,-4.4008,-4.4008,-4.4008,-4.4008,-4.4008,-4.4008,-4.4008,-4.4008,-4.4008,-4.4008,-4.4008,-4.4008,-4.4008,-4.4008,-4.4008,-4.4008,-4.4008,-4.4008,-4.4008,-4.4008,-4.4008,-4.4008,-4.4008,-4.4008,-4.4008,-4.4008,-4.4008,-4.4008,-4.4008,-4.4008,-4.4008,-4.4008,-4.4008,-4.4008,-4.4008,-4.4035,-4.3997,-4.413,-4.4169,-4.5037,-4.5629,-4.567,-4.5611,-4.5745,-4.5745,-4.5745,-4.5745,0.0,0.0,0.0,0.0,0.0,0.0,0.0,0.0,0.0,0.0,0.0,0.0,0.0,0.0,0.0,0.0,0.0,0.0,0.0,0.0,0.0,0.0,0.0,0.0,0.0,0.0,0.0,0.0,0.0,0.0,0.0,0.0,0.0,-4.1697,-4.2041,-4.2216,-4.2218,-4.2218,-4.2098,0.0,-4.317,-4.3751,-4.4008,-4.3778,-4.3506,-4.3734,-4.3768,-4.3875,-4.4111,-4.3968,-4.3968,-4.3901,-4.3968,-4.4008,-4.4008,-4.4008,-4.4008,-4.4008,-4.4008,-4.4008,-4.4008,-4.4008,-4.4008,-4.4008,-4.4008,-4.4008,-4.4008,-4.4008,-4.4008,-4.4008,-4.4008,-4.4008,-4.4008,-4.4008,-4.4008,-4.4008,-4.4008,-4.4008,-4.4008,-4.4008,-4.4008,-4.4008,-4.4008,-4.4008,-4.4008,-4.4008,-4.4008,-4.4008,-4.4008,-4.4008,-4.4008,-4.4008,-4.4008,-4.4008,-4.4008,-4.4008,-4.4008,-4.4008,-4.4008,-4.4102,-4.4023,-4.409,-4.4529,-4.5374,-4.5455,-4.5723,-4.5652,-4.5718,-4.5745,-4.5745,-4.5745,-4.5745,0.0,0.0,0.0,0.0,0.0,0.0,0.0,0.0,0.0,0.0,0.0,0.0,0.0,0.0,0.0,0.0,0.0,0.0,0.0,0.0,0.0,0.0,0.0,0.0,0.0,0.0,0.0,0.0,0.0,0.0,0.0,-4.1056,-4.1597,-4.2081,-4.2216,-4.2084,-4.2218,-4.2218,-4.2151,-4.2279,-4.3331,-4.3913,-4.4043,-4.3909,-4.3909,-4.4043,-4.3941,-4.4008,-4.4008,-4.4008,-4.4008,-4.4008,-4.4008,-4.4008,-4.4008,-4.4008,-4.4008,-4.4008,-4.4008,-4.4008,-4.4008,-4.4008,-4.4008,-4.4008,-4.4008,-4.4008,-4.4008,-4.4008,-4.4008,-4.4008,-4.4008,-4.4008,-4.4008,-4.4008,-4.4008,-4.4008,-4.4008,-4.4008,-4.4008,-4.4008,-4.4008,-4.4008,-4.4008,-4.4008,-4.4008,-4.4008,-4.4008,-4.4008,-4.4008,-4.4008,-4.4008,-4.4008,-4.4008,-4.4008,-4.4008,-4.4008,-4.4008,-4.4008,-4.4008,-4.4129,-4.413,-4.4583,-4.5105,-4.5712,-4.5697,-4.5611,-4.5745,-4.5745,-4.5745,-4.5745,-4.5745,-4.5812,0.0,0.0,0.0,0.0,0.0,0.0,0.0,0.0,0.0,0.0,0.0,0.0,0.0,0.0,0.0,0.0,0.0,0.0,0.0,0.0,0.0,0.0,0.0,0.0,0.0,0.0,0.0,0.0,0.0,0.0,-4.0431,-4.1557,-4.2142,-4.2148,-4.2124,-4.2218,-4.2218,-4.2218,-4.2217,-4.2219,-4.3492,-4.4103,-4.4008,-4.4008,-4.4008,-4.4008,-4.4008,-4.4008,-4.4008,-4.4008,-4.4008,-4.4008,-4.4008,-4.4008,-4.4008,-4.4008,-4.4008,-4.4008,-4.4008,-4.4008,-4.4008,-4.4008,-4.4008,-4.4008,-4.4008,-4.4008,-4.4008,-4.4008,-4.4008,-4.4008,-4.4008,-4.4008,-4.4008,-4.4008,-4.4008,-4.4008,-4.4008,-4.4008,-4.4008,-4.4008,-4.4008,-4.4008,-4.4008,-4.4008,-4.4008,-4.4008,-4.4008,-4.4008,-4.4008,-4.4008,-4.4008,-4.4008,-4.4008,-4.4008,-4.4008,-4.4008,-4.4008,-4.4008,-4.4008,-4.4129,-4.3916,-4.5038,-4.5644,-4.5697,-4.5652,-4.5745,-4.5745,-4.5745,-4.5745,-4.5745,-4.5772,-4.5657,0.0,0.0,0.0,0.0,0.0,0.0,0.0,0.0,0.0,0.0,0.0,0.0,0.0,0.0,0.0,0.0,0.0,0.0,0.0,0.0,0.0,0.0,0.0,0.0,0.0,0.0,0.0,0.0,0.0,0.0,-4.0448,-4.1563,-4.2148,-4.2151,-4.2191,-4.2218,-4.2218,-4.2218,-4.2217,-4.2219,-4.3359,-4.3941,-4.4008,-4.4008,-4.4008,-4.4008,-4.4008,-4.4008,-4.4008,-4.4008,-4.4008,-4.4008,-4.4008,-4.4008,-4.4008,-4.4008,-4.4008,-4.4008,-4.4008,-4.4008,-4.4008,-4.4008,-4.4008,-4.4008,-4.4008,-4.4008,-4.4008,-4.4008,-4.4008,-4.4008,-4.4008,-4.4008,-4.4008,-4.4008,-4.4008,-4.4008,-4.4008,-4.4008,-4.4008,-4.4008,-4.4008,-4.4008,-4.4008,-4.4008,-4.4008,-4.4008,-4.4008,-4.4008,-4.4008,-4.4008,-4.4008,-4.4008,-4.4008,-4.4008,-4.4008,-4.4008,-4.4008,-4.4008,-4.4008,-4.3957,-4.3911,-4.5146,-4.5739,-4.5678,-4.5718,-4.5745,-4.5745,-4.5745,-4.5745,-4.5745,-4.5697,-4.5816,0.0,0.0,0.0,0.0,0.0,0.0,0.0,0.0,0.0,0.0,0.0,0.0,0.0,0.0,0.0,0.0,0.0,0.0,0.0,0.0,0.0,0.0,0.0,0.0,0.0,0.0,0.0,0.0,0.0,-4.1056,-4.1363,-4.192,-4.2216,-4.2218,-4.2218,-4.2218,-4.2218,-4.2218,-4.2512,-4.3113,-4.3714,-4.4008,-4.4008,-4.4008,-4.4008,-4.4008,-4.4008,-4.4008,-4.4008,-4.4008,-4.4008,-4.4008,-4.4008,-4.4008,-4.4008,-4.4008,-4.4008,-4.4008,-4.4008,-4.4008,-4.4008,-4.4008,-4.4008,-4.4008,-4.4008,-4.4008,-4.4008,-4.4008,-4.4008,-4.4008,-4.4008,-4.4008,-4.4008,-4.4008,-4.4008,-4.4008,-4.4008,-4.4008,-4.4008,-4.4008,-4.4008,-4.4008,-4.4008,-4.4008,-4.4008,-4.4008,-4.4008,-4.4008,-4.4008,-4.4008,-4.4008,-4.4008,-4.4008,-4.4008,-4.4008,-4.4008,-4.4008,-4.4008,-4.4008,-4.3957,-4.3938,-4.5172,-4.5779,-4.5745,-4.5745,-4.5745,-4.5745,-4.5745,-4.5812,-4.5697,-4.579,-4.6055,0.0,0.0,0.0,0.0,0.0,0.0,0.0,0.0,0.0,0.0,0.0,0.0,0.0,0.0,0.0,0.0,0.0,0.0,0.0,0.0,0.0,0.0,0.0,0.0,0.0,0.0,0.0,0.0,0.0,-4.1423,-4.1926,-4.2264,-4.2283,-4.2218,-4.2218,-4.2218,-4.2218,-4.2098,-4.2928,-4.3983,-4.4003,-4.4008,-4.4008,-4.4008,-4.4008,-4.4008,-4.4008,-4.4008,-4.4008,-4.4008,-4.4008,-4.4008,-4.4008,-4.4008,-4.4008,-4.4008,-4.4008,-4.4008,-4.4008,-4.4008,-4.4008,-4.4008,-4.4008,-4.4008,-4.4008,-4.4008,-4.4008,-4.4008,-4.4008,-4.4008,-4.4008,-4.4008,-4.4008,-4.4008,-4.4008,-4.4008,-4.4008,-4.4008,-4.4008,-4.4008,-4.4008,-4.4008,-4.4008,-4.4008,-4.4008,-4.4008,-4.4008,-4.4008,-4.4008,-4.4008,-4.4008,-4.4008,-4.4008,-4.4008,-4.4008,-4.4008,-4.4008,-4.4008,-4.4062,-4.4023,-4.3938,-4.497,-4.5562,-4.5745,-4.5745,-4.5745,-4.5745,-4.5745,-4.5604,-4.5579,-4.5949,-4.66,0.0,0.0,0.0,0.0,0.0,0.0,0.0,0.0,0.0,0.0,0.0,0.0,0.0,0.0,0.0,0.0,0.0,0.0,0.0,0.0,0.0,0.0,0.0,0.0,0.0,0.0,0.0,0.0,0.0,-4.1336,-4.1624,-4.1911,-4.2218,-4.2218,-4.2218,-4.2218,-4.2218,-4.2187,-4.2775,-4.3983,-4.4003,-4.4008,-4.4008,-4.4008,-4.4008,-4.4008,-4.4008,-4.4008,-4.4008,-4.4008,-4.4008,-4.4008,-4.4008,-4.4008,-4.4008,-4.4008,-4.4008,-4.4008,-4.4008,-4.4008,-4.4008,-4.4008,-4.4008,-4.4008,-4.4008,-4.4008,-4.4008,-4.4008,-4.4008,-4.4008,-4.4008,-4.4008,-4.4008,-4.4008,-4.4008,-4.4008,-4.4008,-4.4008,-4.4008,-4.4008,-4.4008,-4.4008,-4.4008,-4.4008,-4.4008,-4.4008,-4.4008,-4.4008,-4.4008,-4.4008,-4.4008,-4.4008,-4.4008,-4.4008,-4.4008,-4.4008,-4.4008,-4.4008,-4.3957,-4.3955,-4.3964,-4.5131,-4.5723,-4.5745,-4.5745,-4.5745,-4.5745,-4.5745,-4.5604,-4.5856,-4.6799,-4.7415,0.0,0.0,0.0,0.0,0.0,0.0,0.0,0.0,0.0,0.0,0.0,0.0,0.0,0.0,0.0,0.0,0.0,0.0,0.0,0.0,0.0,0.0,0.0,0.0,0.0,0.0,0.0,0.0,0.0,0.0,-4.1624,-4.1897,-4.2218,-4.2218,-4.2218,-4.2285,-4.2217,-4.2319,-4.2894,-4.3981,-4.407,-4.4008,-4.4008,-4.4008,-4.4008,-4.4008,-4.4008,-4.4008,-4.4008,-4.4008,-4.4008,-4.4008,-4.4008,-4.4008,-4.4008,-4.4008,-4.4008,-4.4008,-4.4008,-4.4008,-4.4008,-4.4008,-4.4008,-4.4008,-4.4008,-4.4008,-4.4008,-4.4008,-4.4008,-4.4008,-4.4008,-4.4008,-4.4008,-4.4008,-4.4008,-4.4008,-4.4008,-4.4008,-4.4008,-4.4008,-4.4008,-4.4008,-4.4008,-4.4008,-4.4008,-4.4008,-4.4008,-4.4008,-4.4008,-4.4008,-4.4008,-4.4008,-4.3904,-4.3997,-4.3997,-4.4021,-4.3938,-4.3938,-4.3916,-4.4203,-4.5091,-4.5511,-4.5697,-4.5671,-4.5671,-4.579,-4.5745,-4.563,-4.5579,-4.583,-4.7068,-4.739,0.0,0.0,0.0,0.0,0.0,0.0,0.0,0.0,0.0,0.0,0.0,0.0,0.0,0.0,0.0,0.0,0.0,0.0,0.0,0.0,0.0,0.0,0.0,0.0,0.0,0.0,0.0,0.0,0.0,0.0,-4.1611,-4.1897,-4.2218,-4.2218,-4.2218,-4.2098,-4.2094,-4.2655,-4.3233,-4.4103,-4.3875,-4.4008,-4.4008,-4.4008,-4.4008,-4.4008,-4.4008,-4.4008,-4.4008,-4.4008,-4.4008,-4.4008,-4.4008,-4.4008,-4.4008,-4.4008,-4.4008,-4.4008,-4.4008,-4.4008,-4.4008,-4.4008,-4.4008,-4.4008,-4.4008,-4.4008,-4.4008,-4.4008,-4.4008,-4.4008,-4.4008,-4.4008,-4.4008,-4.4008,-4.4008,-4.4008,-4.4008,-4.4008,-4.4008,-4.4008,-4.4008,-4.4008,-4.4008,-4.4008,-4.4008,-4.4008,-4.4008,-4.4008,-4.4008,-4.4366,-4.446,-4.4433,-4.4396,-4.4289,-4.4583,-4.4701,-4.4708,-4.5019,-4.5077,-4.5643,-4.6199,-4.6293,-4.6426,-4.6307,-4.6307,-4.6426,-4.6342,-4.5909,-4.583,-4.6307,-4.7215,-4.7524,0.0,0.0,0.0,0.0,0.0,0.0,0.0,0.0,0.0,0.0,0.0,0.0,0.0,0.0,0.0,0.0,0.0,0.0,0.0,0.0,0.0,0.0,0.0,0.0,0.0,0.0,0.0,0.0,0.0,-4.1336,-4.1336,-4.1884,-4.2218,-4.2218,-4.2218,-4.2098,-4.2094,-4.3521,-4.4105,-4.4103,-4.3875,-4.4008,-4.4008,-4.4008,-4.4008,-4.4008,-4.4008,-4.4008,-4.4008,-4.4008,-4.4008,-4.4008,-4.4008,-4.4008,-4.4008,-4.4008,-4.4008,-4.4008,-4.4008,-4.4008,-4.4008,-4.4008,-4.4008,-4.4008,-4.4008,-4.4008,-4.4008,-4.4008,-4.4008,-4.4008,-4.4008,-4.4008,-4.4008,-4.4008,-4.4008,-4.4008,-4.4008,-4.4008,-4.4008,-4.4008,-4.4008,-4.4008,-4.4008,-4.4008,-4.4008,-4.4008,-4.4008,-4.4008,-4.4008,-4.4873,-4.537,-4.5036,-4.5025,-4.5172,-4.5819,-4.5779,-4.6267,-4.7506,-4.7471,-4.7483,-4.7483,-4.7464,-4.76,-4.76,-4.76,-4.76,-4.7573,-4.6307,-4.6321,-4.76,-4.7577,-4.7551,-2.8457,0.0,0.0,0.0,0.0,0.0,0.0,0.0,0.0,0.0,0.0,0.0,0.0,0.0,0.0,0.0,0.0,0.0,0.0,0.0,0.0,0.0,0.0,0.0,0.0,0.0,0.0,0.0,-4.1016,-4.1336,-4.1336,-4.1884,-4.2218,-4.2218,-4.2218,-4.2098,-4.2094,-4.3521,-4.4105,-4.4103,-4.3875,-4.4008,-4.4008,-4.4008,-4.4008,-4.4008,-4.4008,-4.4008,-4.4008,-4.4008,-4.4008,-4.4008,-4.4008,-4.4008,-4.4008,-4.4008,-4.4008,-4.4008,-4.4008,-4.4008,-4.4008,-4.4008,-4.4008,-4.4008,-4.4008,-4.4008,-4.4008,-4.4008,-4.4008,-4.4008,-4.4008,-4.4008,-4.4008,-4.4008,-4.4008,-4.4008,-4.4008,-4.4008,-4.4008,-4.4008,-4.4008,-4.4008,-4.4008,-4.4008,-4.4008,-4.4008,-4.4008,-4.4088,-4.4595,-4.4995,-4.513,-4.5347,-4.5347,-4.5603,-4.6403,-4.6288,-4.6678,-4.7492,-4.755,-4.7457,-4.7457,-4.7524,-4.7551,-4.7551,-4.7551,-4.7457,-4.7577,-4.7256,-4.7256,-4.7577,-4.7551,-4.7428,0.0,0.0,0.0,0.0,0.0,0.0,0.0,-3.4282,0.0,0.0,0.0,0.0,0.0,0.0,0.0,0.0,0.0,0.0,0.0,0.0,0.0,0.0,0.0,0.0,0.0,0.0,0.0,-4.0481,-4.0909,-4.1269,-4.1523,-4.1964,-4.2218,-4.2218,-4.2218,-4.2124,-4.2253,-4.3006,-4.36,-4.4003,-4.3941,-4.4008,-4.4008,-4.4008,-4.4008,-4.4008,-4.4008,-4.4008,-4.4008,-4.4008,-4.4008,-4.4008,-4.4008,-4.4008,-4.4008,-4.4008,-4.4008,-4.4008,-4.4008,-4.4008,-4.4008,-4.4008,-4.4008,-4.4008,-4.4008,-4.4008,-4.4008,-4.4008,-4.4008,-4.4008,-4.4008,-4.4008,-4.4008,-4.4008,-4.4008,-4.4008,-4.4008,-4.4008,-4.4008,-4.4008,-4.4008,-4.4008,-4.4008,-4.4008,-4.4008,-4.4008,-4.4008,-4.4129,-4.4702,-4.4971,-4.5199,-4.5387,-4.5844,-4.6207,-4.655,-4.6493,-4.6894,-4.739,-4.7375,-4.7495,-4.7495,-4.7495,-4.7495,-4.7495,-4.7495,-4.7428,-4.7551,-4.7551,-4.7551,-4.7551,-4.7428,-4.7495,0.0,0.0,0.0,0.0,0.0,0.0,-3.3828,-3.4215,-3.4643,0.0,0.0,0.0,0.0,0.0,0.0,0.0,0.0,0.0,0.0,0.0,0.0,0.0,0.0,0.0,-4.0401,-4.0441,-4.0481,-4.0481,-4.0762,-4.1203,-4.175,-4.2071,-4.2218,-4.2218,-4.2218,-4.2191,-4.2127,-4.2464,-4.3041,-4.3901,-4.3968,-4.4008,-4.4008,-4.4008,-4.4008,-4.4008,-4.4008,-4.4008,-4.4008,-4.4008,-4.4008,-4.4008,-4.4008,-4.4008,-4.4008,-4.4008,-4.4008,-4.4008,-4.4008,-4.4008,-4.4008,-4.4008,-4.4008,-4.4008,-4.4008,-4.4008,-4.4008,-4.4008,-4.4008,-4.4008,-4.4008,-4.4008,-4.4008,-4.4008,-4.4008,-4.4008,-4.4008,-4.4008,-4.4008,-4.4048,-4.4048,-4.4008,-4.4035,-4.4035,-4.4008,-4.4008,-4.4035,-4.4155,-4.4463,-4.5293,-4.5683,-4.5424,-4.6146,-4.652,-4.6306,-4.676,-4.7068,-4.743,-4.7375,-4.7495,-4.7495,-4.7495,-4.7495,-4.7495,-4.7495,-4.7495,-4.7495,-4.7495,-4.7495,-4.7495,-4.7495,-4.7495,0.0,0.0,0.0,0.0,0.0,0.0,-3.1851,-3.2238,-3.2986,0.0,0.0,0.0,0.0,0.0,0.0,0.0,0.0,0.0,0.0,0.0,0.0,0.0,0.0,0.0,-4.0107,-4.0334,-4.0481,-4.0481,-4.0949,-4.1416,-4.175,-4.2071,-4.2218,-4.2218,-4.2218,-4.2285,-4.2124,-4.317,-4.3751,-4.3886,-4.407,-4.4008,-4.4008,-4.4008,-4.4008,-4.4008,-4.4008,-4.4008,-4.4008,-4.4008,-4.4008,-4.4008,-4.4008,-4.4008,-4.4008,-4.4008,-4.4008,-4.4008,-4.4008,-4.4008,-4.4008,-4.4008,-4.4008,-4.4008,-4.4008,-4.4008,-4.4008,-4.4008,-4.4008,-4.4008,-4.4008,-4.4008,-4.4008,-4.4008,-4.4008,-4.4008,-4.4008,-4.4008,-4.4366,-4.5193,-4.4738,-4.4062,-4.4023,-4.4129,-4.4008,-4.4008,-4.4235,-4.4489,-4.477,-4.5318,-4.5758,-4.5999,-4.6373,-4.6694,-4.6881,-4.6988,-4.7175,-4.7402,-4.7469,-4.7495,-4.7495,-4.7495,-4.7495,-4.7495,-4.7495,-4.7495,-4.7495,-4.7495,-4.7495,-4.7495,-4.7495,-4.7495,0.0,0.0,0.0,-3.0822,0.0,0.0,0.0,-3.2104,-3.2652,-3.4576,0.0,0.0,0.0,0.0,0.0,0.0,0.0,0.0,0.0,0.0,0.0,0.0,0.0,0.0,-4.0027,-4.0441,-4.0615,-4.0481,-4.1016,-4.1416,-4.1563,-4.1964,-4.2218,-4.2218,-4.2218,-4.2285,-4.2151,-4.2886,-4.3479,-4.3913,-4.407,-4.4008,-4.4008,-4.4008,-4.4008,-4.4008,-4.4008,-4.4008,-4.4008,-4.4008,-4.4008,-4.4008,-4.4008,-4.4008,-4.4008,-4.4008,-4.4008,-4.4008,-4.4008,-4.4008,-4.4008,-4.4008,-4.4008,-4.4008,-4.4008,-4.4008,-4.4008,-4.4008,-4.4008,-4.4008,-4.4008,-4.4008,-4.4008,-4.4008,-4.4008,-4.4008,-4.4008,-4.4008,-4.4155,-4.4904,-4.4729,-4.4635,-4.4623,-4.4556,-4.4449,-4.4449,-4.4556,-4.481,-4.5237,-4.5705,-4.6079,-4.6373,-4.6801,-4.7068,-4.7068,-4.7215,-4.7348,-4.7495,-4.7495,-4.7495,-4.7495,-4.7495,-4.7495,-4.7495,-4.7495,-4.7495,-4.7495,-4.7495,-4.7495,-4.7495,-4.7495,-4.7495,0.0,0.0,0.0,0.0,0.0,-3.1517,0.0,0.0,0.0,-3.4563,0.0,0.0,0.0,0.0,0.0,0.0,0.0,0.0,0.0,0.0,0.0,0.0,0.0,0.0,0.0,-4.0401,-4.0655,-4.0481,-4.0909,-4.1229,-4.1336,-4.1857,-4.2151,-4.2218,-4.2218,-4.2312,-4.2284,-4.2616,-4.3193,-4.3775,-4.3835,-4.4008,-4.4008,-4.4008,-4.4008,-4.4008,-4.4008,-4.4008,-4.4008,-4.4008,-4.4008,-4.4008,-4.4008,-4.4008,-4.4008,-4.4008,-4.4008,-4.4008,-4.4008,-4.4008,-4.4008,-4.4008,-4.4008,-4.4008,-4.4008,-4.4008,-4.4008,-4.4008,-4.4008,-4.4008,-4.4008,-4.4008,-4.4008,-4.4008,-4.4008,-4.4008,-4.4008,-4.4008,-4.4182,-4.4475,-4.4984,-4.5211,-4.5213,-4.5213,-4.5172,-4.4877,-4.4984,-4.5211,-4.5678,-4.6106,-4.644,-4.6694,-4.7175,-4.7388,-4.7175,-4.7362,-4.7495,-4.7495,-4.7495,-4.7495,-4.7495,-4.7495,-4.7495,-4.7495,-4.7495,-4.7495,-4.7495,-4.7495,-4.7495,-4.7495,-4.7495,-4.7495,0.0,0.0,0.0,0.0,-3.2385,0.0,0.0,0.0,-3.2185,-3.2452,0.0,0.0,0.0,0.0,0.0,0.0,0.0,0.0,0.0,0.0,0.0,0.0,0.0,0.0,0.0,-3.9773,-4.0214,-4.0468,-4.0548,-4.0802,-4.131,-4.1644,-4.1964,-4.2218,-4.2218,-4.2218,-4.2245,-4.2523,-4.3086,-4.3466,-4.3728,-4.4008,-4.4008,-4.4008,-4.4008,-4.4008,-4.4008,-4.4008,-4.4008,-4.4008,-4.4008,-4.4008,-4.4008,-4.4008,-4.4008,-4.4008,-4.4008,-4.4008,-4.4008,-4.4008,-4.4008,-4.4008,-4.4008,-4.4008,-4.4008,-4.4008,-4.4008,-4.4008,-4.4008,-4.4008,-4.4008,-4.4008,-4.4008,-4.4008,-4.4008,-4.4008,-4.4008,-4.4008,-4.4182,-4.477,-4.4837,-4.4903,-4.5211,-4.5064,-4.489,-4.4877,-4.5318,-4.5678,-4.5745,-4.644,-4.6988,-4.7028,-4.7322,-4.7495,-4.7455,-4.7469,-4.7495,-4.7495,-4.7495,-4.7495,-4.7495,-4.7495,-4.7495,-4.7495,-4.7495,-4.7495,-4.7495,-4.7495,-4.7495,-4.7495,-4.7495,-4.7495,0.0,0.0,0.0,0.0,0.0,0.0,0.0,0.0,-3.1744,0.0,0.0,0.0,0.0,0.0,0.0,0.0,0.0,0.0,0.0,0.0,0.0,0.0,0.0,0.0,0.0,0.0,0.0,0.0,-4.0481,-4.0735,-4.131,-4.1777,-4.2111,-4.2218,-4.2218,-4.2218,-4.2218,-4.2793,-4.3086,-4.3113,-4.3714,-4.4008,-4.4008,-4.4008,-4.4008,-4.4008,-4.4008,-4.4008,-4.4008,-4.4008,-4.4008,-4.4008,-4.4008,-4.4008,-4.4008,-4.4008,-4.4008,-4.4008,-4.4008,-4.4008,-4.4008,-4.4008,-4.4008,-4.4008,-4.4008,-4.4008,-4.4008,-4.4008,-4.4008,-4.4008,-4.4008,-4.4008,-4.4008,-4.4008,-4.4008,-4.4008,-4.4008,-4.4008,-4.4169,-4.4448,-4.4877,-4.532,-4.5491,-4.5451,-4.5384,-4.5384,-4.5745,-4.6079,-4.6226,-4.6734,-4.7135,-4.7282,-4.7428,-4.7495,-4.7495,-4.7495,-4.7495,-4.7495,-4.7495,-4.7495,-4.7495,-4.7495,-4.7495,-4.7495,-4.7495,-4.7495,-4.7495,-4.7495,-4.7495,-4.7495,-4.7495,-4.7495,-3.3641,0.0,0.0,0.0,0.0,0.0,0.0,0.0,0.0,0.0,0.0,0.0,0.0,0.0,0.0,0.0,0.0,0.0,0.0,0.0,0.0,0.0,0.0,0.0,0.0,0.0,0.0,-4.004,-4.004,-4.0361,-4.1163,-4.171,-4.2031,-4.2218,-4.2218,-4.2218,-4.2218,-4.2806,-4.31,-4.31,-4.3714,-4.4008,-4.4008,-4.4008,-4.4008,-4.4008,-4.4008,-4.4008,-4.4008,-4.4008,-4.4008,-4.4008,-4.4008,-4.4008,-4.4008,-4.4008,-4.4008,-4.4008,-4.4008,-4.4008,-4.4008,-4.4008,-4.4008,-4.4008,-4.4008,-4.4008,-4.4008,-4.4008,-4.4008,-4.4008,-4.4008,-4.4008,-4.4008,-4.4008,-4.4008,-4.4008,-4.4008,-4.4062,-4.3957,-4.3872,-4.4647,-4.5455,-4.5678,-4.5745,-4.5785,-4.5865,-4.6106,-4.64,-4.6694,-4.6988,-4.7282,-4.7469,-4.7495,-4.7495,-4.7495,-4.7495,-4.7495,-4.7495,-4.7495,-4.7495,-4.7495,-4.7495,-4.7495,-4.7495,-4.7495,-4.7495,-4.7495,-4.7495,-4.7495,-4.7495,-4.7495,-4.7495,0.0,0.0,0.0,-3.4148,0.0,0.0,0.0,0.0,-3.2599,0.0,0.0,0.0,0.0,0.0,0.0,0.0,0.0,0.0,0.0,0.0,0.0,0.0,0.0,0.0,0.0,0.0,0.0,-3.9118,-3.8945,-3.9412,-4.0842,-4.1203,-4.163,-4.2218,-4.2218,-4.2218,-4.2218,-4.2806,-4.31,-4.31,-4.3714,-4.4008,-4.4008,-4.4008,-4.4008,-4.4008,-4.4008,-4.4008,-4.4008,-4.4008,-4.4008,-4.4008,-4.4008,-4.4008,-4.4008,-4.4008,-4.4008,-4.4008,-4.4008,-4.4008,-4.4008,-4.4008,-4.4008,-4.4008,-4.4008,-4.4008,-4.4008,-4.4008,-4.4008,-4.4008,-4.4008,-4.4008,-4.4008,-4.4008,-4.4008,-4.4008,-4.4008,-4.393,-4.3916,-4.3911,-4.4161,-4.4462,-4.5418,-4.5745,-4.5852,-4.6133,-4.6386,-4.6427,-4.7028,-4.7322,-4.7495,-4.7495,-4.7495,-4.7495,-4.7495,-4.7495,-4.7495,-4.7495,-4.7495,-4.7495,-4.7495,-4.7495,-4.7495,-4.7495,-4.7495,-4.7495,-4.7495,-4.7495,-4.7495,-4.7495,-4.7495,-4.7495,0.0,0.0,-3.7301,-3.5725,0.0,0.0,0.0,0.0,0.0,0.0,0.0,0.0,0.0,0.0,0.0,0.0,0.0,0.0,0.0,0.0,0.0,0.0,0.0,0.0,0.0,0.0,0.0,-3.8825,-3.9132,-3.9786,-4.0842,-4.1189,-4.1603,-4.2178,-4.2218,-4.2218,-4.2218,-4.2806,-4.31,-4.31,-4.3714,-4.4008,-4.4008,-4.4008,-4.4008,-4.4008,-4.4008,-4.4008,-4.4008,-4.4008,-4.4008,-4.4008,-4.4008,-4.4008,-4.4008,-4.4008,-4.4008,-4.4008,-4.4008,-4.4008,-4.4008,-4.4008,-4.4008,-4.4008,-4.4008,-4.4008,-4.4008,-4.4008,-4.4008,-4.4008,-4.4008,-4.4008,-4.4008,-4.4008,-4.4008,-4.4008,-4.4008,-4.393,-4.4209,-4.5092,-4.5104,-4.5126,-4.5705,-4.6221,-4.6712,-4.6503,-4.66,-4.6948,-4.7068,-4.7322,-4.7495,-4.7495,-4.7495,-4.7495,-4.7495,-4.7495,-4.7495,-4.7495,-4.7495,-4.7495,-4.7495,-4.7495,-4.7495,-4.7495,-4.7495,-4.7495,-4.7495,-4.7495,-4.7495,-4.7495,-4.7495,-4.7495,-3.7448,-3.7889,0.0,-3.6727,-3.6299,0.0,-3.4269,0.0,0.0,0.0,0.0,0.0,0.0,0.0,0.0,0.0,0.0,0.0,0.0,-3.3668,0.0,0.0,0.0,0.0,0.0,0.0,-3.7448,-3.8798,-3.8731,-3.9306,0.0,0.0,-4.1497,-4.2178,-4.2218,-4.2218,-4.2218,-4.2806,-4.31,-4.31,-4.3714,-4.4008,-4.4008,-4.4008,-4.4008,-4.4008,-4.4008,-4.4008,-4.4008,-4.4008,-4.4008,-4.4008,-4.4008,-4.4008,-4.4008,-4.4008,-4.4008,-4.4008,-4.4008,-4.4008,-4.4008,-4.4008,-4.4008,-4.4008,-4.4008,-4.4008,-4.4008,-4.4008,-4.4008,-4.4008,-4.4008,-4.4008,-4.4008,-4.4008,-4.4008,-4.4008,-4.4008,-4.393,-4.4222,-4.5428,-4.5712,-4.5723,-4.5718,-4.6409,-4.6983,-4.6956,-4.7094,-4.7108,-4.7215,-4.7388,-4.7495,-4.7495,-4.7495,-4.7495,-4.7495,-4.7495,-4.7495,-4.7495,-4.7495,-4.7495,-4.7495,-4.7495,-4.7495,-4.7495,-4.7495,-4.7495,-4.7495,-4.7495,-4.7495,-4.7495,-4.7495,-4.7495]}]]